Date StartTime U_cm/s V_cm/s W_cm/s Ustd_cm/s Vstd_cm/s Wstd_cm/s Uvar_(cm/s)^2 Vvar_(cm/s)^2 Wvar_(cm/s)^2 KE_(m/s)^2 TurbulentKE_(m/s)^2 HorizWindSpeed_cm/s FrictionSpeec_cm/s DragCoef SpeedOfSound_m/s SonicTemperature_C Pressure_mb 
06/08/2014  00:00:00     -185.151      245.321      -51.182       88.532      113.140       50.958     7838.000    12800.575     2596.694        6.015        1.162      307.348       49.609        0.026      345.744       23.489      860.584
06/08/2014  00:01:00     -185.318      252.685      -49.045       56.240      121.957       45.389     3162.935    14873.505     2060.138        6.034        1.005      313.357       46.667        0.022      345.725       23.458      860.600
06/08/2014  00:02:00     -186.330      208.615      -41.653       97.481      104.995       54.889     9502.460    11023.980     3012.830        5.175        1.177      279.713       49.845        0.032      345.690       23.398      860.608
06/08/2014  00:03:00     -170.524      262.278      -38.192       87.245      119.083       54.743     7611.685    14180.847     2996.849        6.205        1.239      312.839       64.164        0.042      345.710       23.432      860.613
06/08/2014  00:04:00     -153.488      213.597      -29.660       80.487      106.204       49.177     6478.124    11279.189     2418.419        4.511        1.009      263.026       58.861        0.050      345.684       23.387      860.613
06/08/2014  00:05:00     -177.906      172.951      -41.494       90.485       60.078       42.463     8187.609     3609.411     1803.069        3.844        0.680      248.119       37.065        0.022      345.718       23.445      860.622
06/08/2014  00:06:00     -156.662      141.945      -35.003       67.303       63.367       35.145     4529.649     4015.436     1235.152        2.785        0.489      211.403       30.167        0.020      345.675       23.372      860.624
06/08/2014  00:07:00     -152.707      213.104      -41.130       59.725       95.986       46.742     3567.065     9213.306     2184.833        4.269        0.748      262.169       42.423        0.026      345.661       23.347      860.641
06/08/2014  00:08:00     -148.121      197.995      -27.140       75.246      103.399       42.307     5661.909    10691.354     1789.898        4.001        0.907      247.269       43.063        0.030      345.609       23.257      860.654
06/08/2014  00:09:00     -221.744      264.981      -46.430       80.102      134.762       54.948     6416.368    18160.921     3019.241        7.456        1.380      345.522       57.864        0.028      345.681       23.383      860.662
06/08/2014  00:10:00     -154.014      185.191      -32.077       85.306       98.362       51.161     7277.186     9675.025     2617.430        3.930        0.978      240.865       56.076        0.054      345.648       23.325      860.679
06/08/2014  00:11:00     -156.279      118.594      -39.282       82.895       57.189       40.228     6871.517     3270.544     1618.305        2.589        0.588      196.183       37.151        0.036      345.648       23.326      860.703
06/08/2014  00:12:00     -122.301      182.821      -31.297       65.655       85.004       52.480     4310.593     7225.706     2754.118        3.182        0.715      219.957       49.971        0.052      345.623       23.282      860.727
06/08/2014  00:13:00     -121.521      205.148      -21.667       75.885      112.511       49.564     5758.590    12658.768     2456.582        3.909        1.044      238.439       44.248        0.034      345.540       23.140      860.738
06/08/2014  00:14:00     -144.339      208.563      -35.795       89.364       57.581       46.251     7985.902     3315.562     2139.124        3.952        0.672      253.638       51.319        0.041      345.538       23.136      860.755
06/08/2014  00:15:00     -126.528      115.451       -9.462       90.427       64.877       48.012     8177.024     4209.042     2305.119        2.206        0.735      171.284       51.522        0.090      345.541       23.142      860.774
06/08/2014  00:16:00      -93.575      186.383      -24.486       58.269       96.396       40.047     3395.265     9292.279     1603.732        2.919        0.715      208.555       41.819        0.040      345.520       23.108      860.785
06/08/2014  00:17:00     -194.526      208.881      -38.383       86.502      105.137       59.002     7482.586    11053.708     3481.258        5.248        1.101      285.433       54.880        0.037      345.577       23.203      860.796
06/08/2014  00:18:00     -177.081      178.913      -35.620      114.262       96.711       56.601    13055.840     9352.957     3203.670        4.512        1.281      251.729       63.764        0.064      345.549       23.155      860.813
06/08/2014  00:19:00     -114.164      192.384      -35.729       85.666      105.327       50.062     7338.667    11093.687     2506.178        3.613        1.047      223.707       41.140        0.034      345.531       23.123      860.831
06/08/2014  00:20:00     -151.573      184.218      -38.465       62.320       69.959       36.197     3883.748     4894.298     1310.193        3.424        0.504      238.559       33.659        0.020      345.538       23.137      860.840
06/08/2014  00:21:00      -72.752      144.457      -11.233       52.748       68.207       39.253     2782.387     4652.137     1540.780        1.763        0.449      161.743       36.638        0.051      345.400       22.900      860.854
06/08/2014  00:22:00      -65.198       85.717      -17.379       39.793       65.348       26.958     1583.501     4270.355      726.745        0.924        0.329      107.694       26.454        0.060      345.415       22.929      860.864
06/08/2014  00:23:00      -93.589      127.918      -15.165       74.903       60.019       42.706     5610.385     3602.274     1823.782        1.819        0.552      158.499       28.426        0.032      345.460       23.004      860.882
06/08/2014  00:24:00     -103.624      160.532      -28.968       50.063       43.603       27.576     2506.291     1901.185      760.449        2.126        0.258      191.072       21.579        0.013      345.442       22.973      860.920
06/08/2014  00:25:00     -117.279       85.870      -22.024       53.172       57.170       32.261     2827.236     3268.401     1040.775        1.437        0.357      145.355       21.667        0.022      345.445       22.979      860.930
06/08/2014  00:26:00      -81.395       75.820       -8.893       37.943       46.618       30.493     1439.672     2173.268      929.793        0.850        0.227      111.238       24.450        0.048      345.371       22.854      860.953
06/08/2014  00:27:00      -64.184       73.964       -9.733       59.013       61.953       37.971     3482.591     3838.129     1441.789        0.922        0.438       97.929       44.384        0.205      345.375       22.860      860.983
06/08/2014  00:28:00      -87.871      219.835      -28.209       67.342       75.208       44.406     4534.900     5656.238     1971.893        3.450        0.608      236.746       38.137        0.026      345.455       22.994      860.995
06/08/2014  00:29:00      -50.477      214.724      -33.116       58.089      109.741       32.261     3374.303    12043.068     1040.782        3.310        0.823      220.577       32.078        0.021      345.456       22.998      861.008
06/08/2014  00:30:00      -80.357      149.391      -23.342       48.130       41.077       34.165     2316.523     1687.294     1167.242        1.724        0.259      169.632       28.908        0.029      345.405       22.912      861.016
06/08/2014  00:31:00      -69.873      151.285      -21.484       60.495       53.809       40.743     3659.603     2895.362     1660.018        1.822        0.411      166.641       36.006        0.047      345.346       22.809      861.016
06/08/2014  00:32:00      -54.484      199.095      -25.848       67.071       70.659       42.525     4498.543     4992.626     1808.399        2.729        0.565      206.415       21.564        0.011      345.378       22.864      861.030
06/08/2014  00:33:00      -78.175      193.842      -26.956       48.453       45.944       30.675     2347.716     2110.870      940.955        2.491        0.270      209.012       25.934        0.015      345.346       22.809      861.037
06/08/2014  00:34:00      -46.719      125.487       -6.259       47.509       68.387       36.441     2257.102     4676.846     1327.929        1.311        0.413      133.901       35.474        0.070      345.263       22.666      861.053
06/08/2014  00:35:00      -46.034      168.212      -18.366       62.698       71.432       35.186     3931.053     5102.496     1238.023        2.051        0.514      174.397       33.315        0.036      345.293       22.716      861.061
06/08/2014  00:36:00      -18.198       33.381        5.325       33.695       48.355       20.790     1135.357     2338.196      432.204        0.269        0.195       38.020        9.927        0.068      345.163       22.497      861.077
06/08/2014  00:37:00     -116.268      103.154      -24.887       85.732       63.944       49.724     7350.054     4088.893     2472.455        1.934        0.696      155.432       37.710        0.059      345.263       22.668      861.094
06/08/2014  00:38:00     -122.788      129.096      -31.343       65.718       53.481       41.113     4318.810     2860.257     1690.311        2.080        0.443      178.164       41.973        0.056      345.265       22.670      861.111
06/08/2014  00:39:00      -66.565       73.555        5.481       54.397       54.594       33.834     2959.027     2980.479     1144.735        0.848        0.354       99.203       34.526        0.121      345.164       22.498      861.117
06/08/2014  00:40:00      -57.886       63.982      -11.693       40.462       40.705       31.691     1637.212     1656.890     1004.308        0.594        0.215       86.281       24.099        0.078      345.165       22.499      861.135
06/08/2014  00:41:00      -72.477      152.790      -22.175       60.479       52.071       35.019     3657.676     2711.382     1226.351        1.834        0.380      169.109       25.457        0.023      345.207       22.571      861.147
06/08/2014  00:42:00      -64.919      120.937      -21.518       50.375       91.567       25.916     2537.686     8384.534      671.645        1.545        0.580      137.260       19.202        0.020      345.164       22.498      861.159
06/08/2014  00:43:00      -89.941       81.708      -15.099       61.889       58.251       29.518     3830.228     3393.212      871.306        1.154        0.405      121.514       32.512        0.072      345.131       22.443      861.165
06/08/2014  00:44:00      -94.412      128.426      -21.032       56.938       75.510       44.253     3241.944     5701.785     1958.355        1.837        0.545      159.396       42.147        0.070      345.221       22.594      861.176
06/08/2014  00:45:00     -156.610      161.042      -33.059       48.953       80.722       35.089     2396.380     6515.966     1231.250        3.085        0.507      224.636       27.439        0.015      345.188       22.535      861.194
06/08/2014  00:46:00     -159.321      137.704      -30.293       61.296       53.792       38.921     3757.171     2893.529     1514.809        2.671        0.408      210.584       38.741        0.034      345.250       22.642      861.200
06/08/2014  00:47:00     -129.778       77.046      -12.535       55.299       52.940       31.435     3057.973     2802.599      988.151        1.489        0.342      150.925       22.867        0.023      345.135       22.447      861.206
06/08/2014  00:48:00     -147.104      123.349      -28.637       54.274       80.889       35.576     2945.686     6543.108     1265.668        2.421        0.538      191.975       41.963        0.048      345.169       22.507      861.211
06/08/2014  00:49:00     -135.379      133.331      -35.717       64.150       73.204       35.667     4115.262     5358.767     1272.104        2.406        0.537      190.012       38.699        0.041      345.192       22.544      861.213
06/08/2014  00:50:00     -128.310      116.262      -28.345       57.965       62.423       31.852     3359.995     3896.651     1014.543        1.953        0.414      173.149       31.842        0.034      345.102       22.392      861.223
06/08/2014  00:51:00     -113.439       83.660       -9.594       53.133       67.474       33.078     2823.108     4552.726     1094.126        1.421        0.423      140.952       29.703        0.044      345.038       22.282      861.231
06/08/2014  00:52:00     -122.977      139.425      -17.627       66.618       63.027       45.224     4437.918     3972.430     2045.214        2.266        0.523      185.910       42.509        0.052      345.047       22.296      861.251
06/08/2014  00:53:00     -153.008      106.334      -17.514       83.249       78.303       43.129     6930.353     6131.383     1860.084        2.497        0.746      186.328       42.785        0.053      345.081       22.354      861.262
06/08/2014  00:54:00      -92.737      103.423       -8.162       55.740       59.745       40.586     3106.939     3569.449     1647.217        1.384        0.416      138.911       35.890        0.067      344.926       22.091      861.260
06/08/2014  00:55:00     -102.110       96.281       -9.316       62.723       65.005       25.548     3934.196     4225.688      652.677        1.430        0.441      140.345       23.342        0.028      344.943       22.121      861.272
06/08/2014  00:56:00      -91.622      120.868      -17.146       33.900       51.729       32.209     1149.178     2675.872     1037.442        1.408        0.243      151.670       27.895        0.034      344.908       22.060      861.276
06/08/2014  00:57:00     -123.153      121.892      -20.451       65.299       55.746       34.689     4263.993     3107.593     1203.339        1.951        0.429      173.275       27.592        0.025      344.919       22.078      861.285
06/08/2014  00:58:00     -100.736      125.738      -18.477       38.789       61.491       29.641     1504.588     3781.103      878.588        1.623        0.308      161.114       26.562        0.027      344.826       21.921      861.292
06/08/2014  00:59:00     -123.964      115.781      -16.591       47.395       71.295       40.064     2246.262     5082.938     1605.135        1.899        0.447      169.624       33.930        0.040      344.788       21.853      861.288
06/08/2014  01:00:00     -132.551      107.761      -22.454       60.584       53.284       31.038     3670.442     2839.167      963.371        1.858        0.374      170.828       29.545        0.030      344.844       21.949      861.285
06/08/2014  01:01:00     -128.656      141.825      -29.245       75.316       75.682       41.430     5672.479     5727.759     1716.429        2.532        0.656      191.486       40.555        0.045      344.807       21.885      861.299
06/08/2014  01:02:00     -110.471      152.792      -16.052       67.268       63.024       43.150     4525.001     3972.017     1861.963        2.308        0.518      188.545       37.193        0.039      344.755       21.798      861.318
06/08/2014  01:03:00     -164.086      184.973      -40.945       74.261       73.581       48.135     5514.650     5414.235     2316.945        3.803        0.662      247.264       40.031        0.026      344.770       21.821      861.314
06/08/2014  01:04:00     -161.299      125.537      -35.373       66.467       78.300       41.498     4417.808     6130.893     1722.056        2.765        0.614      204.394       41.370        0.041      344.766       21.815      861.307
06/08/2014  01:05:00     -111.618      125.865      -27.368       49.454       86.406       33.463     2445.668     7465.936     1119.792        2.004        0.552      168.228       37.072        0.049      344.709       21.719      861.304
06/08/2014  01:06:00     -138.047      187.503      -19.921       70.907      103.832       51.918     5027.743    10781.123     2695.458        3.655        0.925      232.840       46.517        0.040      344.824       21.913      861.303
06/08/2014  01:07:00     -121.272      125.657      -16.660       69.338       78.941       48.975     4807.738     6231.750     2398.569        2.210        0.672      174.633       46.051        0.070      344.760       21.804      861.299
06/08/2014  01:08:00     -183.633      214.644      -48.629       74.121       83.921       52.319     5493.991     7042.748     2737.265        4.871        0.764      282.476       44.580        0.025      344.811       21.891      861.310
06/08/2014  01:09:00     -182.026      217.329      -49.742       99.735       68.424       50.919     9947.163     4681.812     2592.747        5.003        0.861      283.488       55.895        0.039      344.806       21.883      861.305
06/08/2014  01:10:00     -165.708      231.830      -38.669       73.788       91.356       46.027     5444.629     8345.915     2118.454        4.930        0.795      284.963       46.112        0.026      344.765       21.810      861.310
06/08/2014  01:11:00     -196.493      181.953      -35.022       85.773       92.598       48.222     7356.962     8574.472     2325.346        4.560        0.913      267.799       41.652        0.024      344.758       21.799      861.305
06/08/2014  01:12:00     -191.631      189.868      -32.767       85.067       98.459       54.009     7236.406     9694.168     2916.940        4.684        0.992      269.764       56.559        0.044      344.753       21.790      861.303
06/08/2014  01:13:00     -196.495      127.519      -45.018       73.469       69.907       42.208     5397.709     4887.040     1781.504        3.448        0.603      234.247       37.067        0.025      344.768       21.817      861.306
06/08/2014  01:14:00     -170.390      211.823      -30.968       77.428      110.662       48.629     5995.106    12246.052     2364.765        4.773        1.030      271.849       53.783        0.039      344.712       21.724      861.316
06/08/2014  01:15:00     -174.073      236.125      -41.017       70.267       88.864       39.114     4937.396     7896.823     1529.916        5.105        0.718      293.354       37.192        0.016      344.721       21.738      861.327
06/08/2014  01:16:00     -126.576      179.768      -16.000       79.037      110.990       45.186     6246.803    12318.718     2041.741        3.460        1.030      219.859       42.673        0.038      344.659       21.630      861.318
06/08/2014  01:17:00     -157.555      179.341      -26.588       63.902       77.964       47.083     4083.478     6078.367     2216.824        3.503        0.619      238.719       35.814        0.023      344.708       21.715      861.318
06/08/2014  01:18:00     -168.477      215.850      -46.413       69.703       73.488       45.458     4858.541     5400.491     2066.444        4.473        0.616      273.817       47.642        0.030      344.680       21.667      861.333
06/08/2014  01:19:00     -192.350      214.988      -51.370       73.170       77.395       39.745     5353.824     5989.936     1579.633        4.939        0.646      288.476       45.330        0.025      344.668       21.647      861.351
06/08/2014  01:20:00     -213.925      236.326      -49.344       77.490      108.114       52.631     6004.708    11688.652     2770.060        6.225        1.023      318.769       45.021        0.020      344.678       21.664      861.342
06/08/2014  01:21:00     -215.698      231.394      -53.518       71.593      104.429       52.561     5125.560    10905.324     2762.682        6.086        0.940      316.337       48.475        0.023      344.724       21.741      861.360
06/08/2014  01:22:00     -147.896      207.669      -38.563       66.315       63.156       34.087     4397.632     3988.721     1161.948        3.802        0.477      254.950       36.075        0.020      344.649       21.615      861.361
06/08/2014  01:23:00     -150.805      250.363      -47.615       68.134       77.977       45.028     4642.296     6080.482     2027.490        5.022        0.638      292.274       38.774        0.018      344.709       21.716      861.375
06/08/2014  01:24:00     -109.323      133.770      -22.978       55.989       59.128       38.295     3134.803     3496.141     1466.486        1.923        0.405      172.759       38.916        0.051      344.637       21.596      861.394
06/08/2014  01:25:00     -135.964      174.801      -28.854       70.014       65.981       45.685     4901.932     4353.438     2087.156        3.061        0.567      221.454       43.514        0.039      344.679       21.665      861.390
06/08/2014  01:26:00     -102.521      154.741      -17.173       55.181       66.719       33.522     3044.997     4451.388     1123.706        2.168        0.431      185.621       31.077        0.028      344.647       21.613      861.394
06/08/2014  01:27:00      -69.805      129.436      -20.853       47.291       51.793       26.623     2236.463     2682.550      708.758        1.384        0.281      147.059       23.429        0.025      344.594       21.524      861.420
06/08/2014  01:28:00     -101.799      139.131      -18.145       52.493       67.744       33.468     2755.542     4589.243     1120.120        1.926        0.423      172.397       29.011        0.028      344.615       21.557      861.426
06/08/2014  01:29:00     -155.360      215.942      -44.286       50.836       65.467       36.708     2584.334     4285.872     1347.506        4.047        0.411      266.022       33.330        0.016      344.750       21.786      861.436
06/08/2014  01:30:00     -159.421      179.087      -39.521       61.965       87.003       38.079     3839.609     7569.490     1450.030        3.595        0.643      239.765       40.685        0.029      344.782       21.841      861.451
06/08/2014  01:31:00     -147.561      166.009      -33.571       52.334       82.690       26.081     2738.865     6837.576      680.202        3.036        0.513      222.111       22.780        0.011      344.745       21.779      861.429
06/08/2014  01:32:00     -136.282      118.499      -10.244       69.573       71.232       46.142     4840.348     5073.997     2129.124        2.238        0.602      180.596       39.006        0.047      344.700       21.704      861.437
06/08/2014  01:33:00     -122.726      135.357      -13.993       65.880       58.352       43.712     4340.117     3404.944     1910.768        2.162        0.483      182.710       31.859        0.030      344.703       21.707      861.455
06/08/2014  01:34:00     -118.770      162.094      -28.898       61.343       64.157       30.794     3762.929     4116.066      948.298        2.502        0.441      200.950       36.631        0.033      344.691       21.688      861.445
06/08/2014  01:35:00     -155.259      217.346      -41.012       75.516       81.224       47.227     5702.681     6597.315     2230.369        4.378        0.727      267.104       44.297        0.028      344.764       21.810      861.460
06/08/2014  01:36:00     -189.862      216.011      -45.134       81.703       96.138       55.416     6675.451     9242.468     3070.917        5.186        0.949      287.591       48.207        0.028      344.875       22.000      861.469
06/08/2014  01:37:00     -136.428      212.946      -29.677       85.493       88.650       49.749     7309.085     7858.889     2474.988        4.124        0.882      252.900       46.443        0.034      344.784       21.845      861.468
06/08/2014  01:38:00     -189.839      171.079      -39.365       88.893       70.957       53.555     7902.042     5034.887     2868.138        4.133        0.790      255.552       45.875        0.032      344.802       21.875      861.473
06/08/2014  01:39:00      -95.333      159.247      -23.265       50.288       82.212       38.028     2528.838     6758.778     1446.109        2.286        0.537      185.602       38.633        0.043      344.722       21.741      861.481
06/08/2014  01:40:00     -118.791      153.623      -24.868       56.846       59.727       35.673     3231.462     3567.367     1272.537        2.320        0.404      194.195       31.515        0.026      344.683       21.673      861.491
06/08/2014  01:41:00      -81.597      225.932      -29.545       60.588       65.354       36.438     3670.930     4271.165     1327.707        3.392        0.463      240.215       15.873        0.004      344.784       21.844      861.495
06/08/2014  01:42:00      -70.904      163.559      -24.974       61.121       79.850       43.218     3735.751     6376.089     1867.828        2.219        0.599      178.267       37.633        0.045      344.712       21.721      861.491
06/08/2014  01:43:00     -107.835      160.391      -32.567       52.959       77.167       32.619     2804.630     5954.748     1063.969        2.412        0.491      193.271       22.374        0.013      344.706       21.712      861.491
06/08/2014  01:44:00     -165.882      143.198      -32.913       78.590       72.606       46.148     6176.349     5271.582     2129.669        3.134        0.679      219.140       46.142        0.044      344.742       21.773      861.491
06/08/2014  01:45:00     -104.747      188.819      -25.502       67.212       79.671       41.742     4517.414     6347.537     1742.398        2.994        0.630      215.927       34.330        0.025      344.738       21.766      861.479
06/08/2014  01:46:00      -88.322      238.823      -34.383       46.767       76.402       31.410     2187.179     5837.315      986.560        3.751        0.451      254.631       28.638        0.013      344.781       21.840      861.483
06/08/2014  01:47:00     -117.147      164.252      -28.270       48.350       75.594       37.092     2337.730     5714.481     1375.795        2.546        0.471      201.747       27.008        0.018      344.701       21.704      861.465
06/08/2014  01:48:00     -124.416      182.223      -39.500       62.569       50.438       41.944     3914.895     2543.961     1759.264        2.923        0.411      220.646       33.312        0.023      344.717       21.731      861.464
06/08/2014  01:49:00     -102.151      161.954      -21.319       56.031       55.721       39.721     3139.445     3104.821     1577.762        2.247        0.391      191.479       34.305        0.032      344.660       21.634      861.465
06/08/2014  01:50:00     -120.805      166.202      -28.200       46.699       65.599       35.824     2180.786     4303.228     1283.372        2.539        0.388      205.468       32.406        0.025      344.645       21.608      861.472
06/08/2014  01:51:00     -132.160      156.069      -28.940       70.695       68.342       43.884     4997.814     4670.603     1925.813        2.713        0.580      204.509       44.141        0.047      344.639       21.598      861.483
06/08/2014  01:52:00     -123.561      154.745      -27.165       78.084       77.003       42.504     6097.106     5929.426     1806.611        2.689        0.692      198.024       47.306        0.057      344.630       21.582      861.485
06/08/2014  01:53:00     -105.398      162.362      -22.660       54.880       95.624       40.594     3011.802     9144.022     1647.900        2.589        0.690      193.572       25.070        0.017      344.578       21.495      861.488
06/08/2014  01:54:00     -188.171      242.686      -56.450       85.126       81.470       44.559     7246.505     6637.309     1985.498        5.668        0.793      307.091       50.173        0.027      344.677       21.661      861.502
06/08/2014  01:55:00     -152.790      190.821      -35.490       77.477       83.410       44.450     6002.669     6957.250     1975.800        3.797        0.747      244.454       41.711        0.029      344.596       21.523      861.505
06/08/2014  01:56:00     -152.105      170.185      -23.071       74.532       75.982       56.839     5554.967     5773.312     3230.624        3.359        0.728      228.252       56.355        0.061      344.606       21.540      861.507
06/08/2014  01:57:00     -154.847      150.372      -41.600       47.085       56.372       32.295     2216.969     3177.758     1042.951        2.738        0.322      215.845       26.460        0.015      344.596       21.524      861.513
06/08/2014  01:58:00     -151.709      237.423      -33.273       66.836       63.174       46.603     4467.052     3990.897     2171.877        4.556        0.531      281.754       42.164        0.022      344.592       21.514      861.528
06/08/2014  01:59:00     -101.221      145.078      -28.742       43.476       65.026       32.748     1890.132     4228.418     1072.426        1.965        0.360      176.899       28.313        0.026      344.546       21.439      861.534
06/08/2014  02:00:00     -106.783      126.237      -13.926       52.317       68.125       34.748     2737.035     4641.079     1207.415        1.806        0.429      165.343       28.666        0.030      344.512       21.382      861.546
06/08/2014  02:01:00      -98.616      114.667      -12.318       63.550       58.461       37.813     4038.543     3417.651     1429.800        1.595        0.444      151.240       31.695        0.044      344.475       21.320      861.558
06/08/2014  02:02:00     -140.933      157.154      -35.538       78.634      100.890       51.973     6183.240    10178.863     2701.148        3.244        0.953      211.091       64.185        0.092      344.577       21.491      861.576
06/08/2014  02:03:00     -115.902      156.270      -20.230       71.188       94.647       38.164     5067.746     8958.041     1456.499        2.687        0.774      194.560       40.129        0.043      344.506       21.371      861.600
06/08/2014  02:04:00      -55.672      116.384      -14.215       46.095       37.037       24.212     2124.783     1371.746      586.218        1.046        0.204      129.014       22.919        0.032      344.486       21.339      861.614
06/08/2014  02:05:00      -78.742      129.314      -10.253       41.743       43.730       28.286     1742.459     1912.297      800.092        1.374        0.223      151.401       26.620        0.031      344.427       21.237      861.614
06/08/2014  02:06:00      -63.175       83.213       -4.023       56.459       60.756       32.077     3187.625     3691.274     1028.959        0.942        0.395      104.477       28.995        0.077      344.408       21.205      861.618
06/08/2014  02:07:00      -86.735      107.962      -14.013       45.031       63.049       27.864     2027.823     3975.168      776.426        1.308        0.339      138.487       28.059        0.041      344.444       21.266      861.627
06/08/2014  02:08:00     -111.425      117.054      -21.638       56.420       36.215       40.299     3183.232     1311.510     1624.018        1.635        0.306      161.608       25.993        0.026      344.379       21.156      861.643
06/08/2014  02:09:00     -116.483       96.481      -21.079       51.199       69.905       34.521     2621.370     4886.660     1191.699        1.601        0.435      151.251       38.290        0.064      344.457       21.289      861.646
06/08/2014  02:10:00     -144.494      216.087      -37.031       51.372       69.520       39.406     2639.050     4833.097     1552.803        3.898        0.451      259.947       37.704        0.021      344.535       21.420      861.654
06/08/2014  02:11:00     -172.455      166.314      -29.693       65.548       92.156       48.479     4296.550     8492.689     2350.188        3.671        0.757      239.585       37.322        0.024      344.514       21.384      861.652
06/08/2014  02:12:00      -64.940      140.595      -15.223       51.448       79.803       35.890     2646.919     6368.558     1288.086        1.726        0.515      154.868       35.756        0.053      344.426       21.236      861.669
06/08/2014  02:13:00      -73.663       93.458      -16.091       44.020       70.796       29.465     1937.746     5012.094      868.196        1.112        0.391      118.999       25.775        0.047      344.422       21.230      861.681
06/08/2014  02:14:00      -40.222       72.819       -4.507       59.976       43.581       31.074     3597.171     1899.285      965.585        0.670        0.323       83.189       19.261        0.054      344.367       21.136      861.695
06/08/2014  02:15:00       17.660      101.899      -21.440       42.403       53.641       39.449     1798.054     2877.331     1556.225        0.869        0.312      103.418       12.942        0.016      344.405       21.201      861.709
06/08/2014  02:16:00       40.146       22.963        8.775       35.609       20.970       29.614     1267.973      439.757      876.984        0.240        0.129       46.249       24.292        0.276      344.227       20.895      861.728
06/08/2014  02:17:00       39.432       -4.178        8.316       25.682       49.503       26.029      659.553     2450.594      677.503        0.271        0.189       39.652       13.949        0.124      344.063       20.615      861.741
06/08/2014  02:18:00        0.156      -57.664       20.329       29.701       36.565       25.927      882.140     1337.006      672.225        0.331        0.145       57.664       10.833        0.035      344.072       20.633      861.746
06/08/2014  02:19:00      -15.583       12.490       24.694       16.932       39.263       26.298      286.686     1541.578      691.595        0.176        0.126       19.971       17.630        0.779      344.067       20.626      861.762
06/08/2014  02:20:00      -24.975       23.840       29.914       18.457       22.235       40.778      340.676      494.395     1662.863        0.229        0.125       34.526       26.661        0.596      343.918       20.369      861.780
06/08/2014  02:21:00       -1.535      -40.979        3.322       27.828       41.577       22.368      774.410     1728.639      500.329        0.235        0.150       41.008       12.929        0.099      343.953       20.427      861.785
06/08/2014  02:22:00       32.536      -56.143       -1.566       38.350       35.238       26.026     1470.749     1241.750      677.337        0.380        0.169       64.890       28.829        0.197      343.879       20.302      861.790
06/08/2014  02:23:00       38.950      -57.833       -5.594       32.761       39.070       21.358     1073.289     1526.431      456.148        0.397        0.153       69.727       19.136        0.075      343.998       20.505      861.811
06/08/2014  02:24:00       21.402      -58.546       -9.847       21.487       24.479       15.893      461.713      599.218      252.580        0.265        0.066       62.335       11.344        0.033      344.069       20.625      861.814
06/08/2014  02:25:00      -31.777      -10.759       -7.377       21.016       11.151        8.878      441.681      124.348       78.827        0.091        0.032       33.549        8.912        0.071      344.036       20.571      861.820
06/08/2014  02:26:00      -51.775      -27.952       -6.007       22.803       15.517        9.547      519.963      240.766       91.154        0.217        0.043       58.838        5.649        0.009      344.026       20.554      861.820
06/08/2014  02:27:00      -27.485      -38.585       -5.100       16.721       17.596       10.619      279.579      309.602      112.756        0.149        0.035       47.373        4.822        0.010      343.961       20.440      861.816
06/08/2014  02:28:00      -54.962      -17.656       -2.387       17.633       15.982       11.445      310.931      255.423      130.991        0.202        0.035       57.729        9.325        0.026      343.963       20.448      861.817
06/08/2014  02:29:00      -30.468       -7.413       -1.242       10.702       11.543       11.479      114.542      133.235      131.761        0.068        0.019       31.357        8.574        0.075      343.951       20.428      861.832
06/08/2014  02:30:00      -21.761       -9.331       -1.113        7.465        8.521        6.766       55.733       72.610       45.786        0.037        0.009       23.677        4.561        0.037      344.167       20.793      861.848
06/08/2014  02:31:00        3.657       -1.111        1.293       22.717       11.991       15.312      516.042      143.773      234.459        0.046        0.045        3.822        6.824        3.189      343.464       19.595      861.859
06/08/2014  02:32:00       26.444        2.623       23.127       26.751       20.713       18.118      715.629      429.009      328.253        0.136        0.074       26.574       12.257        0.213      343.068       18.919      861.855
06/08/2014  02:33:00       22.886       12.611       21.684       29.741       22.957       22.371      884.520      527.002      500.478        0.153        0.096       26.131       16.114        0.380      343.038       18.867      861.850
06/08/2014  02:34:00       -6.518       -4.904       10.932       13.111       11.720       11.013      171.906      137.364      121.289        0.031        0.022        8.157       10.224        1.571      343.285       19.288      861.848
06/08/2014  02:35:00       27.288        2.839       31.721       32.369       21.505       18.698     1047.727      462.470      349.620        0.181        0.093       27.435       10.847        0.156      342.841       18.533      861.850
06/08/2014  02:36:00       11.201       -2.293       15.707       22.615       17.196       11.424      511.439      295.703      130.513        0.066        0.047       11.433        9.804        0.735      342.992       18.789      861.856
06/08/2014  02:37:00       -1.290        3.680       14.732       18.451       17.256       13.450      340.433      297.779      180.905        0.053        0.041        3.900       11.893        9.300      343.024       18.846      861.842
06/08/2014  02:38:00      -14.097       -7.829        2.553        9.378       12.366        5.611       87.941      152.906       31.483        0.027        0.014       16.125        5.358        0.110      343.525       19.700      861.830
06/08/2014  02:39:00        9.983       -5.118        6.014       17.033       11.752       10.226      290.120      138.099      104.564        0.035        0.027       11.219        6.583        0.344      343.049       18.887      861.827
06/08/2014  02:40:00       21.066      -21.384      -11.925       29.421       28.806       18.511      865.581      829.759      342.648        0.154        0.102       30.017       10.180        0.115      342.994       18.793      861.833
06/08/2014  02:41:00       33.540      -25.964       18.887       22.188       21.127       17.373      492.318      446.330      301.814        0.170        0.062       42.415        9.816        0.054      343.200       19.144      861.836
06/08/2014  02:42:00       -8.603       24.165       33.245       17.256       19.586       17.876      297.785      383.616      319.543        0.138        0.050       25.651       11.628        0.205      343.024       18.844      861.844
06/08/2014  02:43:00       50.722      -25.859       11.094       21.355       26.320       23.701      456.017      692.741      561.714        0.254        0.086       56.933       15.333        0.073      342.882       18.602      861.863
06/08/2014  02:44:00        9.445       -8.696        9.675       13.482       14.016       10.342      181.752      196.438      106.964        0.037        0.024       12.839        6.262        0.238      343.199       19.143      861.870
06/08/2014  02:45:00       19.356        0.376       22.459       29.133       16.705       16.452      848.750      279.070      270.669        0.114        0.070       19.360       11.886        0.377      342.975       18.759      861.879
06/08/2014  02:46:00      -27.669      -10.751        5.608       31.342       14.051       12.178      982.330      197.441      148.294        0.112        0.066       29.684       16.521        0.310      343.338       19.381      861.891
06/08/2014  02:47:00      -35.191      -32.925       -1.175       21.053       16.593       10.810      443.240      275.325      116.854        0.158        0.042       48.192        9.351        0.038      343.472       19.608      861.892
06/08/2014  02:48:00      -28.490      -27.769        2.944       26.826       24.419       13.306      719.650      596.299      177.047        0.154        0.075       39.784       12.066        0.092      343.584       19.800      861.896
06/08/2014  02:49:00       17.865      -18.871       -4.199       35.273       22.174       15.219     1244.176      491.690      231.631        0.133        0.098       25.986       12.873        0.245      343.416       19.513      861.911
06/08/2014  02:50:00      -45.657      -18.931        1.577       54.105       26.309       17.215     2927.306      692.137      296.366        0.318        0.196       49.426       23.109        0.219      343.381       19.453      861.930
06/08/2014  02:51:00      -77.218      -37.095       -4.306       26.052       19.084       12.973      678.723      364.196      168.286        0.428        0.061       85.666        8.051        0.009      343.520       19.690      861.947
06/08/2014  02:52:00      -44.033      -35.015       -5.447       27.701       24.188       15.665      767.326      585.045      245.389        0.240        0.080       56.258       12.022        0.046      343.360       19.416      861.957
06/08/2014  02:53:00      -55.011      -94.251       -0.202       20.369       26.107       16.147      414.909      681.553      260.725        0.663        0.068      109.130        7.924        0.005      343.556       19.749      861.971
06/08/2014  02:54:00      -47.971      -92.798        1.326       30.544       31.973       20.494      932.948     1022.258      420.022        0.664        0.119      104.464       19.690        0.036      343.606       19.836      861.976
06/08/2014  02:55:00      -19.641      -84.052        9.883       18.166       22.287       10.502      330.013      496.725      110.293        0.424        0.047       86.316        8.143        0.009      343.569       19.772      861.964
06/08/2014  02:56:00        6.873      -68.513        6.098       36.923       32.089       20.348     1363.289     1029.734      414.043        0.379        0.140       68.857       21.348        0.096      343.553       19.745      861.944
06/08/2014  02:57:00      -12.064     -115.373      -11.086       43.266       50.985       31.202     1871.957     2599.495      973.590        0.951        0.272      116.002       23.210        0.040      343.512       19.675      861.937
06/08/2014  02:58:00      -22.086      -16.225        2.772       44.482       36.313       25.740     1978.644     1318.615      662.540        0.236        0.198       27.406       26.082        0.906      343.133       19.030      861.953
06/08/2014  02:59:00       38.251       16.605        8.782       22.036       25.409       23.284      485.605      645.620      542.152        0.174        0.084       41.700       12.137        0.085      342.712       18.312      861.977
06/08/2014  03:00:00      -10.872       26.085       17.249       15.472       21.084       16.098      239.388      444.544      259.161        0.102        0.047       28.260       12.818        0.206      342.841       18.533      861.989
06/08/2014  03:01:00      -16.655        0.091        8.009       23.293       21.825       16.445      542.559      476.310      270.425        0.082        0.064       16.656       15.620        0.880      342.918       18.666      861.998
06/08/2014  03:02:00      -67.766       -1.588       -9.205       25.562       20.983       15.119      653.422      440.300      228.590        0.300        0.066       67.785       10.452        0.024      343.067       18.918      862.007
06/08/2014  03:03:00     -105.804      -14.123       -2.405       21.102       17.885        9.931      445.304      319.857       98.622        0.613        0.043      106.742        3.646        0.001      343.157       19.070      862.011
06/08/2014  03:04:00      -23.696       12.039       15.331       32.179       21.039       22.245     1035.470      442.633      494.846        0.146        0.099       26.579       19.841        0.557      342.846       18.542      862.021
06/08/2014  03:05:00       58.326        7.455       11.849       23.457       19.171       20.090      550.239      367.519      403.608        0.246        0.066       58.801        9.329        0.025      342.676       18.253      862.028
06/08/2014  03:06:00       32.880       -2.898        8.453       36.692       20.036       18.016     1346.290      401.455      324.591        0.162        0.104       33.007        9.193        0.078      342.611       18.143      862.039
06/08/2014  03:07:00       27.477       -3.280       -0.389       34.367       15.864       14.049     1181.095      251.658      197.381        0.120        0.082       27.672        9.964        0.130      342.647       18.203      862.055
06/08/2014  03:08:00       35.833        7.529        8.823       26.779       18.082       20.491      717.141      326.965      419.892        0.144        0.073       36.616       15.592        0.181      342.625       18.167      862.067
06/08/2014  03:09:00       42.798       24.697       -0.321       17.393       17.323       15.266      302.527      300.094      233.039        0.164        0.042       49.413        5.856        0.014      342.695       18.287      862.065
06/08/2014  03:10:00       48.594       12.162       14.654       17.936       22.462       18.548      321.685      504.522      344.027        0.195        0.059       50.093       10.098        0.041      342.514       17.976      862.081
06/08/2014  03:11:00        5.554       10.597       20.769       12.253       19.149       17.276      150.139      366.698      298.465        0.069        0.041       11.964       15.265        1.628      342.375       17.741      862.087
06/08/2014  03:12:00       -5.460        4.107       -2.238       12.026        8.602        7.554      144.632       73.993       57.068        0.016        0.014        6.832        3.785        0.307      342.929       18.681      862.086
06/08/2014  03:13:00      -26.729        1.719       -1.234        7.443        7.293        6.805       55.404       53.189       46.302        0.044        0.008       26.784        6.468        0.058      342.915       18.660      862.081
06/08/2014  03:14:00      -15.022       12.527       -2.211       14.297       11.589        6.520      204.396      134.294       42.509        0.038        0.019       19.560        6.645        0.115      343.133       19.030      862.084
06/08/2014  03:15:00       36.229       23.738        0.331       18.811       16.520       13.399      353.846      272.901      179.535        0.134        0.040       43.314        7.904        0.033      342.877       18.595      862.094
06/08/2014  03:16:00       32.101       17.338        5.546       14.723       12.679       17.812      216.763      160.757      317.276        0.103        0.035       36.484        7.985        0.048      342.790       18.447      862.097
06/08/2014  03:17:00        8.725       10.374       14.555       13.465       17.434       15.726      181.317      303.933      247.305        0.056        0.037       13.555       13.405        0.978      342.805       18.471      862.096
06/08/2014  03:18:00      -42.935        1.140       -5.066       23.346       20.447        8.827      545.051      418.067       77.921        0.146        0.052       42.950       10.243        0.057      342.836       18.524      862.106
06/08/2014  03:19:00      -27.624       24.654        0.219       11.459       11.158        7.159      131.300      124.512       51.250        0.084        0.015       37.026        7.138        0.037      342.922       18.670      862.104
06/08/2014  03:20:00      -27.704       34.195       -8.906       11.068       11.519        8.200      122.500      132.676       67.233        0.117        0.016       44.010        7.006        0.025      343.174       19.099      862.096
06/08/2014  03:21:00       11.896        9.053        3.884        9.902       14.913       11.956       98.046      222.412      142.952        0.035        0.023       14.949        5.156        0.119      342.822       18.501      862.087
06/08/2014  03:22:00      -15.220        7.866        0.718       18.134        8.064        8.345      328.828       65.028       69.636        0.038        0.023       17.133        8.797        0.264      342.746       18.370      862.087
06/08/2014  03:23:00      -75.837        0.447      -10.506       22.112        6.336        6.508      488.928       40.145       42.348        0.322        0.029       75.838        9.528        0.016      342.676       18.254      862.085
06/08/2014  03:24:00      -42.261       -7.994       -0.161        7.820        7.875        7.224       61.152       62.013       52.184        0.101        0.009       43.011        5.678        0.017      342.572       18.076      862.076
06/08/2014  03:25:00      -18.454        5.059       -1.919       16.145        7.632        8.430      260.666       58.242       71.067        0.038        0.019       19.135       10.008        0.274      342.526       17.998      862.080
06/08/2014  03:26:00        6.670        6.454       13.401       33.919       12.564       17.793     1150.477      157.856      316.594        0.095        0.081        9.281       12.755        1.889      342.227       17.487      862.070
06/08/2014  03:27:00      -21.461      -10.886       10.824       19.953       25.064       14.734      398.118      628.209      217.103        0.097        0.062       24.064       12.864        0.286      342.320       17.645      862.060
06/08/2014  03:28:00      -26.798       -8.372       -2.313       23.005       17.306       10.409      529.223      299.506      108.338        0.087        0.047       28.075       10.654        0.144      342.493       17.940      862.056
06/08/2014  03:29:00      -40.546      -11.217        3.763       14.663       12.830       12.107      215.006      164.614      146.590        0.115        0.026       42.069        9.571        0.052      342.465       17.893      862.068
06/08/2014  03:30:00      -56.524      -21.501       -7.670       16.585       15.550       11.408      275.047      241.792      130.141        0.218        0.032       60.475        6.832        0.013      342.387       17.761      862.074
06/08/2014  03:31:00      -40.851       -5.854       -4.237       19.146       15.104       11.706      366.574      228.132      137.030        0.123        0.037       41.269        9.935        0.058      342.257       17.539      862.085
06/08/2014  03:32:00      -46.835      -13.220       -2.613       20.948       18.885       13.596      438.836      356.659      184.858        0.168        0.049       48.665        8.403        0.030      342.256       17.538      862.092
06/08/2014  03:33:00      -22.165       -6.687       -2.072       12.309        8.094       10.243      151.511       65.515      104.911        0.043        0.016       23.152        7.440        0.103      342.488       17.934      862.103
06/08/2014  03:34:00      -56.556      -34.722       -1.322       28.329       23.585       24.885      802.510      556.271      619.242        0.319        0.099       66.364       15.805        0.057      342.251       17.529      862.122
06/08/2014  03:35:00      -74.769        7.909       -5.767       33.388       26.173       20.112     1114.747      685.018      404.501        0.394        0.110       75.186       11.664        0.024      342.129       17.323      862.144
06/08/2014  03:36:00     -131.133      -23.507       -7.498       38.716       45.828       20.958     1498.931     2100.177      439.255        1.092        0.202      133.223       19.863        0.022      342.134       17.332      862.155
06/08/2014  03:37:00      -74.854      -23.163       -5.821       44.947       28.758       18.749     2020.228      827.028      351.507        0.469        0.160       78.356       19.679        0.063      342.075       17.231      862.176
06/08/2014  03:38:00      -88.337      -36.583        1.748       43.886       29.781       18.413     1925.996      886.879      339.023        0.615        0.158       95.613       20.867        0.048      342.073       17.227      862.204
06/08/2014  03:39:00     -105.401      -40.137       -2.712       25.216       25.827       18.481      635.843      667.027      341.557        0.719        0.082      112.785       12.724        0.013      342.053       17.192      862.204
06/08/2014  03:40:00      -67.514      -41.479       -2.670       42.681       39.315       20.736     1821.667     1545.673      429.973        0.504        0.190       79.238       22.891        0.083      342.079       17.237      862.202
06/08/2014  03:41:00      -43.159      -31.791       -0.614       33.001       16.562       12.881     1089.075      274.289      165.923        0.220        0.076       53.604       12.748        0.057      342.193       17.432      862.212
06/08/2014  03:42:00      -37.909      -44.557        6.679       30.436       24.673       13.606      926.354      608.761      185.131        0.259        0.086       58.501       12.358        0.045      342.257       17.539      862.226
06/08/2014  03:43:00      -68.843      -61.445       -9.103       23.945       22.208       14.549      573.371      493.175      211.668        0.494        0.064       92.276        8.825        0.009      342.305       17.621      862.231
06/08/2014  03:44:00      -26.562      -47.030       -2.366       25.156       17.343       17.209      632.834      300.773      296.148        0.208        0.061       54.012        8.560        0.025      342.304       17.618      862.230
06/08/2014  03:45:00      -48.730      -41.297       -0.537       16.118       12.618       10.023      259.805      159.207      100.451        0.230        0.026       63.875        9.052        0.020      342.383       17.753      862.241
06/08/2014  03:46:00      -31.790      -11.238        0.500       16.778        9.964       11.687      281.501       99.277      136.583        0.083        0.026       33.718        3.177        0.009      342.306       17.623      862.255
06/08/2014  03:47:00      -35.400      -13.067        4.599       21.203       15.358        7.003      449.552      235.867       49.043        0.109        0.037       37.735        7.325        0.038      342.321       17.649      862.255
06/08/2014  03:48:00      -60.537      -12.807       -4.416       13.346       18.025       11.107      178.107      324.910      123.361        0.224        0.031       61.877        8.094        0.017      342.467       17.898      862.263
06/08/2014  03:49:00      -64.724        0.700       -1.819       19.977       11.369       11.527      399.095      129.262      132.876        0.243        0.033       64.727       11.129        0.030      342.315       17.638      862.275
06/08/2014  03:50:00      -31.554        1.233        4.745       22.513       11.724       13.084      506.837      137.446      171.202        0.092        0.041       31.578       11.140        0.124      342.162       17.377      862.293
06/08/2014  03:51:00        5.658        4.553       22.919       20.947       15.600       10.485      438.770      243.361      109.943        0.068        0.040        7.263        7.217        0.987      341.805       16.772      862.294
06/08/2014  03:52:00      -11.110       -8.096        4.230       14.383        6.611        7.978      206.867       43.699       63.644        0.026        0.016       13.747        9.118        0.440      342.075       17.231      862.298
06/08/2014  03:53:00      -16.842        3.914        7.162        6.288        8.698        7.155       39.545       75.656       51.195        0.026        0.008       17.290        6.208        0.129      342.166       17.386      862.324
06/08/2014  03:54:00      -16.902        6.290        7.051       14.782        7.377        5.418      218.501       54.423       29.350        0.034        0.015       18.034        3.912        0.047      341.883       16.906      862.331
06/08/2014  03:55:00       13.360      -14.481        4.383       22.659       17.703       17.236      513.425      313.399      297.071        0.077        0.056       19.703       12.850        0.425      341.763       16.701      862.334
06/08/2014  03:56:00       25.503      -14.826        1.556       23.310       17.744       17.581      543.378      314.846      309.098        0.102        0.058       29.499        5.367        0.033      341.757       16.691      862.344
06/08/2014  03:57:00       18.727       12.487       34.704       24.976       23.774       14.501      623.780      565.196      210.287        0.155        0.070       22.508       11.379        0.256      341.648       16.506      862.339
06/08/2014  03:58:00       56.159      -18.796        3.745       29.486       34.403       25.376      869.432     1183.575      643.943        0.311        0.135       59.221       23.531        0.158      341.916       16.959      862.341
06/08/2014  03:59:00       73.824      -54.901        3.519       31.056       34.392       22.815      964.493     1182.781      520.515        0.557        0.133       92.001        7.618        0.007      341.914       16.958      862.325
06/08/2014  04:00:00       24.589       -0.400       30.381       29.814       17.633       18.326      888.866      310.921      335.835        0.153        0.077       24.593       15.010        0.373      341.666       16.537      862.324
06/08/2014  04:01:00       -2.178       11.309       18.896       14.443       11.103       15.531      208.604      123.269      241.197        0.053        0.029       11.517       13.015        1.277      341.718       16.627      862.326
06/08/2014  04:02:00       29.206      -16.499        7.888       18.675       17.364       22.115      348.739      301.508      489.088        0.116        0.057       33.544        9.371        0.078      341.997       17.097      862.312
06/08/2014  04:03:00       16.274      -10.912       10.244       29.832       18.926       14.673      889.934      358.180      215.283        0.098        0.073       19.594       16.952        0.748      342.065       17.214      862.303
06/08/2014  04:04:00      -14.533      -12.215       -6.558       17.844       12.226        8.589      318.395      149.476       73.772        0.047        0.027       18.985        8.283        0.190      342.052       17.190      862.316
06/08/2014  04:05:00       -6.245      -20.448       -0.972       23.702       12.265        8.696      561.791      150.420       75.613        0.062        0.039       21.381        5.394        0.064      342.054       17.196      862.323
06/08/2014  04:06:00      -25.002       -4.346       -0.352        7.476        8.340        6.647       55.893       69.550       44.179        0.041        0.008       25.377        5.599        0.049      342.115       17.298      862.341
06/08/2014  04:07:00      -39.703      -11.500       -0.646       21.580        9.603        8.978      465.696       92.208       80.610        0.117        0.032       41.335       11.577        0.078      342.134       17.330      862.354
06/08/2014  04:08:00      -72.968      -15.112       -6.452       13.037       11.873       10.200      169.966      140.967      104.044        0.300        0.021       74.517        4.693        0.004      342.066       17.216      862.366
06/08/2014  04:09:00      -81.755      -12.660      -15.340       13.517       21.576        9.133      182.711      465.540       83.405        0.391        0.037       82.729        7.133        0.007      342.034       17.159      862.379
06/08/2014  04:10:00      -52.902      -56.125       -6.550       29.755       13.694       12.776      885.347      187.539      163.236        0.361        0.062       77.127        8.182        0.011      342.190       17.428      862.379
06/08/2014  04:11:00       53.064      -17.957        5.916       45.472       17.234       15.955     2067.692      297.014      254.570        0.290        0.131       56.020        7.922        0.020      342.094       17.264      862.376
06/08/2014  04:12:00       57.674      -16.962       13.286       24.431       19.364       24.776      596.871      374.980      613.844        0.269        0.079       60.116       17.019        0.080      342.030       17.154      862.375
06/08/2014  04:13:00        7.851       -3.258        2.588       27.734       23.455       23.760      769.198      550.131      564.522        0.098        0.094        8.500       10.386        1.493      342.078       17.236      862.386
06/08/2014  04:14:00      -40.799       -8.204       -8.221       20.888       16.600       15.602      436.297      275.559      243.415        0.138        0.048       41.616       11.325        0.074      342.046       17.182      862.396
06/08/2014  04:15:00      -37.440      -24.175       -3.935       22.779       12.959       12.879      518.895      167.935      165.874        0.143        0.043       44.567        9.350        0.044      341.874       16.889      862.384
06/08/2014  04:16:00      -87.426      -53.832       -2.795       24.970       29.132       16.004      623.522      848.657      256.126        0.614        0.086      102.670       11.582        0.013      341.859       16.864      862.381
06/08/2014  04:17:00     -116.624      -14.235      -12.742       21.436       16.097       15.261      459.482      259.116      232.903        0.746        0.048      117.489       11.677        0.010      341.843       16.838      862.402
06/08/2014  04:18:00      -70.363      -24.888       -2.110       33.275       21.986       18.838     1107.240      483.375      354.888        0.376        0.097       74.635       18.486        0.061      341.871       16.884      862.416
06/08/2014  04:19:00      -93.999      -35.728       -7.562       11.743       21.521       15.926      137.908      463.171      253.638        0.551        0.043      100.560       11.674        0.013      341.899       16.931      862.426
06/08/2014  04:20:00      -83.464      -49.092        2.494       38.674       35.534       22.503     1495.652     1262.657      506.397        0.632        0.163       96.831       16.942        0.031      341.820       16.800      862.426
06/08/2014  04:21:00      -94.710      -38.596        3.232       31.538       42.819       23.070      994.669     1833.458      532.218        0.691        0.168      102.273       18.068        0.031      341.767       16.709      862.432
06/08/2014  04:22:00      -59.382      -10.529       -4.268       27.951       13.861       11.739      781.256      192.140      137.815        0.238        0.056       60.308        9.672        0.026      341.736       16.654      862.463
06/08/2014  04:23:00      -61.839      -38.959       -3.923       30.341       16.776       12.612      920.550      281.441      159.064        0.336        0.068       73.088       11.320        0.024      341.707       16.606      862.474
06/08/2014  04:24:00      -72.251      -53.338        1.815       51.787       22.959       22.523     2681.926      527.120      507.302        0.589        0.186       89.807       26.082        0.084      341.692       16.582      862.478
06/08/2014  04:25:00      -88.061      -30.096       -8.076       24.571       28.030       14.798      603.731      785.699      218.972        0.517        0.080       93.062       14.038        0.023      341.745       16.671      862.497
06/08/2014  04:26:00      -69.685      -41.142       -6.815       27.728       20.896       19.061      768.856      436.651      363.320        0.408        0.078       80.924       14.436        0.032      341.732       16.652      862.500
06/08/2014  04:27:00      -95.640      -62.141        0.398       58.528       53.323       30.468     3425.469     2843.340      928.271        1.010        0.360      114.055       34.272        0.090      341.730       16.644      862.500
06/08/2014  04:28:00     -117.461     -118.250       -7.150       54.417       47.804       33.363     2961.189     2285.247     1113.102        1.709        0.318      166.673       29.542        0.031      341.730       16.645      862.509
06/08/2014  04:29:00      -59.511      -27.546       -5.265       60.920       34.193       19.691     3711.202     1169.175      387.732        0.480        0.263       65.577       17.377        0.070      341.800       16.765      862.531
06/08/2014  04:30:00      -89.179      -26.075       -4.934       24.555       18.663       13.858      602.935      348.300      192.051        0.490        0.057       92.913       12.471        0.018      341.817       16.793      862.554
06/08/2014  04:31:00      -14.301      -12.408       11.087       32.860       20.580       16.677     1079.765      423.530      278.137        0.113        0.089       18.933       16.947        0.801      341.504       16.263      862.562
06/08/2014  04:32:00      -63.854      -11.118       -3.269       30.630       21.776       14.168      938.186      474.182      200.720        0.291        0.081       64.814       16.790        0.067      341.518       16.286      862.574
06/08/2014  04:33:00      -68.695        6.253       -7.597       24.860       12.665       13.402      618.042      160.395      179.608        0.289        0.048       68.979       12.765        0.034      341.478       16.218      862.591
06/08/2014  04:34:00     -103.919        4.281      -13.888       22.208       14.273        8.655      493.174      203.706       74.901        0.589        0.039      104.007        8.659        0.007      341.528       16.304      862.609
06/08/2014  04:35:00     -110.130      -18.174      -10.701       25.857       21.200       12.493      668.564      449.445      156.081        0.692        0.064      111.619        9.976        0.008      341.428       16.133      862.620
06/08/2014  04:36:00      -80.426      -16.417       -1.501       22.837       17.129       12.582      521.520      293.388      158.318        0.386        0.049       82.085       11.664        0.020      341.381       16.054      862.623
06/08/2014  04:37:00      -82.919      -19.743       -3.426       18.084       22.596       12.050      327.033      510.561      145.208        0.413        0.049       85.237       10.160        0.014      341.302       15.922      862.629
06/08/2014  04:38:00      -96.447       -3.674       -1.418       39.455       31.280       18.915     1556.717      978.467      357.787        0.610        0.145       96.517       14.342        0.022      341.201       15.750      862.636
06/08/2014  04:39:00      -86.354      -14.080       -8.709       36.794       27.654       12.968     1353.769      764.724      168.156        0.501        0.114       87.495       14.525        0.028      341.154       15.671      862.638
06/08/2014  04:40:00      -50.578      -22.853       -2.718       26.479       19.849       16.545      701.133      393.972      273.746        0.223        0.068       55.502       16.778        0.091      341.135       15.638      862.639
06/08/2014  04:41:00      -39.575      -12.400        3.792       18.521       28.050       13.193      343.025      786.820      174.047        0.152        0.065       41.473       13.962        0.113      341.062       15.514      862.660
06/08/2014  04:42:00      -32.854      -17.598       -5.358       14.491       18.969        9.868      209.997      359.815       97.377        0.104        0.033       37.270        7.600        0.042      341.110       15.594      862.669
06/08/2014  04:43:00      -58.072      -27.513      -10.457       14.603       15.122        9.012      213.241      228.687       81.225        0.238        0.026       64.260        3.858        0.004      341.351       16.002      862.670
06/08/2014  04:44:00      -79.058      -16.524      -17.389       12.534       15.819        9.604      157.105      250.246       92.246        0.366        0.025       80.767        7.085        0.008      341.288       15.896      862.668
06/08/2014  04:45:00      -72.152      -11.929      -12.133       14.740       14.922       11.080      217.265      222.654      122.762        0.303        0.028       73.132        4.357        0.004      341.256       15.845      862.681
06/08/2014  04:46:00      -22.125      -15.733       -3.777       20.056       17.467       13.934      402.242      305.108      194.166        0.083        0.045       27.149       12.312        0.206      341.399       16.084      862.691
06/08/2014  04:47:00      -31.017       -1.699        4.127        8.492        6.679       10.104       72.116       44.604      102.096        0.060        0.011       31.063        2.388        0.006      341.666       16.538      862.693
06/08/2014  04:48:00      -28.729       16.196        2.291       21.312       12.349        9.026      454.212      152.502       81.477        0.089        0.034       32.979        6.483        0.039      341.650       16.510      862.713
06/08/2014  04:49:00      -37.892        9.298       -3.564       16.677       24.224       10.916      278.111      586.811      119.162        0.126        0.049       39.016       11.286        0.084      341.887       16.913      862.721
06/08/2014  04:50:00      -43.445      -11.124       -5.033       12.164       10.598        8.533      147.964      112.312       72.807        0.118        0.017       44.846        2.787        0.004      341.526       16.298      862.721
06/08/2014  04:51:00      -40.814        9.443       -4.203        9.739        9.691        6.896       94.844       93.912       47.556        0.100        0.012       41.892        3.318        0.006      341.595       16.417      862.729
06/08/2014  04:52:00      -36.891        5.736       -2.642       12.117       12.512        8.337      146.816      156.547       69.510        0.089        0.019       37.335        4.236        0.013      341.563       16.364      862.736
06/08/2014  04:53:00      -50.018       -5.826       -8.752       15.465       21.668       11.251      239.173      469.481      126.574        0.172        0.042       50.356        7.511        0.022      341.467       16.200      862.743
06/08/2014  04:54:00      -66.581       21.265      -11.594       17.555       16.635       10.138      308.181      276.712      102.788        0.285        0.034       69.895       11.607        0.028      341.716       16.621      862.751
06/08/2014  04:55:00      -65.004       14.291       -5.202       21.785       23.694       12.360      474.570      561.429      152.771        0.282        0.059       66.556       10.836        0.027      341.547       16.334      862.756
06/08/2014  04:56:00      -73.106       44.769      -15.661       16.759       21.192       11.686      280.873      449.080      136.556        0.423        0.043       85.725        9.907        0.013      342.161       17.377      862.773
06/08/2014  04:57:00      -59.317       -6.134       -7.192       10.695       11.975        7.865      114.376      143.399       61.851        0.196        0.016       59.634        6.056        0.010      341.488       16.234      862.762
06/08/2014  04:58:00      -66.347        1.411      -16.408        9.849       12.936        7.536       97.003      167.329       56.794        0.250        0.016       66.362        5.228        0.006      341.585       16.400      862.759
06/08/2014  04:59:00      -70.248       17.946      -13.754       12.839       18.285       10.054      164.835      334.350      101.082        0.302        0.030       72.504        9.096        0.016      342.054       17.194      862.756
06/08/2014  05:00:00      -57.959       -2.693      -15.087        9.656        8.469        6.891       93.244       71.718       47.487        0.190        0.011       58.022        6.103        0.011      341.647       16.506      862.754
06/08/2014  05:01:00      -71.708       -8.055      -16.713       12.769       12.242        9.747      163.035      149.860       95.008        0.295        0.020       72.159        4.811        0.004      341.408       16.099      862.760
06/08/2014  05:02:00      -65.438       -9.597      -12.345        9.403       14.983        9.296       88.415      224.500       86.418        0.246        0.020       66.138        9.649        0.021      341.594       16.414      862.757
06/08/2014  05:03:00      -89.091       -4.185      -13.778       17.983        8.947        8.621      323.372       80.040       74.324        0.431        0.024       89.190        4.327        0.002      341.876       16.894      862.746
06/08/2014  05:04:00      -87.154      -24.163      -15.799       18.579       14.328       10.099      345.167      205.298      101.990        0.454        0.033       90.441        4.614        0.003      341.666       16.535      862.737
06/08/2014  05:05:00      -60.710       -9.009       -8.284       19.553       11.755       15.406      382.328      138.174      237.336        0.230        0.038       61.375        3.332        0.003      341.491       16.241      862.746
06/08/2014  05:06:00      -37.734      -27.297      -16.010       19.070       15.934       15.600      363.662      253.905      243.362        0.164        0.043       46.572       11.017        0.056      341.563       16.362      862.758
06/08/2014  05:07:00      -22.186      -15.628        1.399       16.862       12.450       10.864      284.315      155.007      118.017        0.065        0.028       27.138        9.665        0.127      341.454       16.175      862.764
06/08/2014  05:08:00      -66.061      -27.947       -6.382       13.972       18.516        6.691      195.222      342.833       44.764        0.288        0.029       71.729        1.911        0.001      341.638       16.491      862.768
06/08/2014  05:09:00      -33.363      -43.462       -4.580       24.063       16.715       14.640      579.038      279.395      214.337        0.205        0.054       54.790       15.450        0.080      341.577       16.385      862.776
06/08/2014  05:10:00      -54.588      -27.380        0.168       21.111       15.104       11.863      445.692      228.138      140.736        0.227        0.041       61.070        8.318        0.019      341.406       16.096      862.793
06/08/2014  05:11:00      -70.985      -44.488        0.440       29.146       17.059       14.656      849.483      291.001      214.803        0.419        0.068       83.773       15.044        0.032      341.387       16.065      862.794
06/08/2014  05:12:00      -18.893      -27.288        2.794       24.452       16.441       15.062      597.902      270.321      226.852        0.110        0.055       33.190       12.749        0.148      341.307       15.929      862.799
06/08/2014  05:13:00      -37.439      -38.413       -0.506       22.047       16.775       10.994      486.082      281.394      120.866        0.188        0.044       53.640        8.983        0.028      341.334       15.974      862.813
06/08/2014  05:14:00      -22.826      -21.072       -0.805       22.672       25.119       14.628      514.009      630.957      213.966        0.116        0.068       31.065        9.548        0.094      341.340       15.985      862.833
06/08/2014  05:15:00      -23.666      -22.974        4.995       27.396       21.566       13.029      750.519      465.084      169.755        0.125        0.069       32.983       13.631        0.171      341.346       15.994      862.843
06/08/2014  05:16:00      -13.254      -15.148        7.159       16.658       16.100       13.519      277.475      259.216      182.754        0.059        0.036       20.128       13.147        0.427      341.391       16.071      862.848
06/08/2014  05:17:00      -32.117      -34.415        1.978       20.400       20.971       13.623      416.176      439.795      185.578        0.163        0.052       47.073       11.004        0.055      341.364       16.026      862.853
06/08/2014  05:18:00      -28.762      -61.904       -3.220       29.683       24.264       17.803      881.096      588.755      316.950        0.323        0.089       68.259       14.057        0.042      341.450       16.171      862.864
06/08/2014  05:19:00      -38.635      -63.371        3.383       35.406       34.315       26.395     1253.589     1177.486      696.699        0.432        0.156       74.220       20.184        0.074      341.447       16.165      862.870
06/08/2014  05:20:00      -36.151      -23.725        7.183       43.027       25.405       15.772     1851.301      645.433      248.744        0.233        0.137       43.241        9.929        0.053      341.153       15.668      862.870
06/08/2014  05:21:00       -9.274      -11.417        9.501       21.075       27.748       13.590      444.147      769.936      184.692        0.085        0.070       14.709        9.288        0.399      341.057       15.506      862.878
06/08/2014  05:22:00        3.245       -9.111       -3.197       20.142       19.549       18.187      405.702      382.171      330.766        0.061        0.056        9.672       12.148        1.577      341.013       15.431      862.888
06/08/2014  05:23:00       20.163      -15.092       -3.371       18.172       16.230       18.567      330.207      263.397      344.742        0.079        0.047       25.186       11.252        0.200      340.895       15.231      862.904
06/08/2014  05:24:00       16.975      -28.436       -3.183       22.117       22.664       16.161      489.140      513.650      261.174        0.119        0.063       33.117        4.739        0.020      340.799       15.069      862.913
06/08/2014  05:25:00      -21.303      -27.007       -8.661       38.991       16.920       15.166     1520.315      286.299      230.014        0.165        0.102       34.398       15.882        0.213      341.106       15.589      862.926
06/08/2014  05:26:00      -84.175      -49.411       -1.390       25.488       31.362       16.835      649.639      983.561      283.422        0.572        0.096       97.606       18.929        0.038      341.163       15.684      862.934
06/08/2014  05:27:00      -81.102      -47.523       -1.858       27.173       27.919       16.645      738.362      779.461      277.071        0.532        0.090       94.000       16.933        0.032      341.158       15.677      862.952
06/08/2014  05:28:00      -56.139      -39.897        3.748       26.218       19.308       12.350      687.386      372.808      152.533        0.298        0.061       68.872        8.576        0.016      341.152       15.666      862.973
06/08/2014  05:29:00     -102.140      -23.486       -5.927       12.994       12.085       12.408      168.832      146.055      153.963        0.574        0.023      104.806        4.534        0.002      341.103       15.584      862.986
06/08/2014  05:30:00      -89.335      -17.757      -18.499       17.948       18.078       10.231      322.134      326.819      104.672        0.470        0.038       91.082        4.802        0.003      341.142       15.649      863.003
06/08/2014  05:31:00      -46.077      -19.563       -1.472       11.570       15.893       14.588      133.871      252.575      212.822        0.155        0.030       50.058        7.976        0.025      341.434       16.145      862.998
06/08/2014  05:32:00       27.894       23.353       -8.765       25.129       25.446       21.575      631.446      647.503      465.459        0.157        0.087       36.379       19.945        0.301      342.108       17.287      863.011
06/08/2014  05:33:00       20.237       36.143       21.063       49.889       39.658       28.857     2488.914     1572.763      832.754        0.353        0.245       41.423       13.789        0.111      341.784       16.737      863.014
06/08/2014  05:34:00      -18.812       24.350        5.038       28.519       30.097       21.171      813.337      905.812      448.207        0.157        0.108       30.771       22.751        0.547      342.008       17.118      863.025
06/08/2014  05:35:00       30.256       38.284        2.904       33.909       24.001       20.181     1149.788      576.032      407.269        0.226        0.107       48.796       15.755        0.104      341.788       16.744      863.026
06/08/2014  05:36:00      -43.344       13.652       -5.694       29.778       18.676       14.593      886.702      348.800      212.954        0.177        0.072       45.443       10.455        0.053      341.471       16.207      863.026
06/08/2014  05:37:00      -79.886      -10.284      -12.639       36.756       18.175       17.797     1350.988      330.349      316.746        0.432        0.100       80.545       20.687        0.066      341.079       15.543      863.033
06/08/2014  05:38:00      -46.701      -40.170      -11.929       32.862       37.849       21.829     1079.918     1432.537      476.487        0.346        0.149       61.601       15.839        0.066      341.766       16.707      863.034
06/08/2014  05:39:00      -71.136       -3.889       -5.503       43.036       14.255       18.363     1852.056      203.207      337.198        0.375        0.120       71.242       24.476        0.118      341.053       15.498      863.045
06/08/2014  05:40:00       23.227       -9.702       19.393       30.863       20.049       19.111      952.501      401.944      365.248        0.136        0.086       25.171        4.287        0.029      340.964       15.349      863.054
06/08/2014  05:41:00      -31.536       -7.407       13.614       23.663       21.875       18.519      559.917      478.497      342.955        0.131        0.069       32.394       12.630        0.152      340.828       15.117      863.056
06/08/2014  05:42:00       -6.956      -42.914        4.554       40.340       23.603       22.410     1627.310      557.094      502.186        0.230        0.134       43.474       20.754        0.228      341.013       15.431      863.056
06/08/2014  05:43:00      -33.556      -24.168        1.231       23.666       20.311       14.756      560.067      412.529      217.726        0.145        0.060       41.353       14.573        0.124      341.042       15.481      863.076
06/08/2014  05:44:00      -26.025      -44.149        4.864       24.029       28.286       13.247      577.408      800.086      175.473        0.210        0.078       51.249       15.367        0.090      341.078       15.541      863.098
06/08/2014  05:45:00      -81.415      -66.826       -5.619       34.492       36.650       20.667     1189.677     1343.254      427.116        0.704        0.148      105.328       14.563        0.019      340.967       15.352      863.098
06/08/2014  05:46:00      -42.504      -38.683       -1.895       35.410       30.069       16.082     1253.889      904.118      258.627        0.286        0.121       57.471       15.411        0.072      340.935       15.300      863.113
06/08/2014  05:47:00      -20.311     -109.323       -9.223       32.052       66.967       25.436     1027.362     4484.549      647.011        0.930        0.308      111.194       22.545        0.041      341.012       15.428      863.106
06/08/2014  05:48:00      -55.362       11.191       -4.207       31.936       25.312       21.299     1019.928      640.675      453.655        0.266        0.106       56.482        9.011        0.025      340.900       15.241      863.109
06/08/2014  05:49:00      -24.888      -36.428        5.939       48.835       20.080       15.931     2384.844      403.226      253.794        0.251        0.152       44.118       11.968        0.074      340.848       15.153      863.125
06/08/2014  05:50:00      -48.247      -25.491        8.500       25.440       27.389       17.422      647.200      750.173      303.513        0.238        0.085       54.567       11.473        0.044      340.824       15.112      863.131
06/08/2014  05:51:00      -70.080      -17.800        4.615       30.647       20.418       20.643      939.219      416.906      426.139        0.352        0.089       72.305       11.246        0.024      340.743       14.975      863.138
06/08/2014  05:52:00       -2.443      -16.501        6.168       28.112       32.995       20.672      790.272     1088.666      427.336        0.131        0.115       16.680       21.414        1.648      340.828       15.119      863.143
06/08/2014  05:53:00      -32.299       -7.892        2.425       20.650       14.357       11.994      426.423      206.131      143.860        0.094        0.039       33.249       13.130        0.156      340.821       15.107      863.146
06/08/2014  05:54:00      -74.643      -37.845       -4.735       20.107       29.236       14.245      404.287      854.737      202.930        0.424        0.073       83.689        3.713        0.002      340.890       15.223      863.161
06/08/2014  05:55:00      -86.336      -40.097        4.329       33.434       25.177       17.979     1117.834      633.885      323.260        0.558        0.104       95.193       12.765        0.018      340.762       15.008      863.171
06/08/2014  05:56:00      -51.688      -41.730        4.097       40.910       30.494       17.525     1673.642      929.858      307.122        0.367        0.146       66.431       20.338        0.094      340.732       14.955      863.174
06/08/2014  05:57:00      -75.421      -72.177       -0.191       40.957       46.319       27.587     1677.436     2145.442      761.061        0.774        0.229      104.393       22.993        0.049      340.970       15.358      863.184
06/08/2014  05:58:00      -94.588      -58.264       -6.861       30.846       32.950       20.995      951.457     1085.701      440.778        0.743        0.124      111.092       15.796        0.020      340.920       15.273      863.187
06/08/2014  05:59:00     -101.174      -52.336        3.342       37.370       41.237       26.370     1396.482     1700.489      695.369        0.839        0.190      113.909       15.998        0.020      340.666       14.845      863.194
06/08/2014  06:00:00     -114.780      -61.715      -12.602       30.350       42.060       21.460      921.141     1769.020      460.521        1.015        0.158      130.320       16.464        0.016      340.716       14.929      863.187
06/08/2014  06:01:00     -129.990      -60.671      -16.722       19.278       19.558       13.648      371.651      382.535      186.262        1.090        0.047      143.452        9.259        0.004      340.684       14.875      863.188
06/08/2014  06:02:00      -98.882      -62.200       -6.270       35.772       25.159       17.893     1279.669      632.999      320.160        0.796        0.112      116.818       16.215        0.019      340.708       14.915      863.192
06/08/2014  06:03:00     -111.808      -72.829       -9.069       26.739       20.891       17.127      714.948      436.423      293.329        0.967        0.072      133.436       16.160        0.015      340.694       14.892      863.196
06/08/2014  06:04:00     -127.164      -78.259      -11.836       13.493       17.326       10.821      182.070      300.194      117.086        1.152        0.030      149.316        4.327        0.001      340.707       14.913      863.208
06/08/2014  06:05:00     -149.164      -73.193      -13.555       20.953       25.617       16.886      439.031      656.228      285.150        1.459        0.069      166.154       14.066        0.007      340.702       14.904      863.217
06/08/2014  06:06:00      -86.793      -42.123       -3.285       39.586       28.490       15.605     1567.073      811.702      243.525        0.597        0.131       96.475       14.718        0.023      340.683       14.875      863.228
06/08/2014  06:07:00      -74.033      -38.204       -6.759       36.458       28.410       15.266     1329.221      807.124      233.040        0.468        0.118       83.309       10.978        0.017      340.761       15.005      863.242
06/08/2014  06:08:00      -85.854      -16.670       -6.368       24.452       27.420       14.448      597.896      751.866      208.752        0.462        0.078       87.457       10.160        0.013      340.691       14.888      863.265
06/08/2014  06:09:00      -66.753      -39.023       -5.971       38.429       22.980       21.511     1476.773      528.067      462.726        0.424        0.123       77.322       24.497        0.100      340.781       15.039      863.262
06/08/2014  06:10:00     -134.654      -44.046      -14.347       17.427       27.324       13.593      303.706      746.624      184.773        1.076        0.062      141.675        3.671        0.001      340.764       15.010      863.273
06/08/2014  06:11:00     -108.304      -42.134      -11.564       15.938       15.198       11.962      254.027      230.980      143.084        0.713        0.031      116.211        3.914        0.001      340.733       14.959      863.276
06/08/2014  06:12:00      -84.229      -52.372       -8.202       26.403       15.510       13.785      697.137      240.566      190.032        0.552        0.056       99.183        9.394        0.009      340.774       15.027      863.280
06/08/2014  06:13:00     -108.650      -53.283      -10.688       33.721       18.111       13.688     1137.121      328.011      187.351        0.821        0.083      121.012        5.279        0.002      340.769       15.018      863.288
06/08/2014  06:14:00      -87.279      -57.765       -4.380       44.825       29.212       21.044     2009.276      853.320      442.857        0.714        0.165      104.663       23.127        0.049      340.776       15.030      863.294
06/08/2014  06:15:00      -53.215      -63.113        9.852       55.324       61.185       23.572     3060.711     3743.662      555.648        0.713        0.368       82.553       26.507        0.103      340.808       15.085      863.299
06/08/2014  06:16:00      -92.474      -62.616       -4.604       60.552       41.926       37.692     3666.508     1757.816     1420.663        0.967        0.342      111.679       44.134        0.156      340.729       14.951      863.308
06/08/2014  06:17:00     -104.198      -82.542       -3.580       36.090       43.539       20.734     1302.453     1895.667      429.910        1.065        0.181      132.930       21.309        0.026      340.658       14.830      863.317
06/08/2014  06:18:00      -84.357      -80.452       -5.712       29.464       30.847       20.559      868.138      951.521      422.692        0.793        0.112      116.570       20.120        0.030      340.703       14.906      863.325
06/08/2014  06:19:00      -83.462      -58.306        1.522       28.321       29.610       19.893      802.082      876.747      395.719        0.622        0.104      101.812       15.821        0.024      340.728       14.948      863.336
06/08/2014  06:20:00      -97.936      -56.498        0.621       47.954       39.427       22.718     2299.630     1554.480      516.110        0.858        0.219      113.064       13.399        0.014      340.744       14.975      863.344
06/08/2014  06:21:00     -113.358      -58.399       -5.883       23.773       18.653       17.657      565.155      347.927      311.778        0.876        0.061      127.517        9.952        0.006      340.792       15.058      863.345
06/08/2014  06:22:00      -82.312      -67.599        2.180       35.516       28.210       18.859     1261.382      795.813      355.661        0.688        0.121      106.512       20.297        0.036      340.830       15.122      863.355
06/08/2014  06:23:00      -65.193      -66.513        9.203       38.628       30.267       23.894     1492.131      916.063      570.938        0.587        0.149       93.135       23.056        0.061      340.958       15.339      863.367
06/08/2014  06:24:00      -77.399      -40.464        4.428       51.591       36.759       20.798     2661.667     1351.192      432.551        0.605        0.222       87.338       26.973        0.095      341.073       15.533      863.382
06/08/2014  06:25:00      -61.344      -13.904        2.242       38.283       28.492       19.202     1465.580      811.816      368.705        0.330        0.132       62.900       15.155        0.058      340.998       15.405      863.408
06/08/2014  06:26:00      -68.613      -24.696       -0.105       29.140       18.923       16.961      849.121      358.073      287.685        0.341        0.075       72.922       18.166        0.062      340.950       15.324      863.419
06/08/2014  06:27:00      -92.231      -65.243      -14.530       14.906       17.774       11.683      222.198      315.922      136.486        0.682        0.034      112.974        7.332        0.004      341.077       15.541      863.426
06/08/2014  06:28:00      -18.250      -29.430       18.660       42.504       25.780       22.886     1806.625      664.601      523.782        0.227        0.150       34.629       24.218        0.489      341.307       15.928      863.438
06/08/2014  06:29:00      -13.190      -10.124       21.152       37.241       33.754       17.514     1386.863     1139.344      306.749        0.178        0.142       16.628       20.324        1.494      341.386       16.064      863.459
06/08/2014  06:30:00       10.942      -45.311        3.232       18.540       28.145       13.749      343.720      792.136      189.035        0.175        0.066       46.613       14.150        0.092      341.579       16.391      863.470
06/08/2014  06:31:00      -76.402      -11.701       -6.531       29.070       17.729       10.964      845.045      314.326      120.205        0.365        0.064       77.293        3.918        0.003      341.261       15.851      863.475
06/08/2014  06:32:00      -75.606      -11.647       -4.092       27.206       23.373       14.205      740.146      546.304      201.768        0.368        0.074       76.497       11.617        0.023      341.249       15.830      863.492
06/08/2014  06:33:00      -50.121      -66.528        7.529       39.992       28.422       23.121     1599.357      807.819      534.570        0.497        0.147       83.295       21.221        0.065      341.519       16.288      863.501
06/08/2014  06:34:00      -14.821      -24.061       14.660       18.684       23.063       23.988      349.098      531.883      575.409        0.123        0.073       28.259        6.667        0.056      341.545       16.331      863.512
06/08/2014  06:35:00        7.884      -10.739       -1.342       22.602       10.994       12.464      510.854      120.870      155.357        0.048        0.039       13.323        7.838        0.346      341.546       16.335      863.537
06/08/2014  06:36:00       36.798      -21.974       10.274       26.732       21.142       16.247      714.578      446.965      263.955        0.168        0.071       42.860       10.122        0.056      341.244       15.821      863.540
06/08/2014  06:37:00      -10.222      -81.607        0.365       27.756       53.123       17.894      770.402     2822.040      320.178        0.534        0.196       82.244       11.864        0.021      341.617       16.453      863.536
06/08/2014  06:38:00       -2.422      -55.915       -3.795       26.112       34.823       28.367      681.856     1212.658      804.681        0.292        0.135       55.968       24.625        0.194      341.693       16.583      863.554
06/08/2014  06:39:00      -47.477      -23.288        0.366       38.159       22.874       14.440     1456.125      523.204      208.511        0.249        0.109       52.881       17.621        0.111      341.615       16.450      863.556
06/08/2014  06:40:00      -48.898      -40.388        7.233       40.053       29.860       20.177     1604.278      891.591      407.121        0.349        0.145       63.421       19.806        0.098      341.619       16.456      863.563
06/08/2014  06:41:00      -79.611      -85.590       -1.471       35.480       26.868       19.567     1258.815      721.913      382.878        0.801        0.118      116.891       14.481        0.015      341.529       16.305      863.550
06/08/2014  06:42:00      -89.552      -65.546       -5.942       32.291       34.570       21.444     1042.690     1195.082      459.858        0.752        0.135      110.977       22.085        0.040      341.474       16.212      863.544
06/08/2014  06:43:00      -52.517      -32.060        6.405       33.745       24.971       17.142     1138.744      623.547      293.856        0.294        0.103       61.530        6.915        0.013      341.524       16.297      863.540
06/08/2014  06:44:00      -12.908      -23.491        6.854       25.740       21.018       13.714      662.526      441.750      188.087        0.103        0.065       26.804        9.807        0.134      341.679       16.560      863.545
06/08/2014  06:45:00       18.127      -51.759       -5.447       20.782       17.772       17.197      431.909      315.852      295.725        0.204        0.052       54.842        9.032        0.027      341.452       16.175      863.542
06/08/2014  06:46:00      -18.011      -52.182       10.099       17.737       26.534       17.650      314.618      704.030      311.508        0.224        0.067       55.203        9.433        0.029      341.632       16.480      863.548
06/08/2014  06:47:00      -41.507      -21.190        3.176       35.504       17.093       17.198     1260.542      292.179      295.785        0.201        0.092       46.603       21.502        0.213      341.862       16.870      863.539
06/08/2014  06:48:00      -35.587      -31.278        2.289       36.740       20.207       16.286     1349.813      408.338      265.247        0.214        0.101       47.379       17.906        0.143      341.793       16.751      863.544
06/08/2014  06:49:00      -24.194      -31.538        3.546       19.445       15.100       13.895      378.116      228.003      193.083        0.120        0.040       39.749        7.302        0.034      341.831       16.816      863.552
06/08/2014  06:50:00       -1.407      -15.186       17.263       15.581       18.133       12.504      242.763      328.820      156.357        0.063        0.036       15.251        6.254        0.168      341.964       17.042      863.568
06/08/2014  06:51:00       -4.181      -37.501        6.815       30.845       19.282       20.121      951.387      371.784      404.849        0.160        0.086       37.734       18.478        0.240      341.703       16.599      863.583
06/08/2014  06:52:00       39.910      -27.811       -1.189       24.937       30.815       22.625      621.870      949.593      511.899        0.223        0.104       48.644       20.331        0.175      341.535       16.316      863.588
06/08/2014  06:53:00       43.004       -7.365       23.126       31.896       22.193       24.799     1017.346      492.509      614.986        0.228        0.106       43.630       18.493        0.180      341.562       16.360      863.602
06/08/2014  06:54:00      -20.333      -15.825       14.991       14.197       23.945       13.289      201.557      573.369      176.594        0.092        0.048       25.766       10.609        0.170      341.731       16.647      863.594
06/08/2014  06:55:00      -29.940      -19.321        0.072       32.832       21.586       21.550     1077.913      465.949      464.414        0.164        0.100       35.633       18.881        0.281      341.878       16.897      863.589
06/08/2014  06:56:00      -19.664       -2.358       -6.353       30.507       22.563       22.937      930.707      509.111      526.102        0.120        0.098       19.805        8.894        0.202      341.895       16.926      863.583
06/08/2014  06:57:00      -55.255      -62.785       -4.544       23.328       45.244       22.691      544.208     2047.032      514.870        0.506        0.155       83.636       13.960        0.028      341.652       16.515      863.589
06/08/2014  06:58:00      -54.996      -58.897        3.153       44.328       27.565       22.949     1965.016      759.829      526.656        0.488        0.163       80.582       20.799        0.067      341.716       16.623      863.592
06/08/2014  06:59:00      -20.595      -30.985       12.409       32.469       30.686       21.986     1054.256      941.627      483.376        0.201        0.124       37.205       17.817        0.229      341.989       17.084      863.598
06/08/2014  07:00:00      -41.224      -57.128        2.824       27.370       30.425       16.018      749.098      925.697      256.568        0.345        0.097       70.448       16.533        0.055      341.825       16.809      863.596
06/08/2014  07:01:00      -57.485      -70.485       -1.641       28.710       26.151       16.910      824.268      683.867      285.950        0.503        0.090       90.954       20.410        0.050      341.752       16.684      863.604
06/08/2014  07:02:00      -51.249      -59.954       -0.093       20.461       20.116       17.638      418.665      404.654      311.100        0.368        0.057       78.873       13.231        0.028      341.832       16.820      863.605
06/08/2014  07:03:00      -32.090      -67.017       -8.091       17.511       13.097       11.205      306.628      171.523      125.562        0.309        0.030       74.304        7.355        0.010      341.917       16.963      863.614
06/08/2014  07:04:00      -19.963      -61.636       -4.583        8.161        8.778        7.323       66.605       77.047       53.633        0.221        0.010       64.788        5.063        0.006      341.938       17.002      863.617
06/08/2014  07:05:00      -20.602      -40.314        7.871       20.076       26.733       13.845      403.034      714.645      191.694        0.171        0.065       45.274       16.209        0.128      342.155       17.367      863.615
06/08/2014  07:06:00      -32.963      -39.110       -2.941       13.240       14.949        8.357      175.306      223.469       69.838        0.155        0.023       51.148        7.644        0.022      342.048       17.186      863.620
06/08/2014  07:07:00      -29.120      -21.414        1.047       18.238       10.826       13.364      332.641      117.205      178.584        0.097        0.031       36.146        9.942        0.076      342.253       17.532      863.612
06/08/2014  07:08:00       22.527       -9.944       22.925       30.544       17.932       25.162      932.931      321.550      633.140        0.151        0.094       24.624       18.484        0.563      342.236       17.505      863.623
06/08/2014  07:09:00       35.603      -24.965       11.436       26.730       24.706       31.737      714.506      610.381     1007.248        0.218        0.117       43.484       20.534        0.223      341.823       16.802      863.629
06/08/2014  07:10:00       15.374      -22.645        9.284       20.750       23.339       24.129      430.546      544.691      582.211        0.120        0.078       27.371        9.780        0.128      341.949       17.018      863.637
06/08/2014  07:11:00       13.981      -14.321       13.144       14.744       14.196       16.981      217.396      201.515      288.352        0.064        0.035       20.013       12.091        0.365      342.150       17.360      863.654
06/08/2014  07:12:00       -2.943      -13.723       -2.134       23.475       20.446       18.718      551.086      418.032      350.382        0.076        0.066       14.035       14.444        1.059      342.153       17.363      863.662
06/08/2014  07:13:00       11.883      -24.940       18.527       22.656       23.084       19.949      513.304      532.894      397.950        0.128        0.072       27.627       20.760        0.565      342.264       17.551      863.666
06/08/2014  07:14:00       -4.815      -49.284      -11.332       16.298       12.647       12.434      265.622      159.945      154.614        0.158        0.029       49.518        8.596        0.030      342.243       17.515      863.660
06/08/2014  07:15:00      -16.652      -41.793       -4.745       19.079       17.566       21.332      364.019      308.576      455.053        0.159        0.056       44.988        7.922        0.031      342.150       17.358      863.667
06/08/2014  07:16:00       19.377      -17.335        3.169       21.083       25.633       25.902      444.482      657.049      670.922        0.123        0.089       25.999        9.477        0.133      341.907       16.946      863.676
06/08/2014  07:17:00       47.064        1.907       34.165       33.898       20.492       24.772     1149.047      419.938      613.649        0.278        0.109       47.103       15.218        0.104      342.113       17.296      863.681
06/08/2014  07:18:00       37.838       -7.385       26.330       32.789       30.711       23.207     1075.120      943.157      538.587        0.237        0.128       38.552       19.274        0.250      342.167       17.387      863.694
06/08/2014  07:19:00       -7.925      -36.398       10.564       17.472       27.547       19.545      305.269      758.856      382.023        0.147        0.072       37.251        8.553        0.053      342.406       17.795      863.693
06/08/2014  07:20:00       16.718        5.135       22.328       20.753       26.502       25.460      430.678      702.340      648.209        0.129        0.089       17.489       11.187        0.409      342.614       18.148      863.693
06/08/2014  07:21:00       26.428       -2.648       18.836       30.353       13.758       19.935      921.285      189.289      397.400        0.128        0.075       26.561        7.602        0.082      342.479       17.919      863.697
06/08/2014  07:22:00       21.162      -16.516       12.015       25.195       18.595       18.498      634.765      345.758      342.184        0.109        0.066       26.844        8.373        0.097      342.402       17.788      863.694
06/08/2014  07:23:00       33.821       10.071       32.779       29.152       25.415       23.384      849.836      645.908      546.797        0.218        0.102       35.288       20.073        0.324      342.334       17.672      863.684
06/08/2014  07:24:00       49.627       -6.634       14.434       38.004       29.907       35.567     1444.280      894.454     1264.982        0.316        0.180       50.068       25.314        0.256      342.158       17.372      863.682
06/08/2014  07:25:00       59.445      -14.857       11.865       43.711       35.660       31.443     1910.640     1271.661      988.661        0.403        0.209       61.274       27.213        0.197      342.428       17.829      863.672
06/08/2014  07:26:00       45.024      -14.734       13.160       41.320       26.887       31.158     1707.325      722.935      970.814        0.291        0.170       47.374       21.230        0.201      342.404       17.791      863.672
06/08/2014  07:27:00        3.410       18.572       28.195       29.717       25.634       21.280      883.098      657.100      452.850        0.157        0.100       18.882       16.563        0.769      342.692       18.279      863.666
06/08/2014  07:28:00       26.738       -0.259       24.547       29.664       31.808       24.426      879.956     1011.733      596.651        0.190        0.124       26.740       21.472        0.645      342.752       18.382      863.666
06/08/2014  07:29:00       43.122        1.822       22.818       35.683       33.815       34.384     1273.268     1143.467     1182.234        0.299        0.180       43.160       25.381        0.346      342.539       18.021      863.674
06/08/2014  07:30:00       18.604        3.546       24.139       25.121       30.173       23.173      631.050      910.432      536.995        0.151        0.104       18.939       19.891        1.103      342.846       18.541      863.678
06/08/2014  07:31:00       21.726        4.439       22.209       29.136       22.754       23.552      848.890      517.767      554.720        0.145        0.096       22.175       21.464        0.937      342.860       18.566      863.678
06/08/2014  07:32:00       31.596        9.296       29.821       40.106       32.031       31.273     1608.464     1025.972      978.007        0.279        0.181       32.935       27.691        0.707      342.733       18.350      863.684
06/08/2014  07:33:00       32.508        9.593       35.622       45.027       31.665       23.762     2027.439     1002.675      564.619        0.301        0.180       33.894       21.459        0.401      342.641       18.193      863.683
06/08/2014  07:34:00       31.655       15.641       40.298       42.320       28.540       24.592     1790.946      814.527      604.784        0.304        0.161       35.309       20.942        0.352      342.907       18.645      863.683
06/08/2014  07:35:00       20.922      -10.058       25.554       37.464       38.672       30.868     1403.561     1495.520      952.835        0.252        0.193       23.214       22.902        0.973      342.734       18.352      863.683
06/08/2014  07:36:00       21.416      -17.616       31.461       30.007       35.922       31.828      900.440     1290.376     1013.008        0.248        0.160       27.730       20.172        0.529      343.048       18.886      863.689
06/08/2014  07:37:00       29.180       16.098       39.368       31.892       31.727       20.466     1017.095     1006.600      418.842        0.255        0.122       33.326       17.184        0.266      342.985       18.778      863.697
06/08/2014  07:38:00       -2.256      -14.373       28.093       27.968       34.285       25.135      782.202     1175.462      631.745        0.179        0.129       14.549       18.063        1.541      343.243       19.218      863.702
06/08/2014  07:39:00       29.551      -11.000       20.667       39.041       30.574       23.968     1524.199      934.779      574.444        0.223        0.152       31.532       22.238        0.497      343.124       19.015      863.717
06/08/2014  07:40:00       25.441      -25.028        1.892       35.613       35.137       33.089     1268.315     1234.582     1094.894        0.244        0.180       35.688       18.410        0.266      342.877       18.594      863.719
06/08/2014  07:41:00       23.377      -46.910       22.464       46.038       48.841       38.134     2119.516     2385.472     1454.215        0.460        0.298       52.412       34.418        0.431      343.320       19.347      863.721
06/08/2014  07:42:00       12.915      -34.594       19.154       34.599       40.586       32.879     1197.056     1647.217     1081.018        0.283        0.196       36.926       28.080        0.578      343.427       19.532      863.735
06/08/2014  07:43:00       19.751        0.502       20.510       28.615       31.461       28.919      818.791      989.772      836.281        0.173        0.132       19.758       19.118        0.936      343.215       19.170      863.738
06/08/2014  07:44:00       36.366       17.284       22.213       31.813       29.211       27.064     1012.074      853.290      732.442        0.236        0.130       40.264       18.654        0.215      343.222       19.181      863.739
06/08/2014  07:45:00       39.614        0.090       26.238       45.615       44.570       28.294     2080.714     1986.466      800.538        0.356        0.243       39.615       31.683        0.640      343.441       19.556      863.734
06/08/2014  07:46:00       26.262      -11.639       28.715       38.395       32.345       32.877     1474.181     1046.218     1080.900        0.262        0.180       28.725       23.365        0.662      343.216       19.171      863.743
06/08/2014  07:47:00       79.221      -57.857        4.163       41.514       35.031       30.084     1723.417     1227.191      905.048        0.675        0.193       98.099       18.249        0.035      342.554       18.046      863.732
06/08/2014  07:48:00       38.647       16.411       19.636       38.392       33.220       22.910     1473.925     1103.579      524.846        0.262        0.155       41.987       22.676        0.292      343.295       19.306      863.735
06/08/2014  07:49:00       74.473       51.627       14.510       31.512       30.634       25.449      992.984      938.419      647.669        0.550        0.129       90.618        3.479        0.001      343.159       19.076      863.741
06/08/2014  07:50:00       38.628        5.580       35.106       50.768       49.527       27.768     2577.429     2452.887      771.068        0.428        0.290       39.029       20.983        0.289      343.501       19.657      863.739
06/08/2014  07:51:00       22.808        2.503       40.259       43.135       56.268       42.283     1860.594     3166.053     1787.883        0.448        0.341       22.945       48.058        4.387      343.393       19.473      863.747
06/08/2014  07:52:00        2.683      -16.682       14.105       27.029       19.814       15.254      730.573      392.610      232.682        0.092        0.068       16.896       10.591        0.393      343.126       19.020      863.744
06/08/2014  07:53:00       52.862       68.231       34.200       38.893       33.953       33.332     1512.674     1152.812     1110.993        0.620        0.189       86.313       22.396        0.067      343.352       19.404      863.737
06/08/2014  07:54:00       32.842       40.551       53.951       41.993       34.125       27.069     1763.410     1164.541      732.728        0.465        0.183       52.183       20.100        0.148      343.813       20.190      863.741
06/08/2014  07:55:00      111.396       56.887       15.701       42.506       32.796       33.167     1806.743     1075.553     1100.062        0.994        0.199      125.081       26.648        0.045      343.359       19.416      863.736
06/08/2014  07:56:00      104.854       61.538       28.140       43.793       33.055       43.967     1917.846     1092.616     1933.119        1.026        0.247      121.579       28.966        0.057      343.186       19.120      863.747
06/08/2014  07:57:00       61.439       53.942        1.718       41.454       28.339       24.306     1718.403      803.089      590.790        0.490        0.156       81.759       17.589        0.046      343.417       19.515      863.754
06/08/2014  07:58:00       59.067       60.230       14.481       43.252       36.972       34.994     1870.740     1366.902     1224.560        0.589        0.223       84.360       19.717        0.055      343.406       19.495      863.763
06/08/2014  07:59:00       46.098       33.194       35.682       36.617       21.395       23.271     1340.795      457.740      541.537        0.342        0.117       56.806       14.526        0.065      343.459       19.585      863.754
06/08/2014  08:00:00       82.576       62.107       28.502       33.655       33.556       39.599     1132.692     1125.976     1568.087        0.766        0.191      103.325       19.960        0.037      343.311       19.334      863.749
06/08/2014  08:01:00       37.375       25.126       21.563       34.170       39.532       27.347     1167.611     1562.741      747.881        0.299        0.174       45.036       16.107        0.128      343.249       19.228      863.746
06/08/2014  08:02:00       27.905      -28.162       25.594       32.257       35.083       30.348     1040.520     1230.850      921.018        0.271        0.160       39.646       21.810        0.303      343.477       19.617      863.730
06/08/2014  08:03:00       13.987       35.318       48.445       26.522       26.542       20.797      703.421      704.467      432.495        0.281        0.092       37.987       15.495        0.166      343.666       19.939      863.735
06/08/2014  08:04:00       35.949       -0.632       41.004       46.090       50.696       22.912     2124.316     2570.117      524.967        0.410        0.261       35.955       16.311        0.206      343.721       20.033      863.721
06/08/2014  08:05:00      102.853       76.807       28.730       25.938       26.398       28.347      672.761      696.858      803.569        0.974        0.109      128.367       14.173        0.012      343.320       19.349      863.730
06/08/2014  08:06:00       89.777       59.930       31.694       21.244       22.834       26.574      451.291      521.375      706.152        0.717        0.084      107.942       12.939        0.014      343.249       19.226      863.732
06/08/2014  08:07:00       17.716       -2.331       21.358       28.844       42.171       22.788      831.984     1778.400      519.299        0.195        0.156       17.868       16.273        0.829      343.578       19.789      863.732
06/08/2014  08:08:00       34.717      -44.585       15.401       34.427       30.590       27.698     1185.245      935.777      767.189        0.316        0.144       56.508       16.274        0.083      343.144       19.048      863.737
06/08/2014  08:09:00        8.999       -9.596       28.341       20.796       23.371       19.686      432.462      546.209      387.538        0.117        0.068       13.155       15.019        1.303      343.770       20.116      863.731
06/08/2014  08:10:00       34.329      -28.860       21.223       42.654       35.140       36.096     1819.338     1234.846     1302.917        0.341        0.218       44.848       31.725        0.500      343.365       19.428      863.739
06/08/2014  08:11:00       20.312       28.925       61.443       42.594       49.040       24.847     1814.243     2404.919      617.371        0.493        0.242       35.344       20.653        0.341      343.581       19.794      863.739
06/08/2014  08:12:00       23.657      -22.098       15.937       29.982       35.835       33.203      898.906     1284.116     1102.432        0.229        0.164       32.372       16.361        0.255      343.722       20.033      863.749
06/08/2014  08:13:00       33.414      -43.141        7.659       35.803       44.873       28.350     1281.845     2013.621      803.716        0.357        0.205       54.568       13.938        0.065      343.450       19.573      863.752
06/08/2014  08:14:00       41.844       -3.045        6.690       30.739       26.929       25.192      944.883      725.173      634.641        0.205        0.115       41.955       19.047        0.206      343.498       19.654      863.753
06/08/2014  08:15:00      103.515       77.765       12.239       43.446       45.558       32.753     1887.542     2075.522     1072.760        1.097        0.252      129.471       25.561        0.039      343.623       19.865      863.754
06/08/2014  08:16:00       56.857       46.240       21.728       50.288       43.419       33.397     2528.838     1885.191     1115.378        0.569        0.276       73.286       25.033        0.117      344.220       20.883      863.755
06/08/2014  08:17:00       30.016       14.615       35.925       50.734       42.044       28.008     2573.988     1767.702      784.457        0.376        0.256       33.385       28.581        0.733      344.465       21.304      863.756
06/08/2014  08:18:00       32.206       27.457       59.796       31.320       32.516       24.590      980.946     1057.260      604.692        0.400        0.132       42.322       12.859        0.092      343.971       20.458      863.769
06/08/2014  08:19:00      100.030       87.078       52.233       59.840       48.317       49.824     3580.816     2334.566     2482.459        1.436        0.420      132.623       20.006        0.023      343.807       20.179      863.775
06/08/2014  08:20:00      101.616       75.176       58.863       58.796       48.642       45.153     3457.014     2366.059     2038.785        1.365        0.393      126.401       27.731        0.048      343.984       20.482      863.786
06/08/2014  08:21:00      109.239       82.000       34.597       56.790       53.622       44.835     3225.080     2875.267     2010.192        1.398        0.406      136.591       18.669        0.019      343.791       20.153      863.800
06/08/2014  08:22:00       40.488      -18.830       25.887       53.635       53.106       38.432     2876.754     2820.236     1477.020        0.492        0.359       44.653       21.192        0.225      343.917       20.367      863.810
06/08/2014  08:23:00       19.130       -6.101       30.059       27.958       33.095       28.621      781.626     1095.292      819.189        0.200        0.135       20.079       22.887        1.299      344.044       20.586      863.810
06/08/2014  08:24:00       -0.595      -36.213       30.696       37.043       65.865       33.482     1372.209     4338.180     1121.036        0.454        0.342       36.218       13.704        0.143      344.200       20.850      863.806
06/08/2014  08:25:00        8.233      -25.359       29.359       30.061       41.742       46.336      903.643     1742.408     2146.991        0.318        0.240       26.662       18.299        0.471      344.326       21.068      863.818
06/08/2014  08:26:00       81.486       74.614       33.121       88.217       58.408       44.938     7782.252     3411.503     2019.383        1.326        0.661      110.487       29.135        0.070      344.022       20.546      863.822
06/08/2014  08:27:00        6.914       10.619       38.579       31.296       34.669       26.538      979.445     1201.959      704.268        0.227        0.144       12.672       23.019        3.300      344.407       21.204      863.839
06/08/2014  08:28:00       93.218       69.733       22.429       43.138       34.125       35.521     1860.887     1164.549     1261.723        0.917        0.214      116.415       31.819        0.075      343.883       20.309      863.839
06/08/2014  08:29:00       91.123       57.846        8.821       41.850       35.387       35.771     1751.428     1252.231     1279.586        0.800        0.214      107.934        5.800        0.003      343.953       20.429      863.839
06/08/2014  08:30:00       62.175       45.138        3.825       50.486       38.852       31.188     2548.798     1509.495      972.662        0.547        0.252       76.832       20.157        0.069      344.340       21.090      863.837
06/08/2014  08:31:00      109.434       57.312       12.359       48.083       35.783       34.203     2311.957     1280.388     1169.822        1.009        0.238      123.534       25.602        0.043      344.142       20.750      863.837
06/08/2014  08:32:00       60.192       24.742       18.516       53.440       33.091       30.893     2855.804     1095.015      954.401        0.474        0.245       65.079       25.957        0.159      344.415       21.217      863.835
06/08/2014  08:33:00       37.940       26.578       36.670       55.397       39.149       27.596     3068.881     1532.628      761.538        0.443        0.268       46.323       10.414        0.051      344.660       21.636      863.837
06/08/2014  08:34:00       49.733       43.719       42.028       47.296       40.006       27.225     2236.917     1600.500      741.223        0.536        0.229       66.217       23.796        0.129      344.113       20.703      863.850
06/08/2014  08:35:00       65.283       65.831       37.696       46.568       38.800       37.802     2168.579     1505.421     1428.964        0.756        0.255       92.712       24.363        0.069      343.996       20.502      863.853
06/08/2014  08:36:00       23.274        8.707       41.356       34.316       57.917       33.423     1177.599     3354.431     1117.110        0.399        0.282       24.849       30.337        1.491      344.339       21.087      863.858
06/08/2014  08:37:00       67.961        1.752       78.058       67.234       64.241       56.588     4520.438     4126.882     3202.168        1.128        0.592       67.984       41.377        0.370      343.862       20.273      863.849
06/08/2014  08:38:00       47.027       20.520       60.593       50.397       50.658       36.335     2539.849     2566.185     1320.223        0.636        0.321       51.309       28.203        0.302      343.942       20.411      863.870
06/08/2014  08:39:00       89.400      -38.711       14.053       51.032       49.343       40.539     2604.264     2434.731     1643.379        0.818        0.334       97.421       35.271        0.131      343.583       19.798      863.859
06/08/2014  08:40:00      110.600       51.573       26.146       68.885       54.994       40.412     4745.189     3024.358     1633.122        1.249        0.470      122.034       22.484        0.034      344.047       20.587      863.867
06/08/2014  08:41:00      122.816       76.688       31.225       69.252       47.393       41.934     4795.851     2246.127     1758.433        1.537        0.440      144.793       30.242        0.044      344.212       20.871      863.859
06/08/2014  08:42:00       56.682       52.111       26.652       45.833       69.179       55.226     2100.630     4785.693     3049.884        0.829        0.497       76.996       47.872        0.387      344.150       20.765      863.872
06/08/2014  08:43:00       79.994       26.873       18.953       52.343       40.226       32.131     2739.812     1618.152     1032.407        0.643        0.270       84.387       18.800        0.050      344.355       21.114      863.867
06/08/2014  08:44:00      146.300       86.201       14.491       54.668       41.027       32.324     2988.575     1683.192     1044.836        1.738        0.286      169.807       20.150        0.014      344.181       20.818      863.872
06/08/2014  08:45:00       89.052       33.423        7.269       58.288       48.344       34.362     3397.440     2337.179     1180.777        0.801        0.346       95.117       20.782        0.048      344.437       21.255      863.870
06/08/2014  08:46:00      126.429       69.066       17.726       52.907       45.405       33.439     2799.098     2061.631     1118.182        1.352        0.299      144.064       23.686        0.027      344.496       21.356      863.872
06/08/2014  08:47:00      135.387       97.485        7.428       31.690       40.133       29.700     1004.233     1610.696      882.115        1.569        0.175      166.832       17.902        0.012      344.278       20.984      863.873
06/08/2014  08:48:00       40.391       54.031       39.568       61.121       68.209       45.109     3735.730     4652.484     2034.836        0.827        0.521       67.459       32.985        0.239      344.759       21.805      863.879
06/08/2014  08:49:00       15.834       17.998       46.831       32.020       61.810       29.532     1025.281     3820.470      872.122        0.424        0.286       23.972       30.426        1.611      344.471       21.315      863.871
06/08/2014  08:50:00       41.063      -45.959       15.577       44.856       43.317       37.372     2012.102     1876.402     1396.678        0.466        0.264       61.631       26.642        0.187      344.550       21.449      863.873
06/08/2014  08:51:00       61.824     -108.429       -9.330       46.185       58.145       34.185     2133.027     3380.854     1168.624        1.117        0.334      124.816       21.258        0.029      344.428       21.239      863.867
06/08/2014  08:52:00       27.295      -13.474       28.828       38.642       38.977       33.126     1493.214     1519.221     1097.309        0.293        0.205       30.439       23.762        0.609      344.718       21.737      863.870
06/08/2014  08:53:00      100.708       64.983       39.143       60.231       66.768       33.523     3627.724     4457.905     1123.798        1.255        0.460      119.854       23.615        0.039      344.232       20.904      863.865
06/08/2014  08:54:00       57.678       39.982       33.018       43.224       29.230       32.033     1868.283      854.368     1026.126        0.488        0.187       70.181       18.500        0.069      344.538       21.427      863.867
06/08/2014  08:55:00       15.145       25.723       34.462       34.337       54.446       44.950     1179.024     2964.360     2020.544        0.412        0.308       29.850       28.894        0.937      344.768       21.821      863.856
06/08/2014  08:56:00      117.989       86.298       20.361       45.588       42.065       42.304     2078.311     1769.454     1789.660        1.371        0.282      146.181       19.067        0.017      344.642       21.605      863.857
06/08/2014  08:57:00       66.692       45.309       23.931       39.094       36.869       35.705     1528.378     1359.309     1274.818        0.562        0.208       80.627       23.003        0.081      344.233       20.907      863.864
06/08/2014  08:58:00      117.919       60.674       13.141       69.858       44.200       39.217     4880.192     1953.649     1537.968        1.306        0.419      132.613       29.158        0.048      344.415       21.218      863.857
06/08/2014  08:59:00       87.447       63.008        8.617       38.106       28.600       34.523     1452.066      817.980     1191.820        0.758        0.173      107.782       18.713        0.030      344.537       21.428      863.849
06/08/2014  09:00:00       38.888       46.616       31.334       38.161       42.774       32.428     1456.266     1829.648     1051.607        0.450        0.217       60.707       30.397        0.251      344.650       21.619      863.845
06/08/2014  09:01:00       70.333       52.832        5.476       47.235       36.810       32.779     2231.153     1354.969     1074.446        0.621        0.233       87.966       27.016        0.094      344.920       22.082      863.844
06/08/2014  09:02:00       33.868       86.164       -8.972       41.126       59.907       28.094     1691.384     3588.820      789.301        0.736        0.303       92.581       24.760        0.072      344.662       21.641      863.843
06/08/2014  09:03:00       84.290       46.881       10.679       52.636       35.881       28.602     2770.553     1287.422      818.068        0.715        0.244       96.450       20.330        0.044      344.698       21.702      863.838
06/08/2014  09:04:00      107.799       89.814        8.456       66.755       45.588       40.719     4456.220     2078.256     1658.001        1.397        0.410      140.311       21.517        0.024      344.742       21.777      863.830
06/08/2014  09:05:00      108.444       65.414       28.048       52.631       39.073       34.603     2770.053     1526.698     1197.339        1.116        0.275      126.646       23.710        0.035      344.821       21.912      863.825
06/08/2014  09:06:00       40.822        3.587       32.604       49.979       54.081       42.543     2497.888     2924.734     1809.888        0.499        0.362       40.980       26.748        0.426      344.585       21.509      863.819
06/08/2014  09:07:00       30.933       -1.942       37.901       39.248       55.990       28.734     1540.421     3134.832      825.664        0.395        0.275       30.993       14.521        0.220      344.646       21.613      863.819
06/08/2014  09:08:00      136.018      113.255       27.393       70.516       38.635       53.928     4972.543     1492.692     2908.190        2.072        0.469      176.996       46.083        0.068      344.770       21.823      863.808
06/08/2014  09:09:00      122.149       76.217       39.129       62.667       52.528       45.571     3927.112     2759.139     2076.744        1.551        0.438      143.977       38.211        0.070      344.781       21.842      863.812
06/08/2014  09:10:00      163.587       66.742       18.591       73.628       74.008       53.205     5421.059     5477.216     2830.790        2.264        0.686      176.679       34.068        0.037      344.766       21.815      863.809
06/08/2014  09:11:00      115.400       79.744       33.882       56.832       39.050       36.727     3229.905     1524.888     1348.881        1.346        0.305      140.272       26.254        0.035      344.640       21.602      863.816
06/08/2014  09:12:00       98.330       81.690        6.173       64.388       56.023       37.245     4145.780     3138.593     1387.165        1.252        0.434      127.836       16.478        0.017      344.689       21.685      863.815
06/08/2014  09:13:00        1.690        8.695       31.207       32.409       33.353       21.950     1050.341     1112.440      481.812        0.185        0.132        8.857       19.698        4.946      345.493       23.064      863.811
06/08/2014  09:14:00       16.970       48.966       45.955       50.394       42.385       32.641     2539.505     1796.452     1065.451        0.510        0.270       51.824       13.021        0.063      345.152       22.478      863.810
06/08/2014  09:15:00      201.327      107.582       56.394       89.495       59.689       65.427     8009.371     3562.785     4280.729        3.557        0.793      228.268       47.285        0.043      344.882       22.012      863.792
06/08/2014  09:16:00      114.820       93.850       57.057       46.605       42.398       46.053     2172.000     1797.562     2120.900        1.567        0.305      148.295       22.738        0.024      344.827       21.923      863.810
06/08/2014  09:17:00       50.519      -24.104       34.273       33.352       88.058       35.426     1112.382     7754.211     1255.021        0.721        0.506       55.974       24.206        0.187      345.312       22.752      863.797
06/08/2014  09:18:00      111.213       98.116       89.874       79.885       67.924       50.522     6381.548     4613.670     2552.522        2.181        0.677      148.307       35.803        0.058      345.318       22.761      863.790
06/08/2014  09:19:00      141.266       76.548       30.463       42.696       41.162       40.466     1822.910     1694.291     1637.519        1.595        0.258      160.672       21.938        0.019      344.709       21.721      863.806
06/08/2014  09:20:00      -32.953       54.987       25.835       70.571       29.288       35.731     4980.320      857.811     1276.699        0.594        0.356       64.105       16.431        0.066      344.752       21.793      863.792
06/08/2014  09:21:00       50.474       -8.619       49.206       58.315       64.635       37.813     3400.678     4177.627     1429.806        0.702        0.450       51.204       36.062        0.496      345.399       22.902      863.793
06/08/2014  09:22:00       63.884      -61.629       44.617       68.936      108.464       61.695     4752.118    11764.388     3806.322        1.509        1.016       88.765       74.427        0.703      345.315       22.757      863.774
06/08/2014  09:23:00       86.199       55.227       16.961       89.426       48.236       38.886     7997.021     2326.722     1512.117        1.130        0.592      102.373       44.542        0.189      345.396       22.895      863.792
06/08/2014  09:24:00      178.041      117.150       23.448       57.560       43.323       46.016     3313.133     1876.873     2117.485        2.664        0.365      213.126       29.838        0.020      344.869       21.992      863.795
06/08/2014  09:25:00      116.626       59.871        8.106       43.600       42.706       32.622     1900.947     1823.771     1064.175        1.102        0.239      131.096       21.687        0.027      344.884       22.018      863.793
06/08/2014  09:26:00       93.742       99.875        2.641       72.913       62.437       45.117     5316.263     3898.392     2035.551        1.501        0.563      136.977       32.105        0.055      344.981       22.185      863.785
06/08/2014  09:27:00       57.413      126.901        6.505       52.512       63.144       47.581     2757.526     3987.225     2263.976        1.422        0.450      139.284       41.109        0.087      345.069       22.337      863.772
06/08/2014  09:28:00       40.427       56.455       17.606       27.267       36.376       35.862      743.497     1323.230     1286.087        0.424        0.168       69.437       26.324        0.144      345.196       22.554      863.766
06/08/2014  09:29:00       20.918      214.027      -27.344       37.424       59.804       31.178     1400.590     3576.559      972.039        2.647        0.297      215.047       34.483        0.026      344.928       22.091      863.762
06/08/2014  09:30:00        9.407      183.363       -6.954       34.441       58.000       28.955     1186.191     3363.975      838.418        1.957        0.269      183.604       22.984        0.016      345.063       22.325      863.762
06/08/2014  09:31:00      -26.855       87.927       10.202       32.212       55.749       34.190     1037.599     3107.992     1168.955        0.693        0.266       91.937       32.322        0.124      345.635       23.308      863.748
06/08/2014  09:32:00       23.595       92.481       -5.058       47.677       41.328       32.609     2273.140     1708.013     1063.377        0.709        0.252       95.443       23.628        0.061      345.657       23.345      863.741
06/08/2014  09:33:00       83.996       33.823       16.857       51.926       39.951       39.056     2696.287     1596.072     1525.340        0.715        0.291       90.550       22.464        0.062      345.661       23.350      863.730
06/08/2014  09:34:00       11.176       46.065       20.755       38.279       34.618       28.552     1465.319     1198.418      815.201        0.308        0.174       47.402       21.810        0.212      345.914       23.786      863.737
06/08/2014  09:35:00       79.536       64.587       29.610       94.458       65.823       40.224     8922.256     4332.692     1618.010        1.312        0.744      102.457       42.581        0.173      345.882       23.731      863.730
06/08/2014  09:36:00      178.348      136.692       21.907       72.890       50.494       50.637     5312.904     2549.627     2564.101        3.070        0.521      224.706       20.973        0.009      344.996       22.209      863.734
06/08/2014  09:37:00      128.145      103.933       11.958       48.699       32.958       38.549     2371.635     1086.206     1486.006        1.615        0.247      164.995       22.916        0.019      344.842       21.946      863.731
06/08/2014  09:38:00      134.560      107.718       11.226       45.985       44.870       37.641     2114.661     2013.351     1416.866        1.769        0.277      172.364       27.058        0.025      344.851       21.962      863.723
06/08/2014  09:39:00      152.498       67.660        5.714       82.356       53.412       42.144     6782.437     2852.791     1776.153        1.964        0.571      166.834       12.691        0.006      345.200       22.558      863.700
06/08/2014  09:40:00      102.888       70.831       30.645       58.978       46.479       50.308     3478.426     2160.332     2530.903        1.235        0.408      124.912       18.372        0.022      345.543       23.148      863.694
06/08/2014  09:41:00      110.714     -103.228      -11.515       70.719       81.774       55.780     5001.110     6686.987     3111.414        1.892        0.740      151.373       60.214        0.158      345.317       22.758      863.683
06/08/2014  09:42:00      165.363     -178.975      -39.770       53.967       74.066       42.403     2912.409     5485.723     1798.043        3.558        0.510      243.674       45.786        0.035      345.175       22.513      863.681
06/08/2014  09:43:00       92.552     -127.386       -8.083       72.568      103.442       50.859     5266.152    10700.155     2586.599        2.170        0.928      157.458       61.705        0.154      345.452       22.992      863.679
06/08/2014  09:44:00       92.172      -47.239       35.800       57.144      145.081       57.950     3265.460    21048.515     3358.217        1.984        1.384      103.572       71.787        0.480      345.206       22.568      863.679
06/08/2014  09:45:00       46.456       68.535       82.170       80.706       85.158       71.549     6513.454     7251.942     5119.284        1.624        0.944       82.796       62.075        0.562      345.457       23.000      863.687
06/08/2014  09:46:00      108.753     -137.580      -21.600       67.036       85.148       44.685     4493.780     7250.157     1996.791        2.248        0.687      175.373       43.993        0.063      345.229       22.609      863.702
06/08/2014  09:47:00       21.818     -163.979       -2.733       70.690       77.899       56.638     4997.086     6068.297     3207.887        2.082        0.714      165.424       52.590        0.101      345.361       22.835      863.696
06/08/2014  09:48:00       75.185     -115.619        8.411       64.412      114.996       70.799     4148.845    13224.089     5012.564        2.073        1.119      137.914       78.122        0.321      345.689       23.398      863.681
06/08/2014  09:49:00       89.783     -183.840      -17.037       66.376       85.276       51.024     4405.825     7272.057     2603.432        2.821        0.714      204.593       48.324        0.056      345.292       22.717      863.680
06/08/2014  09:50:00       72.871     -106.526       23.239       93.588      102.371       55.317     8758.711    10479.753     3059.921        1.974        1.115      129.066       67.632        0.275      345.568       23.192      863.686
06/08/2014  09:51:00       28.669      -50.877       23.671       38.650       64.670       50.440     1493.787     4182.192     2544.235        0.609        0.411       58.399       37.240        0.407      345.726       23.464      863.678
06/08/2014  09:52:00       25.930       69.341       76.872       61.221       60.058       47.306     3748.023     3607.023     2237.902        1.049        0.480       74.031       35.459        0.229      345.914       23.785      863.673
06/08/2014  09:53:00       65.163      105.353      133.816       68.134       76.059       52.334     4642.304     5784.980     2738.851        2.321        0.658      123.877       52.447        0.179      345.605       23.252      863.675
06/08/2014  09:54:00       51.957       87.466      109.698       77.029       57.608       42.693     5933.529     3318.663     1822.687        1.673        0.554      101.734       42.378        0.174      345.462       23.008      863.678
06/08/2014  09:55:00       52.278       74.677       98.565       71.205       68.859       45.606     5070.215     4741.583     2079.946        1.496        0.595       91.158       41.917        0.211      345.713       23.440      863.656
06/08/2014  09:56:00       80.098      -89.562       10.136       47.963       75.368       31.937     2300.482     5680.338     1019.953        1.177        0.450      120.154       22.651        0.036      345.552       23.163      863.659
06/08/2014  09:57:00      -13.910      102.257       -2.423       28.491       89.286       37.173      811.760     7971.977     1381.840        1.041        0.508      103.199       45.345        0.193      345.564       23.185      863.649
06/08/2014  09:58:00      -41.877       75.641        2.447       42.935       54.662       33.355     1843.377     2987.945     1112.538        0.671        0.297       86.460       25.700        0.088      345.611       23.266      863.640
06/08/2014  09:59:00      -19.680      100.327        9.651       29.886       94.182       35.922      893.159     8870.189     1290.390        1.080        0.553      102.239       45.525        0.198      345.808       23.603      863.625
06/08/2014  10:00:00       14.203       52.262       25.243       58.888       41.549       36.896     3467.752     1726.333     1361.290        0.506        0.328       54.158       28.859        0.284      345.806       23.600      863.605
06/08/2014  10:01:00      -34.310       60.830        8.309       25.177       34.509       30.205      633.902     1190.895      912.323        0.384        0.137       69.838       22.424        0.103      345.751       23.506      863.607
06/08/2014  10:02:00      -50.490      -13.180       -4.609       22.359       38.775       31.250      499.935     1503.530      976.552        0.286        0.149       52.182       25.658        0.242      345.339       22.799      863.579
06/08/2014  10:03:00       80.231       35.883       -4.040       79.912       41.908       35.001     6385.884     1756.280     1225.093        0.855        0.468       87.890       13.176        0.022      345.648       23.329      863.568
06/08/2014  10:04:00       93.944       69.872       13.071       81.199       50.901       50.509     6593.319     2590.881     2551.175        1.280        0.587      117.079       39.825        0.116      345.947       23.842      863.563
06/08/2014  10:05:00       72.065      102.493        3.254       68.383       59.408       65.627     4676.197     3529.342     4306.949        1.411        0.626      125.292       39.522        0.100      345.680       23.383      863.555
06/08/2014  10:06:00      133.888       95.893       17.983       62.915       49.704       40.511     3958.325     2470.459     1641.131        1.776        0.403      164.686       36.225        0.048      345.477       23.036      863.549
06/08/2014  10:07:00       92.687       43.686       16.983       89.987       53.725       50.185     8097.708     2886.342     2518.582        1.214        0.675      102.467       37.019        0.131      345.806       23.601      863.535
06/08/2014  10:08:00       92.007      -10.278       13.197       54.149       81.180       40.933     2932.122     6590.251     1675.546        0.997        0.560       92.580       41.462        0.201      345.802       23.593      863.513
06/08/2014  10:09:00       40.882       -1.941       64.293       54.117       88.274       47.860     2928.606     7792.294     2290.562        0.941        0.651       40.929       61.413        2.251      346.031       23.986      863.509
06/08/2014  10:10:00       57.939       68.636       81.741       63.968       96.502       50.784     4091.905     9312.683     2579.046        1.536        0.799       89.821       54.833        0.373      345.887       23.739      863.509
06/08/2014  10:11:00      103.467       11.013       50.703       80.659      124.074       72.793     6505.797    15394.289     5298.840        2.029        1.360      104.051       82.455        0.628      346.218       24.306      863.505
06/08/2014  10:12:00       64.809       -9.138       75.901       70.296       65.594       61.956     4941.494     4302.523     3838.521        1.156        0.654       65.450       39.955        0.373      346.499       24.791      863.476
06/08/2014  10:13:00       66.874       34.759       74.095       79.223       75.248       55.805     6276.319     5662.191     3114.152        1.311        0.753       75.368       49.068        0.424      346.174       24.232      863.459
06/08/2014  10:14:00       70.170       28.531       68.454       73.808       90.086       60.781     5447.692     8115.466     3694.287        1.384        0.863       75.748       62.255        0.675      345.989       23.914      863.450
06/08/2014  10:15:00      148.076       87.922       51.017       60.726       57.846       39.908     3687.652     3346.146     1592.610        2.044        0.431      172.212       35.110        0.042      345.820       23.622      863.443
06/08/2014  10:16:00      120.115      113.030       64.127       53.451       46.690       52.028     2857.039     2179.990     2706.945        1.953        0.387      164.935       33.979        0.042      345.988       23.912      863.442
06/08/2014  10:17:00       57.455       76.359       22.770       62.905       45.861       39.755     3956.996     2103.198     1580.452        0.864        0.382       95.560       14.528        0.023      346.376       24.580      863.434
06/08/2014  10:18:00      179.527      144.045       27.898       99.863       80.677       70.904     9972.663     6508.703     5027.425        3.763        1.075      230.171       46.940        0.042      345.984       23.902      863.436
06/08/2014  10:19:00       51.976       47.713        7.934       57.745       84.642       49.767     3334.494     7164.232     2476.780        0.901        0.649       70.556       38.574        0.299      346.098       24.102      863.430
06/08/2014  10:20:00       87.243       45.763        9.741       51.991       38.539       27.720     2703.033     1485.245      768.408        0.738        0.248       98.517       12.406        0.016      345.791       23.574      863.412
06/08/2014  10:21:00       35.574       47.408       33.381       66.857       38.690       38.834     4469.867     1496.879     1508.071        0.605        0.374       59.270       27.455        0.215      346.577       24.925      863.405
06/08/2014  10:22:00       83.986      -22.572       27.126      106.121       83.429       52.357    11261.587     6960.469     2741.288        1.463        1.048       86.966       41.029        0.223      346.052       24.021      863.413
06/08/2014  10:23:00       16.836       -3.555        8.188       35.765       27.346       30.335     1279.108      747.824      920.224        0.165        0.147       17.207       20.086        1.363      346.001       23.935      863.411
06/08/2014  10:24:00       36.872       35.263       43.930       57.083       54.940       39.426     3258.451     3018.404     1554.441        0.618        0.392       51.020       31.870        0.390      346.482       24.762      863.397
06/08/2014  10:25:00      114.728      135.982       10.113       84.062       78.076       74.867     7066.381     6095.790     5605.034        2.526        0.938      177.915       50.281        0.080      345.861       23.692      863.397
06/08/2014  10:26:00       89.137      115.389       -1.223       64.242       89.548       75.039     4126.995     8018.873     5630.805        1.952        0.889      145.808       66.650        0.209      346.012       23.951      863.366
06/08/2014  10:27:00       65.453       95.382        9.681       61.917       67.899       60.726     3833.665     4610.234     3687.650        1.280        0.607      115.680       47.668        0.170      346.134       24.161      863.346
06/08/2014  10:28:00       44.085      124.472        7.309       49.811       96.355       50.162     2481.137     9284.192     2516.238        1.588        0.714      132.049       56.234        0.181      346.352       24.535      863.320
06/08/2014  10:29:00       67.312      106.823        2.319       81.971       82.646       59.791     6719.184     6830.325     3574.910        1.653        0.856      126.262       49.859        0.156      346.264       24.387      863.297
06/08/2014  10:30:00       39.564       38.671        5.875       89.357       93.055       49.296     7984.722     8659.173     2430.064        1.108        0.954       55.324       29.497        0.284      346.298       24.444      863.268
06/08/2014  10:31:00       61.715       39.403       10.782       64.959       53.425       39.022     4219.706     2854.267     1522.732        0.704        0.430       73.221       31.391        0.184      346.762       25.244      863.266
06/08/2014  10:32:00       38.856       36.657       57.632       65.796       63.977       41.110     4329.077     4093.037     1690.039        0.814        0.506       53.418       33.121        0.384      347.008       25.666      863.265
06/08/2014  10:33:00      141.981     -161.121       14.300      114.208      130.484       70.979    13043.428    17026.171     5037.985        4.071        1.755      214.753       71.204        0.110      346.488       24.769      863.261
06/08/2014  10:34:00       56.455      -51.730       96.845      124.776      192.339      111.271    15568.968    36994.345    12381.145        4.008        3.247       76.571      132.097        2.976      346.448       24.700      863.208
06/08/2014  10:35:00       79.263      185.815       51.747      119.401      112.425      104.040    14256.604    12639.393    10824.284        4.060        1.886      202.015       65.323        0.105      346.287       24.422      863.234
06/08/2014  10:36:00       67.691      149.121        8.558       73.303       96.073       64.495     5373.359     9230.017     4159.628        2.282        0.938      163.765       61.279        0.140      346.268       24.393      863.267
06/08/2014  10:37:00      114.019      131.466       -0.195       94.604       75.864       56.431     8949.826     5755.274     3184.427        2.408        0.894      174.022       47.169        0.073      346.566       24.905      863.260
06/08/2014  10:38:00      198.477      149.361       32.394      102.334       90.212       80.753    10472.289     8138.135     6520.968        4.394        1.257      248.398       45.087        0.033      346.793       25.294      863.239
06/08/2014  10:39:00      182.630      125.557      147.700      128.858      109.859       94.933    16604.431    12068.920     9012.317        5.430        1.884      221.627       82.913        0.140      346.475       24.747      863.248
06/08/2014  10:40:00      269.545      193.611       50.564       85.929       68.407       68.854     7383.869     4679.457     4740.861        6.475        0.840      331.873       49.078        0.022      345.939       23.824      863.284
06/08/2014  10:41:00      221.023      123.058       57.471       81.199       70.274       72.100     6593.271     4938.408     5198.341        4.201        0.837      252.972       37.461        0.022      345.900       23.757      863.256
06/08/2014  10:42:00      163.267       93.935       44.632       79.538       74.360       67.517     6326.354     5529.478     4558.523        2.694        0.821      188.361       18.377        0.010      346.056       24.026      863.252
06/08/2014  10:43:00       53.795       49.254       20.012       61.337       49.903       40.213     3762.186     2490.265     1617.117        0.679        0.393       72.938       32.327        0.196      346.616       24.991      863.243
06/08/2014  10:44:00      169.161      113.104       22.787      116.790       89.518       59.132    13639.901     8013.528     3496.577        3.353        1.258      203.489       50.374        0.061      346.412       24.640      863.240
06/08/2014  10:45:00      120.152       68.984      104.698       95.753      107.524       78.917     9168.636    11561.448     6227.867        2.855        1.348      138.548       67.115        0.235      346.521       24.827      863.226
06/08/2014  10:46:00       68.796      136.491      143.779      103.043       95.682       65.273    10617.885     9154.965     4260.507        3.403        1.202      152.848       56.942        0.139      346.486       24.765      863.217
06/08/2014  10:47:00      190.212       62.056       59.914      133.890       98.978       77.337    17926.440     9796.635     5981.058        3.866        1.685      200.079       47.266        0.056      346.370       24.567      863.195
06/08/2014  10:48:00      202.414      103.998       16.534      135.768       93.274       69.887    18433.008     8700.089     4884.214        4.203        1.601      227.567       43.678        0.037      346.417       24.647      863.197
06/08/2014  10:49:00      218.670      144.178      135.662      155.152      161.146      135.233    24072.094    25967.951    18287.907        7.765        3.416      261.924      113.248        0.187      346.470       24.736      863.197
06/08/2014  10:50:00      195.531       91.799      158.586      159.160      188.674      128.170    25332.059    35597.720    16427.628        7.457        3.868      216.008      133.069        0.379      346.086       24.077      863.213
06/08/2014  10:51:00      288.356     -322.390      -36.467       84.782      106.569       44.904     7188.058    11357.012     2016.376       10.448        1.028      432.532       32.474        0.006      345.941       23.828      863.170
06/08/2014  10:52:00      126.633       25.377       88.459      124.876      124.490       99.251    15593.944    15497.740     9850.665        3.272        2.047      129.151       96.243        0.555      346.353       24.538      863.206
06/08/2014  10:53:00       50.865      -24.414       22.800       56.309       42.999       28.689     3170.716     1848.944      823.061        0.477        0.292       56.420       30.170        0.286      346.381       24.587      863.192
06/08/2014  10:54:00       44.977       69.811        6.453       51.627       42.770       31.108     2665.373     1829.303      967.737        0.620        0.273       83.045       22.983        0.077      346.470       24.741      863.145
06/08/2014  10:55:00      220.384      120.726       21.982      122.708       79.369       66.534    15057.214     6299.423     4426.830        4.470        1.289      251.284       37.018        0.022      346.440       24.686      863.154
06/08/2014  10:56:00      169.733      135.807       27.770      121.087      102.474       82.884    14662.131    10500.875     6869.756        4.002        1.602      217.377       58.817        0.073      346.413       24.638      863.137
06/08/2014  10:57:00      290.150      152.909       77.316      126.552      102.933       78.879    16015.466    10595.236     6221.824        7.318        1.642      327.976       26.382        0.006      346.570       24.909      863.122
06/08/2014  10:58:00      151.505       83.872       79.905      135.023       99.018       78.744    18231.152     9804.539     6200.646        3.530        1.712      173.171       62.625        0.131      346.782       25.276      863.134
06/08/2014  10:59:00      122.161       52.182       82.194      120.290       77.328       65.340    14469.667     5979.672     4269.297        2.456        1.236      132.839       31.211        0.055      346.952       25.568      863.119
06/08/2014  11:00:00      189.124      103.751       73.194       89.488       77.506       67.068     8008.068     6007.201     4498.054        3.520        0.926      215.713       39.610        0.034      346.621       24.997      863.124
06/08/2014  11:01:00      243.337      126.407       47.208      153.185      108.642       74.320    23465.653    11802.981     5523.451        5.910        2.040      274.211       27.888        0.010      346.398       24.614      863.112
06/08/2014  11:02:00      171.975      123.811       23.291       96.842       83.287       66.777     9378.422     6936.642     4459.229        3.311        1.039      211.907       40.566        0.037      346.364       24.558      863.095
06/08/2014  11:03:00      242.965      131.934       24.389       89.239       72.637       64.298     7963.553     5276.136     4134.285        4.720        0.869      276.475       30.237        0.012      346.294       24.434      863.085
06/08/2014  11:04:00      151.517      110.011       93.506      127.866       97.656       75.028    16349.730     9536.674     5629.182        3.765        1.576      187.243       60.483        0.104      346.661       25.068      863.067
06/08/2014  11:05:00      107.025       67.805       89.271      105.346       64.388       59.593    11097.813     4145.793     3551.306        2.140        0.940      126.696       60.228        0.226      346.545       24.867      863.068
06/08/2014  11:06:00        9.178       24.746       52.183       32.535       58.571       46.023     1058.550     3430.520     2118.074        0.501        0.330       26.393       42.766        2.626      347.071       25.776      863.086
06/08/2014  11:07:00       42.991       58.778       11.168       64.752       50.955       38.747     4192.790     2596.375     1501.334        0.686        0.415       72.823       32.578        0.200      346.794       25.299      863.095
06/08/2014  11:08:00       64.892       60.429       12.285       81.851       48.263       32.530     6699.660     2329.322     1058.222        0.905        0.504       88.671       18.740        0.045      346.720       25.169      863.080
06/08/2014  11:09:00      -35.104        9.652       48.055       76.810       99.789       72.793     5899.774     9957.932     5298.822        1.239        1.058       36.407       61.823        2.884      347.125       25.867      863.070
06/08/2014  11:10:00      136.731       86.264       96.717      107.612       82.588       71.801    11580.285     6820.822     5155.445        2.952        1.178      161.669       57.412        0.126      347.029       25.699      863.086
06/08/2014  11:11:00      155.381      138.073      107.168       99.739      133.006      100.574     9947.774    17690.629    10115.063        4.622        1.888      207.864       83.306        0.161      346.860       25.409      863.069
06/08/2014  11:12:00      176.631      262.831      180.745      131.960      129.128      146.115    17413.469    16674.048    21349.709        9.418        2.772      316.668      117.833        0.138      346.314       24.469      863.053
06/08/2014  11:13:00      143.984      111.792       22.660       67.034       44.413       42.720     4493.620     1972.559     1825.035        2.102        0.415      182.288       37.689        0.043      346.459       24.720      863.068
06/08/2014  11:14:00       77.228       63.424       68.569      104.094       53.485       37.976    10835.467     2860.595     1442.192        1.491        0.757       99.934       22.791        0.052      347.009       25.666      863.042
06/08/2014  11:15:00      192.349      117.096       57.980      102.943       82.566       83.533    10597.317     6817.204     6977.702        3.923        1.220      225.188       67.081        0.089      347.057       25.746      863.027
06/08/2014  11:16:00      315.743      155.374       46.402      192.706      113.015       92.546    37135.434    12772.321     8564.758        9.222        2.924      351.902       50.756        0.021      346.922       25.517      863.042
06/08/2014  11:17:00      207.972       78.892       74.455      159.749       98.509       93.419    25519.706     9704.036     8727.045        4.948        2.198      222.432       91.648        0.170      347.120       25.856      863.019
06/08/2014  11:18:00       49.136       54.657       91.052       86.398       57.276       48.073     7464.546     3280.540     2311.043        1.337        0.653       73.497       32.199        0.192      347.326       26.215      863.019
06/08/2014  11:19:00      209.127      179.978      117.153      140.074       86.883      102.281    19620.623     7548.610    10461.397        6.373        1.882      275.910       88.386        0.103      346.924       25.518      863.041
06/08/2014  11:20:00      132.658       70.096       86.700       99.125      122.561       67.157     9825.686    15021.204     4510.108        2.969        1.468      150.039       73.437        0.240      346.396       24.612      863.062
06/08/2014  11:21:00       26.593      -25.208       56.168       47.337       95.344       48.747     2240.802     9090.510     2376.308        0.910        0.685       36.642       45.692        1.555      347.040       25.721      863.018
06/08/2014  11:22:00       55.179       -1.918       38.532       87.556       95.266       75.444     7665.972     9075.633     5691.766        1.348        1.122       55.212       75.508        1.870      347.056       25.748      863.022
06/08/2014  11:23:00      152.950       28.204       91.272      115.638      127.891       86.443    13372.117    16356.204     7472.449        3.485        1.860      155.529       88.027        0.320      347.142       25.896      863.016
06/08/2014  11:24:00      237.665      162.855      118.993      176.351      149.785      128.205    31099.800    22435.649    16436.625        8.356        3.499      288.108      118.233        0.168      346.714       25.158      863.006
06/08/2014  11:25:00      162.392      137.925       87.142      166.579       95.519       88.675    27748.657     9123.854     7863.254        4.885        2.237      213.060      100.142        0.221      346.884       25.450      863.001
06/08/2014  11:26:00      171.190       79.486       40.432      104.971       81.371       63.765    11018.839     6621.206     4066.039        2.948        1.085      188.743       34.769        0.034      346.927       25.525      862.993
06/08/2014  11:27:00      274.972      165.398       65.912      114.297       97.371       79.925    13063.806     9481.034     6388.034        6.812        1.447      320.883       59.766        0.035      346.751       25.221      863.002
06/08/2014  11:28:00      230.318      138.660       37.029      118.235       85.151       78.529    13979.485     7250.628     6166.832        5.052        1.370      268.836       38.756        0.021      346.634       25.020      863.008
06/08/2014  11:29:00      116.469      103.039       15.793      106.202       74.478       59.879    11278.965     5546.982     3585.437        2.242        1.021      155.505       50.435        0.105      346.524       24.834      862.998
06/08/2014  11:30:00      128.395       70.534       12.266       87.895       73.272       42.515     7725.480     5368.810     1807.566        1.825        0.745      146.494       28.683        0.038      346.748       25.218      862.974
06/08/2014  11:31:00       30.342       -5.447       13.992       62.686       42.408       40.023     3929.484     1798.408     1601.850        0.424        0.366       30.827       14.756        0.229      346.960       25.584      862.981
06/08/2014  11:32:00      139.792       51.888       81.879      120.842       94.447       93.442    14602.869     8920.297     8731.431        3.059        1.613      149.112       74.174        0.247      346.859       25.408      862.973
06/08/2014  11:33:00       68.275       63.565      100.273       90.813       95.610       60.745     8247.080     9141.293     3689.968        1.991        1.054       93.285       68.515        0.539      347.215       26.022      862.937
06/08/2014  11:34:00      194.990        6.795       60.843       96.740      129.855       73.001     9358.630    16862.447     5329.096        3.665        1.578      195.108       67.119        0.118      347.028       25.698      862.923
06/08/2014  11:35:00      145.068      141.234       88.659      101.244       62.383       59.929    10250.352     3891.644     3591.502        3.329        0.887      202.464       61.124        0.091      347.309       26.182      862.925
06/08/2014  11:36:00       43.478      -37.909       31.783       77.999       85.849       60.002     6083.909     7369.983     3600.187        1.069        0.853       57.684       50.380        0.763      347.585       26.662      862.906
06/08/2014  11:37:00      136.451       67.233       27.980      112.867       92.111       68.108    12739.032     8484.481     4638.731        2.489        1.293      152.115       18.470        0.015      347.332       26.222      862.886
06/08/2014  11:38:00      104.295      -10.492       18.751       73.395      171.579       53.642     5386.843    29439.269     2877.507        2.451        1.885      104.821       42.526        0.165      347.116       25.851      862.888
06/08/2014  11:39:00      239.833     -249.475       -2.027      162.751      211.632       87.501    26488.047    44788.064     7656.464        9.933        3.947      346.060      114.694        0.110      346.988       25.629      862.858
06/08/2014  11:40:00      241.369     -227.970       31.352      178.716      237.518      115.306    31939.307    56414.709    13295.472       10.641        5.082      332.008      154.436        0.216      346.718       25.165      862.843
06/08/2014  11:41:00       85.513      -62.639       63.067       84.495       97.748       62.619     7139.351     9554.605     3921.152        1.791        1.031      106.000       62.095        0.343      347.265       26.110      862.863
06/08/2014  11:42:00      116.004       31.046       86.535      108.528      105.339       61.373    11778.350    11096.369     3766.646        2.427        1.332      120.087       74.771        0.388      347.016       25.678      862.858
06/08/2014  11:43:00      106.307      141.652      165.524      136.649      102.352       94.550    18672.929    10475.911     8939.655        4.842        1.904      177.106       75.555        0.182      347.329       26.217      862.839
06/08/2014  11:44:00       99.130      103.130      108.731      101.470      122.248       86.858    10296.244    14944.683     7544.289        3.253        1.639      143.048       86.025        0.362      347.209       26.011      862.850
06/08/2014  11:45:00      121.328       92.525       16.801       77.169       53.738       43.301     5955.075     2887.822     1874.948        1.714        0.536      152.582       29.350        0.037      347.165       25.936      862.846
06/08/2014  11:46:00       39.304       19.631       30.088       59.224       28.591       33.122     3507.499      817.441     1097.077        0.413        0.271       43.933       31.202        0.504      347.797       27.026      862.834
06/08/2014  11:47:00       29.916       13.119       96.084       76.587      113.185       64.438     5865.510    12810.947     4152.317        1.656        1.141       32.666       66.936        4.199      347.609       26.702      862.827
06/08/2014  11:48:00       48.868      123.122       28.009       74.789      103.306       68.604     5593.374    10672.154     4706.504        1.965        1.049      132.466       61.648        0.217      347.260       26.101      862.828
06/08/2014  11:49:00      168.762      131.252       29.652      110.704       86.333       68.896    12255.460     7453.342     4746.667        3.552        1.223      213.793       48.584        0.052      347.281       26.133      862.793
06/08/2014  11:50:00      262.920      182.243       29.503      128.092      110.099       76.434    16407.576    12121.873     5842.122        6.878        1.719      319.906       48.996        0.023      347.047       25.731      862.774
06/08/2014  11:51:00      139.827       75.714       42.456       96.320       96.528       63.613     9277.468     9317.569     4046.615        2.486        1.132      159.010       39.177        0.061      347.509       26.529      862.746
06/08/2014  11:52:00      100.397       57.637       72.865      112.130       83.231       67.374    12573.129     6927.479     4539.239        2.137        1.202      115.765       39.690        0.118      347.841       27.101      862.735
06/08/2014  11:53:00      225.829      141.413       95.631      120.887      132.138       98.121    14613.720    17460.393     9627.757        6.091        2.085      266.452       78.037        0.086      347.507       26.523      862.750
06/08/2014  11:54:00      192.541      104.354      136.544      130.088      110.397       96.320    16922.868    12187.521     9277.598        5.249        1.919      219.002       81.356        0.138      347.284       26.137      862.769
06/08/2014  11:55:00      167.495      115.978       96.577       92.491       83.536       74.672     8554.634     6978.342     5575.980        3.597        1.055      203.729       49.242        0.058      347.006       25.662      862.750
06/08/2014  11:56:00       70.576      102.372      100.133       88.472       81.558       81.539     7827.215     6651.788     6648.667        2.330        1.056      124.343       73.968        0.354      347.260       26.100      862.733
06/08/2014  11:57:00      123.001      148.348      121.463       93.871       70.532       66.383     8811.741     4974.811     4406.730        3.504        0.910      192.708       51.647        0.072      347.473       26.465      862.730
06/08/2014  11:58:00      198.529      112.996      116.674      136.386      116.144       83.685    18601.215    13489.463     7003.197        5.244        1.955      228.433       68.705        0.090      347.591       26.668      862.739
06/08/2014  11:59:00      225.034      146.992       90.917      133.897      125.913      103.522    17928.363    15854.169    10716.896        6.250        2.225      268.788       87.842        0.107      347.609       26.699      862.725
06/08/2014  12:00:00      109.829      101.696       85.631       87.745       82.863       69.948     7699.107     6866.358     4892.737        2.459        0.973      149.681       44.943        0.090      347.522       26.549      862.742
06/08/2014  12:01:00      207.041       92.235       78.216      132.800       97.830       77.791    17635.955     9570.729     6051.475        4.537        1.663      226.656       57.949        0.065      346.988       25.629      862.759
06/08/2014  12:02:00      119.979       77.695       89.773       95.421       74.853       64.833     9105.209     5602.905     4203.289        2.370        0.946      142.939       53.353        0.139      347.075       25.778      862.755
06/08/2014  12:03:00       91.191      -35.807       21.082       83.819       81.542       39.278     7025.557     6649.030     1542.798        1.263        0.761       97.969       34.584        0.125      347.107       25.836      862.728
06/08/2014  12:04:00       53.660      -20.823       24.157       45.186       35.754       33.629     2041.757     1278.336     1130.940        0.417        0.223       57.559       22.662        0.155      347.295       26.162      862.683
06/08/2014  12:05:00      107.849       66.276       28.759       56.473       38.911       41.932     3189.248     1514.027     1758.321        1.166        0.323      126.586       40.615        0.103      346.988       25.632      862.665
06/08/2014  12:06:00      100.994       37.411       24.968       65.093       46.503       40.765     4237.075     2162.543     1661.790        1.014        0.403      107.700       29.819        0.077      347.066       25.765      862.674
06/08/2014  12:07:00       76.987      -29.943       12.908       72.754       82.235       46.425     5293.167     6762.551     2155.281        1.060        0.711       82.605       50.427        0.373      347.361       26.274      862.672
06/08/2014  12:08:00       58.955       41.254       99.860       67.450       81.774       46.945     4549.521     6687.059     2203.836        1.429        0.672       71.956       35.827        0.248      347.889       27.184      862.648
06/08/2014  12:09:00      152.788      -63.587       54.979      119.991      218.086       83.681    14397.824    47561.647     7002.557        4.967        3.448      165.492      115.079        0.484      347.590       26.668      862.626
06/08/2014  12:10:00      112.580      -31.195       35.295      102.027      141.787       51.752    10409.528    20103.511     2678.273        2.404        1.660      116.822       74.066        0.402      346.958       25.580      862.643
06/08/2014  12:11:00       61.425      -28.963       -7.353       48.357      109.700       27.599     2338.397    12034.167      761.713        0.990        0.757       67.911       23.852        0.123      347.027       25.698      862.626
06/08/2014  12:12:00      108.926      -88.272        5.791       94.476       93.277       57.417     8925.623     8700.578     3296.759        2.030        1.046      140.203       58.249        0.173      347.496       26.506      862.620
06/08/2014  12:13:00       55.551       89.433       77.489       82.663       71.924       81.508     6833.112     5173.003     6643.538        1.787        0.932      105.281       70.123        0.444      347.660       26.791      862.605
06/08/2014  12:14:00       65.234      108.354       12.519       89.979       75.526       53.994     8096.213     5704.103     2915.396        1.643        0.836      126.476       35.038        0.077      347.492       26.500      862.568
06/08/2014  12:15:00      320.135      305.165       27.392      206.211      153.625      109.324    42522.969    23600.642    11951.683       13.720        3.904      442.281       78.518        0.032      347.099       25.819      862.492
06/08/2014  12:16:00      246.125      176.951       35.992      177.460      155.604      101.353    31492.115    24212.499    10272.400        7.957        3.299      303.133       54.016        0.032      347.278       26.128      862.459
06/08/2014  12:17:00      132.136      114.458       77.644      134.240      104.767       90.868    18020.435    10976.210     8257.051        3.691        1.863      174.816       91.361        0.273      347.710       26.874      862.472
06/08/2014  12:18:00      201.205      150.799       33.096      126.653       91.241       66.671    16040.865     8324.967     4445.071        4.656        1.441      251.444       37.122        0.022      347.428       26.387      862.470
06/08/2014  12:19:00      234.129      123.562       53.715      134.293      102.888       69.165    18034.578    10585.865     4783.825        5.318        1.670      264.734       50.653        0.037      347.631       26.737      862.468
06/08/2014  12:20:00      207.771      133.052       46.732       90.743       67.700       70.055     8234.355     4583.294     4907.643        4.039        0.886      246.722       50.184        0.041      347.910       27.218      862.470
06/08/2014  12:21:00       56.495       82.914      164.949       96.218      139.757       75.217     9257.892    19532.075     5657.672        3.585        1.722      100.332       80.226        0.639      348.058       27.476      862.474
06/08/2014  12:22:00       74.666      -39.671       72.357      125.125      164.089       91.244    15656.289    26925.241     8325.551        3.164        2.545       84.550      106.311        1.581      347.840       27.099      862.457
06/08/2014  12:23:00      146.927       41.351       91.973      129.183      116.023       91.777    16688.196    13461.275     8422.963        3.516        1.929      152.635       87.485        0.329      347.584       26.657      862.447
06/08/2014  12:24:00       94.992      -22.269       19.420      111.152       73.780       51.630    12354.798     5443.501     2665.671        1.518        1.023       97.567       30.981        0.101      347.674       26.813      862.470
06/08/2014  12:25:00       48.870        6.297       28.153       60.483      110.156       51.941     3658.203    12134.313     2697.902        1.085        0.925       49.274       11.962        0.059      347.673       26.812      862.465
06/08/2014  12:26:00      133.584       53.315       44.220      109.252       86.760       56.572    11935.894     7527.257     3200.382        2.265        1.133      143.830       40.903        0.081      347.545       26.591      862.437
06/08/2014  12:27:00       89.251       38.845       64.417       74.209       49.587       54.953     5506.995     2458.826     3019.823        1.230        0.549       97.338       39.579        0.165      347.487       26.491      862.412
06/08/2014  12:28:00       30.483       19.982       42.336       30.388       29.831       21.993      923.422      889.876      483.680        0.271        0.115       36.449       17.109        0.220      347.631       26.741      862.387
06/08/2014  12:29:00       31.145       32.912       59.253       64.888       87.415       59.375     4210.503     7641.306     3525.380        1.047        0.769       45.313       54.556        1.450      347.918       27.236      862.371
06/08/2014  12:30:00      151.437      137.242       28.713      118.893       87.676       64.987    14135.586     7687.070     4223.355        3.431        1.302      204.374       50.332        0.061      347.482       26.482      862.391
06/08/2014  12:31:00      293.461      210.458       55.558      165.582      110.712       91.510    27417.463    12257.069     8374.048        9.076        2.402      361.126       34.365        0.009      347.415       26.364      862.398
06/08/2014  12:32:00      344.580      212.819       46.182      126.421       92.811       86.055    15982.283     8613.969     7405.526        9.907        1.600      405.002       49.799        0.015      347.079       25.785      862.371
06/08/2014  12:33:00      280.526      104.847       37.965      180.088      131.687      104.557    32431.597    17341.469    10932.265        7.591        3.035      299.479       76.104        0.065      347.597       26.677      862.359
06/08/2014  12:34:00      217.434      187.414      110.634      154.563      113.063      110.793    23889.777    12783.189    12275.047        7.179        2.447      287.057       83.707        0.085      347.678       26.817      862.363
06/08/2014  12:35:00      105.633       49.168       66.595      105.782      134.182       76.038    11189.874    18004.815     5781.705        2.649        1.749      116.515       76.863        0.435      347.492       26.499      862.364
06/08/2014  12:36:00      118.738       79.638       79.126       99.237      103.954       70.843     9848.065    10806.520     5018.675        2.618        1.284      142.972       46.069        0.104      347.797       27.026      862.343
06/08/2014  12:37:00       38.550      -53.673       36.319       53.035       69.268       52.657     2812.746     4798.029     2772.811        0.803        0.519       66.083       14.824        0.050      347.967       27.320      862.333
06/08/2014  12:38:00       68.030       70.903      102.345      103.804       90.927       78.310    10775.281     8267.743     6132.457        2.265        1.259       98.261       77.243        0.618      348.138       27.616      862.308
06/08/2014  12:39:00      100.608       24.956       27.514       81.951       34.372       33.774     6715.937     1181.417     1140.672        1.027        0.452      103.657       23.876        0.053      347.225       26.038      862.295
06/08/2014  12:40:00       94.027       10.940       18.576       73.379       45.006       27.856     5384.534     2025.503      775.965        0.874        0.409       94.662       21.288        0.051      347.696       26.852      862.268
06/08/2014  12:41:00      225.546      117.265       41.025       66.985       44.170       44.046     4486.931     1950.987     1940.051        3.734        0.419      254.209       14.558        0.003      347.308       26.179      862.257
06/08/2014  12:42:00      226.446      143.300       31.051      133.583       96.250       75.708    17844.293     9264.116     5731.647        5.280        1.642      267.979       25.251        0.009      347.509       26.527      862.274
06/08/2014  12:43:00      194.267       98.176       24.197      118.993       91.453       64.933    14159.427     8363.606     4216.272        3.735        1.337      217.665       19.926        0.008      348.020       27.409      862.244
06/08/2014  12:44:00      197.543      141.905       73.285      130.740      103.264      107.141    17092.946    10663.423    11479.242        5.188        1.962      243.229       44.457        0.033      347.847       27.111      862.224
06/08/2014  12:45:00      162.674      130.151       72.400      108.488      109.602       74.308    11769.688    12012.535     5521.668        3.897        1.465      208.332       43.584        0.044      348.205       27.729      862.246
06/08/2014  12:46:00      177.506      106.499       14.475      110.687       89.142       58.612    12251.619     7946.252     3435.411        3.334        1.182      207.004       42.827        0.043      347.755       26.952      862.254
06/08/2014  12:47:00       57.330      111.124       -1.327       61.414       70.873       56.012     3771.736     5022.931     3137.299        1.378        0.597      125.041       47.100        0.142      347.549       26.598      862.239
06/08/2014  12:48:00      141.730      102.622       20.887      132.833       95.913       52.430    17644.537     9199.210     2748.869        3.032        1.480      174.982       43.833        0.063      347.826       27.076      862.218
06/08/2014  12:49:00      210.023      147.004       18.524      103.192       87.395       77.995    10648.493     7637.846     6083.153        4.521        1.218      256.358       44.857        0.031      347.415       26.365      862.203
06/08/2014  12:50:00      242.308      173.118       61.392       93.761       68.478       74.702     8791.159     4689.305     5580.320        5.575        0.953      297.797       55.872        0.035      347.578       26.645      862.201
06/08/2014  12:51:00       80.718      -28.189        8.808       62.248      115.865       41.113     3874.865    13424.740     1690.243        1.319        0.949       85.499       35.617        0.174      347.585       26.660      862.222
06/08/2014  12:52:00       52.031        6.817       58.512       54.013       76.830       49.824     2917.438     5902.837     2482.443        0.874        0.565       52.476       54.271        1.070      348.123       27.590      862.204
06/08/2014  12:53:00       81.823       56.372       83.814       72.199       84.184       64.925     5212.718     7086.904     4215.267        1.670        0.826       99.362       56.435        0.323      348.060       27.479      862.195
06/08/2014  12:54:00       87.293       15.567      102.634      130.380      145.870       86.995    16999.013    21277.979     7568.215        3.211        2.292       88.670      101.459        1.309      348.306       27.903      862.184
06/08/2014  12:55:00       22.083       -2.323       67.847       70.875      140.902       75.029     5023.266    19853.465     5629.340        1.780        1.525       22.205       89.139       16.115      348.466       28.181      862.162
06/08/2014  12:56:00      111.981      -39.579       27.890      110.263       95.993       59.125    12157.858     9214.627     3495.721        1.987        1.243      118.770       49.325        0.172      348.374       28.022      862.158
06/08/2014  12:57:00      175.217      144.781       89.663      129.828       80.581       72.328    16855.201     6493.315     5231.308        4.414        1.429      227.294       44.357        0.038      348.419       28.099      862.155
06/08/2014  12:58:00      324.415      176.834       37.901      146.787      140.268      108.807    21546.371    19675.123    11838.865        9.550        2.653      369.480       69.758        0.036      347.736       26.916      862.132
06/08/2014  12:59:00      288.369      149.619       85.527      146.747      128.393       86.496    21534.617    16484.670     7481.611        7.917        2.275      324.873       64.146        0.039      347.791       27.013      862.119
06/08/2014  13:00:00      196.009     -219.926       -7.175      139.550      168.550       76.304    19474.094    28409.220     5822.349        7.026        2.685      294.597       90.493        0.094      347.733       26.913      862.106
06/08/2014  13:01:00      120.615     -122.397       31.572       97.988      151.310       72.006     9601.683    22894.687     5184.907        3.410        1.884      171.841       88.904        0.268      347.724       26.900      862.124
06/08/2014  13:02:00      -71.686       30.500       38.323       72.695       69.211       77.269     5284.611     4790.229     5970.427        1.179        0.802       77.904       63.550        0.665      348.284       27.869      862.084
06/08/2014  13:03:00      -16.468       28.636       54.399       83.441       74.276       37.160     6962.339     5516.944     1380.888        0.895        0.693       33.034       45.632        1.908      348.315       27.921      862.054
06/08/2014  13:04:00      121.610      137.699       93.491      144.589       89.759       78.699    20905.941     8056.659     6193.572        3.882        1.758      183.712       56.831        0.096      347.812       27.050      862.094
06/08/2014  13:05:00      229.477      158.586       83.710      213.128      134.487      100.746    45423.513    18086.814    10149.750        7.922        3.683      278.943       68.119        0.060      347.838       27.096      862.050
06/08/2014  13:06:00      182.876      107.131       88.833       94.391       82.101       76.774     8909.616     6740.497     5894.189        3.717        1.077      211.946       52.983        0.062      348.120       27.580      862.066
06/08/2014  13:07:00      286.224      173.451       25.415      142.819      109.020       93.704    20397.398    11885.340     8780.393        7.685        2.053      334.678       53.408        0.025      347.854       27.122      862.053
06/08/2014  13:08:00      292.353      194.492       85.166      166.723      130.820       79.982    27796.648    17113.870     6397.112        9.092        2.565      351.137       69.796        0.040      347.983       27.344      862.038
06/08/2014  13:09:00      165.351      -39.522       41.034      128.093      152.058       68.875    16407.932    23121.554     4743.700        3.742        2.214      170.008       65.412        0.148      348.334       27.950      862.066
06/08/2014  13:10:00      143.525     -192.932      -15.416       98.925      157.606       66.398     9786.223    24839.635     4408.651        4.854        1.952      240.462       81.449        0.115      347.826       27.074      862.083
06/08/2014  13:11:00      167.261      -96.589       91.169      173.167      276.191      141.562    29986.982    76281.631    20039.818        8.594        6.315      193.147      181.898        0.887      348.152       27.635      862.075
06/08/2014  13:12:00       76.057       30.972      133.724      105.254      216.582      131.135    11078.348    46907.774    17196.282        4.989        3.759       82.121      153.792        3.507      348.040       27.443      862.128
06/08/2014  13:13:00      105.411     -194.778       -8.038       91.719      137.337       75.852     8412.449    18861.351     5753.555        4.106        1.651      221.472       59.135        0.071      348.034       27.433      862.136
06/08/2014  13:14:00      139.691       42.652       25.048       81.784      117.218       63.123     6688.614    13740.115     3984.569        2.318        1.221      146.057       40.026        0.075      347.789       27.009      862.140
06/08/2014  13:15:00      140.664      -27.819       80.065      134.669      151.077      105.664    18135.771    22824.283    11164.814        3.954        2.606      143.389      108.830        0.576      348.046       27.455      862.137
06/08/2014  13:16:00      185.547       40.391       68.784       96.932      154.452       69.422     9395.895    23855.296     4819.363        3.942        1.904      189.892       67.863        0.128      347.636       26.746      862.145
06/08/2014  13:17:00       93.627      -10.305       32.249      132.056       72.362       65.508    17438.726     5236.287     4291.290        1.843        1.348       94.193       61.802        0.431      347.605       26.694      862.125
06/08/2014  13:18:00      117.654       41.073       78.888       98.005       90.705       68.756     9604.972     8227.407     4727.397        2.215        1.128      124.617       47.145        0.143      347.816       27.059      862.080
06/08/2014  13:19:00      101.070       21.722       74.247       77.703       83.419       59.057     6037.764     6958.781     3487.739        1.634        0.824      103.378       65.179        0.398      348.290       27.877      862.101
06/08/2014  13:20:00      155.828     -194.599      -36.305      161.788      128.970       86.752    26175.446    16633.326     7525.859        5.689        2.517      249.301      103.369        0.172      348.027       27.420      862.080
06/08/2014  13:21:00      132.147     -109.292       -1.504      113.757      153.536      113.348    12940.731    23573.412    12847.849        3.938        2.468      171.486      116.347        0.460      347.898       27.197      862.064
06/08/2014  13:22:00      132.553     -108.781       21.418       94.071      152.500       93.786     8849.307    23256.345     8795.799        3.537        2.045      171.475      102.441        0.357      348.161       27.652      862.066
06/08/2014  13:23:00      132.023      -35.405       45.969       90.666      129.289       95.933     8220.309    16715.647     9203.056        2.746        1.707      136.688      101.541        0.552      347.925       27.246      862.072
06/08/2014  13:24:00      103.435       56.969       91.436      107.207       89.632       60.996    11493.267     8033.892     3720.539        2.277        1.162      118.085       66.776        0.320      347.985       27.349      862.068
06/08/2014  13:25:00      151.130       77.740       29.091       68.401       51.368       55.726     4678.691     2638.656     3105.413        2.007        0.521      169.952       26.571        0.024      347.639       26.753      862.070
06/08/2014  13:26:00      102.540       38.446       62.250       88.335       72.656       50.245     7803.045     5278.951     2524.602        1.573        0.780      109.511       40.864        0.139      347.891       27.187      862.066
06/08/2014  13:27:00       57.901       13.808       56.418       72.388       55.368       37.100     5240.061     3065.603     1376.441        0.820        0.484       59.524       17.518        0.087      348.036       27.439      862.061
06/08/2014  13:28:00       37.746       49.059       69.384       32.295       43.947       40.859     1042.935     1931.372     1669.489        0.664        0.232       61.900       25.390        0.168      348.179       27.685      862.049
06/08/2014  13:29:00       31.349       33.071       -3.354       33.452       46.567       26.591     1119.046     2168.460      707.092        0.304        0.200       45.568       18.835        0.171      347.978       27.340      862.039
06/08/2014  13:30:00      187.071      110.241       65.859      124.674      103.128       75.218    15543.650    10635.359     5657.810        4.166        1.592      217.137       41.030        0.036      348.021       27.412      861.998
06/08/2014  13:31:00       30.264       12.196       42.057       53.089      101.272       70.740     2818.443    10255.948     5004.086        1.045        0.904       32.629       41.337        1.605      348.131       27.604      861.970
06/08/2014  13:32:00       -0.845       -5.682        7.130       40.778       47.852       32.359     1662.852     2289.862     1047.094        0.254        0.250        5.744       20.294       12.481      348.655       28.510      861.985
06/08/2014  13:33:00       19.645      -19.818       32.669       58.860       68.295       35.011     3464.532     4664.258     1225.737        0.560        0.468       27.905       34.749        1.551      348.798       28.757      862.004
06/08/2014  13:34:00       93.327      -73.994       46.857      126.986      181.672      114.645    16125.365    33004.632    13143.461        3.931        3.114      119.101      136.066        1.305      348.428       28.114      862.017
06/08/2014  13:35:00      283.021     -261.712      -37.392      152.438      155.252       89.707    23237.448    24103.204     8047.268       10.268        2.769      385.479       97.952        0.065      347.730       26.908      861.997
06/08/2014  13:36:00      161.208       -3.869      100.075      123.491      255.665      134.433    15249.992    65364.757    18072.165        6.733        4.934      161.254      157.044        0.948      347.806       27.040      861.985
06/08/2014  13:37:00       67.822      -20.686       74.668      120.951      110.347       80.834    14629.067    12176.353     6534.095        2.196        1.667       70.907       71.031        1.004      348.313       27.917      861.992
06/08/2014  13:38:00       51.482      -94.643       48.277      101.455      181.839      100.890    10293.190    33065.298    10178.729        3.373        2.677      107.739      116.851        1.176      347.915       27.226      862.004
06/08/2014  13:39:00       73.693      -23.425       31.093       65.638      106.221       69.360     4308.371    11282.885     4810.759        1.367        1.020       77.327       73.200        0.896      348.236       27.784      861.982
06/08/2014  13:40:00      147.991       68.797      119.978       91.691       91.838       79.840     8407.251     8434.168     6374.382        3.212        1.161      163.201       82.058        0.253      348.125       27.590      861.990
06/08/2014  13:41:00      112.681       -7.666      101.403      108.977      141.036       99.321    11875.981    19891.240     9864.591        3.233        2.082      112.941      110.445        0.956      348.208       27.734      861.968
06/08/2014  13:42:00      111.146      -64.858       64.001      115.792      197.316       81.904    13407.838    38933.788     6708.330        3.984        2.952      128.686      111.543        0.751      348.372       28.016      861.948
06/08/2014  13:43:00      122.285      -97.351       43.191       91.039      139.171       65.728     8288.102    19368.617     4320.159        2.913        1.599      156.304       84.434        0.292      348.631       28.467      861.930
06/08/2014  13:44:00      126.227       61.445      123.246      140.198      126.223       78.021    19655.364    15932.227     6087.224        3.828        2.084      140.388       92.174        0.431      348.473       28.191      861.920
06/08/2014  13:45:00      132.552      -71.233       37.535      136.734      209.363      117.886    18696.276    43832.780    13897.059        5.022        3.821      150.480      130.584        0.753      348.304       27.900      861.925
06/08/2014  13:46:00       74.751      -54.329       54.767       79.676      142.119       95.081     6348.290    20197.674     9040.473        2.356        1.779       92.409      104.580        1.281      348.337       27.958      861.971
06/08/2014  13:47:00      120.638     -145.363      -34.375       54.653       75.716       41.991     2986.976     5732.920     1763.212        2.367        0.524      188.902       29.816        0.025      347.880       27.166      861.980
06/08/2014  13:48:00      -21.339      -23.207      -19.019       56.359       35.584       19.583     3176.327     1266.189      383.513        0.309        0.241       31.527       20.016        0.403      347.735       26.922      861.959
06/08/2014  13:49:00        7.428      -67.611       -9.700       34.819       57.224       30.138     1212.348     3274.603      908.306        0.506        0.270       68.017       23.390        0.118      348.303       27.901      861.908
06/08/2014  13:50:00        1.950      -12.642       22.078       37.681       33.227       26.297     1419.823     1104.059      691.527        0.193        0.161       12.792       29.010        5.143      348.292       27.882      861.867
06/08/2014  13:51:00        3.506       14.487       33.645       27.225       25.208       18.099      741.217      635.441      327.560        0.153        0.085       14.905       17.330        1.352      348.813       28.784      861.860
06/08/2014  13:52:00       32.594       17.134       59.586       39.401       44.566       26.373     1552.461     1986.111      695.511        0.457        0.212       36.823       31.531        0.733      348.434       28.128      861.871
06/08/2014  13:53:00       54.357      -29.428       61.787       79.762      136.773       93.979     6361.942    18706.968     8832.043        2.076        1.695       61.812      105.330        2.904      348.367       28.009      861.861
06/08/2014  13:54:00       95.383     -116.351       14.163       61.152      123.234       49.859     3739.609    15186.660     2485.940        2.212        1.071      150.451       65.407        0.189      348.077       27.507      861.847
06/08/2014  13:55:00      117.700      -67.287       53.729      116.620      168.149       88.941    13600.115    28274.052     7910.473        3.552        2.489      135.575      107.379        0.627      348.432       28.122      861.823
06/08/2014  13:56:00      101.134     -227.720        3.752       93.671      125.265       67.133     8774.237    15691.340     4506.893        4.553        1.449      249.168       63.229        0.064      348.197       27.713      861.823
06/08/2014  13:57:00      -25.069     -105.463       47.868       81.147       81.035       58.766     6584.793     6566.674     3453.413        1.532        0.830      108.402       36.829        0.115      348.700       28.588      861.818
06/08/2014  13:58:00       -1.720      -59.812       61.012       41.551       62.474       56.074     1726.453     3903.022     3144.252        0.804        0.439       59.837       20.287        0.115      348.988       29.086      861.804
06/08/2014  13:59:00      -48.558      -86.721       -1.977       67.772       85.242       50.220     4593.107     7266.160     2522.001        1.213        0.719       99.390       48.957        0.243      348.651       28.502      861.796
06/08/2014  14:00:00       15.672      -68.978       25.750       59.481       89.372       65.375     3538.011     7987.381     4273.846        1.073        0.790       70.736       47.494        0.451      348.760       28.690      861.798
06/08/2014  14:01:00        6.248      -68.925       30.144       70.283       73.233       45.434     4939.731     5363.022     2064.281        0.903        0.618       69.207       31.540        0.208      348.593       28.403      861.771
06/08/2014  14:02:00       -2.617      -63.017       39.567       30.948       62.491       41.204      957.756     3905.078     1697.752        0.605        0.328       63.071       32.389        0.264      348.543       28.315      861.756
06/08/2014  14:03:00      -26.609      -33.354       20.274       20.746       25.827       24.206      430.416      667.056      585.918        0.196        0.084       42.667       16.520        0.150      348.709       28.602      861.759
06/08/2014  14:04:00       -6.074      -11.405       28.267       20.023       25.238       21.193      400.901      636.947      449.133        0.123        0.074       12.922       14.118        1.194      348.910       28.950      861.758
06/08/2014  14:05:00       98.329     -177.349        3.427       74.207       84.434       49.790     5506.713     7129.028     2479.003        2.812        0.756      202.784       38.462        0.036      348.329       27.944      861.761
06/08/2014  14:06:00       58.657     -155.017       16.803      114.313      109.266       65.199    13067.548    11939.027     4250.852        2.850        1.463      165.744       39.682        0.057      348.497       28.233      861.707
06/08/2014  14:07:00      134.129     -149.249       35.178      125.917      179.755       94.269    15854.969    32311.703     8886.671        4.927        2.853      200.664      119.543        0.355      348.422       28.104      861.687
06/08/2014  14:08:00      137.684       77.983       64.371      117.643       79.937       69.499    13839.844     6389.993     4830.121        2.712        1.253      158.234       52.513        0.110      348.228       27.768      861.708
06/08/2014  14:09:00       24.784      -39.014       23.831       75.657       68.786       51.023     5723.919     4731.534     2603.357        0.788        0.653       46.220       46.899        1.030      348.826       28.805      861.722
06/08/2014  14:10:00       15.324      -70.757       25.398       59.676       49.012       36.460     3561.208     2402.217     1329.335        0.659        0.365       72.397       30.957        0.183      348.568       28.359      861.708
06/08/2014  14:11:00       88.367       17.572       26.327       52.481       46.878       41.392     2754.278     2197.570     1713.332        0.774        0.333       90.097       25.399        0.079      348.226       27.768      861.678
06/08/2014  14:12:00       -0.967      -37.622        5.979       64.420       81.119       49.173     4149.990     6580.306     2418.008        0.730        0.657       37.634       49.769        1.749      348.454       28.162      861.671
06/08/2014  14:13:00      -25.502      -72.558        0.788       97.076       85.515       47.101     9423.767     7312.887     2218.507        1.243        0.948       76.909       33.501        0.190      348.377       28.028      861.691
06/08/2014  14:14:00       10.148       19.936       39.848       22.934       29.206       28.816      525.964      852.978      830.353        0.215        0.110       22.371       17.179        0.590      348.820       28.795      861.695
06/08/2014  14:15:00      -59.744      -53.476        9.416       67.643       67.144       43.197     4575.593     4508.349     1866.007        0.873        0.547       80.181       42.477        0.281      348.536       28.304      861.689
06/08/2014  14:16:00       17.700       38.233       78.862       66.234       74.011       40.211     4386.883     5477.647     1616.934        0.974        0.574       42.131       35.130        0.695      348.606       28.425      861.681
06/08/2014  14:17:00        5.734       90.097       19.009       85.662      106.532       62.393     7337.923    11349.085     3892.829        1.554        1.129       90.279       67.037        0.551      348.516       28.268      861.604
06/08/2014  14:18:00       84.506      196.234       20.248      127.573      123.761      102.569    16274.795    15316.664    10520.423        4.408        2.106      213.656       87.841        0.169      348.432       28.121      861.555
06/08/2014  14:19:00      140.064       44.794       27.125       94.148       55.893       63.331     8863.865     3124.026     4010.791        1.918        0.800      147.053       27.166        0.034      348.368       28.011      861.570
06/08/2014  14:20:00       89.870       52.105       52.919       98.538       73.011       73.892     9709.714     5330.643     5460.031        1.704        1.025      103.883       71.400        0.472      348.862       28.867      861.549
06/08/2014  14:21:00       35.375      102.270      187.069       99.983      142.309       95.612     9996.650    20251.870     9141.680        4.304        1.970      108.215      105.545        0.951      348.824       28.801      861.534
06/08/2014  14:22:00      195.414     -195.402       31.011      117.221      206.159      103.847    13740.755    42501.560    10784.209        7.217        3.351      276.348      120.046        0.189      348.576       28.369      861.511
06/08/2014  14:23:00       92.323      -15.863       89.366      118.504      163.064       95.180    14043.116    26589.963     9059.289        3.322        2.485       93.675      107.196        1.310      348.855       28.855      861.522
06/08/2014  14:24:00      113.978       86.651      147.296      114.923      144.547       91.665    13207.261    20893.898     8402.478        4.234        2.125      143.176      101.654        0.504      348.368       28.009      861.577
06/08/2014  14:25:00      117.705      -22.049       65.405       79.324       92.299       67.450     6292.291     8519.127     4549.553        1.899        0.968      119.752       68.973        0.332      348.380       28.033      861.592
06/08/2014  14:26:00       46.033      -67.669       12.043       60.956       56.640       37.666     3715.616     3208.080     1418.750        0.759        0.417       81.842       23.653        0.084      348.279       27.859      861.583
06/08/2014  14:27:00       85.384     -110.987        6.409       62.608       95.088       46.989     3919.822     9041.718     2207.985        1.741        0.758      140.031       48.793        0.121      348.046       27.454      861.557
06/08/2014  14:28:00      -18.675       -0.690       22.923       45.695       37.392       33.446     2088.047     1398.180     1118.620        0.274        0.230       18.688       28.371        2.305      348.444       28.145      861.526
06/08/2014  14:29:00       77.969      -36.369       17.032       65.908       55.670       42.084     4343.819     3099.163     1771.028        0.845        0.461       86.034       43.269        0.253      348.252       27.813      861.510
06/08/2014  14:30:00       26.900       19.055        0.913       47.260       37.528       26.094     2233.532     1408.317      680.879        0.270        0.216       32.965       22.071        0.448      348.070       27.499      861.480
06/08/2014  14:31:00       55.345       40.966       24.216       64.103       60.952       38.669     4109.229     3715.168     1495.303        0.732        0.466       68.857       29.540        0.184      348.217       27.753      861.457
06/08/2014  14:32:00      149.700       15.426       44.481      107.099       91.675       56.543    11470.238     8404.373     3197.165        2.384        1.154      150.493       39.071        0.067      348.390       28.050      861.445
06/08/2014  14:33:00      114.677       83.685       56.661       86.939       67.500       64.358     7558.358     4556.203     4142.015        1.981        0.813      141.964       52.922        0.139      348.725       28.630      861.461
06/08/2014  14:34:00       43.596      107.020      156.665       75.339      135.415       80.753     5675.976    18337.230     6521.007        3.421        1.527      115.559       94.423        0.668      348.617       28.442      861.454
06/08/2014  14:35:00       21.515        6.853       62.157       56.366       80.029       76.562     3177.072     6404.608     5861.771        0.991        0.772       22.580       70.454        9.735      348.453       28.159      861.461
06/08/2014  14:36:00      -15.250       -4.708       -3.879       59.834       34.625       26.806     3580.087     1198.919      718.542        0.288        0.275       15.960       28.331        3.151      348.407       28.079      861.407
06/08/2014  14:37:00       86.447       69.294       34.936       48.516       43.802       34.349     2353.838     1918.632     1179.825        0.947        0.273      110.791        8.503        0.006      348.563       28.351      861.390
06/08/2014  14:38:00      150.146      132.373      122.616      125.593      124.442       91.858    15773.694    15485.689     8437.841        4.739        1.985      200.165       90.261        0.203      348.654       28.505      861.362
06/08/2014  14:39:00      173.781      140.384       40.402      132.192       86.472       83.777    17474.595     7477.438     7018.622        4.175        1.599      223.400       60.288        0.073      348.761       28.689      861.379
06/08/2014  14:40:00      180.928      109.424       32.341      133.274      102.631       67.250    17762.057    10533.079     4522.589        3.928        1.641      211.444       45.534        0.046      348.704       28.593      861.370
06/08/2014  14:41:00      161.330      106.808       44.391      115.458       84.275       67.078    13330.613     7102.215     4499.433        3.216        1.247      193.483       66.229        0.117      349.034       29.163      861.359
06/08/2014  14:42:00      115.282      117.975       72.786      119.573       64.254       65.406    14297.649     4128.516     4277.884        2.760        1.135      164.949       38.784        0.055      348.469       28.188      861.371
06/08/2014  14:43:00      227.017      153.169       69.222       91.646       77.529       82.987     8398.987     6010.726     6886.820        5.054        1.065      273.857       44.745        0.027      348.219       27.752      861.354
06/08/2014  14:44:00      313.394      218.934       28.954       83.043       72.726       66.522     6896.058     5289.103     4425.228        8.180        0.831      382.293       21.419        0.003      348.125       27.588      861.344
06/08/2014  14:45:00      217.479      155.277       15.930      125.669       85.713       80.261    15792.747     7346.759     6441.808        5.062        1.479      267.223       46.460        0.030      348.276       27.851      861.316
06/08/2014  14:46:00      300.636      195.309       50.203       76.474       83.914       63.828     5848.328     7041.553     4074.063        7.400        0.848      358.507       33.231        0.009      348.246       27.798      861.293
06/08/2014  14:47:00      246.957      131.006       38.933      119.164       94.609       73.706    14199.962     8950.922     5432.642        5.412        1.429      279.554       58.211        0.043      348.408       28.079      861.273
06/08/2014  14:48:00      167.253      146.788       22.303      105.172       94.336       81.789    11061.206     8899.191     6689.372        3.833        1.332      222.532       45.949        0.043      348.557       28.336      861.279
06/08/2014  14:49:00      229.569      198.614       17.705      116.473       76.319       71.889    13566.004     5824.592     5167.974        5.851        1.228      303.561       50.064        0.027      348.397       28.059      861.264
06/08/2014  14:50:00       28.615      150.613       -4.096       65.280       76.737       53.759     4261.524     5888.630     2890.068        1.828        0.652      153.307       51.918        0.115      348.555       28.336      861.261
06/08/2014  14:51:00       74.422      130.315       -7.009       90.775       73.333       44.514     8240.132     5377.743     1981.497        1.908        0.780      150.069       30.017        0.040      348.685       28.559      861.268
06/08/2014  14:52:00      192.284      158.628      104.292      160.891      112.897      106.769    25885.973    12745.799    11399.674        6.151        2.502      249.271       94.861        0.145      348.769       28.703      861.248
06/08/2014  14:53:00       68.869       52.914       78.998       84.739       83.859       84.382     7180.678     7032.318     7120.280        1.755        1.067       86.850       69.241        0.636      348.383       28.037      861.241
06/08/2014  14:54:00       16.714      -49.083      -14.539       61.671       79.622       34.851     3803.332     6339.650     1214.572        0.713        0.568       51.851       28.130        0.294      348.472       28.192      861.222
06/08/2014  14:55:00       55.277       29.209        2.558       86.746      104.673       66.105     7524.809    10956.447     4369.898        1.338        1.143       62.520       59.044        0.892      348.934       28.993      861.192
06/08/2014  14:56:00      152.642      115.710       18.300      128.487      106.771       72.531    16509.037    11400.089     5260.704        3.509        1.658      191.542       38.646        0.041      348.915       28.958      861.190
06/08/2014  14:57:00       69.450       99.408        5.066       63.326       87.013       65.856     4010.192     7571.241     4336.964        1.532        0.796      121.265       57.749        0.227      348.469       28.187      861.180
06/08/2014  14:58:00       75.846       78.834       14.396       76.639       53.535       46.313     5873.578     2865.987     2144.853        1.153        0.544      109.396       32.494        0.088      348.449       28.152      861.155
06/08/2014  14:59:00        6.865      119.575      -21.980       30.655       38.711       18.954      939.709     1498.530      359.249        0.881        0.140      119.772       15.023        0.016      348.322       27.932      861.142
06/08/2014  15:00:00       36.866       42.030        5.335       22.842       32.227       33.389      521.778     1038.610     1114.813        0.291        0.134       55.907       15.423        0.076      348.587       28.391      861.125
06/08/2014  15:01:00       12.348      112.493      -10.473       55.308       73.224       46.911     3058.985     5361.703     2200.619        1.177        0.531      113.168       44.403        0.154      348.718       28.618      861.107
06/08/2014  15:02:00       30.232      143.530      -27.906       39.153       70.058       30.974     1532.958     4908.166      959.418        1.485        0.370      146.680       32.009        0.048      348.569       28.360      861.106
06/08/2014  15:03:00       81.373       78.116        5.296       70.382       63.585       42.061     4953.677     4043.032     1769.136        1.176        0.538      112.800       36.361        0.104      348.599       28.412      861.086
06/08/2014  15:04:00      135.093       57.174       12.341       73.312       47.870       39.066     5374.590     2291.538     1526.170        1.543        0.460      146.693       21.069        0.021      348.724       28.628      861.062
06/08/2014  15:05:00      168.974       99.371       20.413       73.019       48.593       53.320     5331.714     2361.256     2843.016        2.469        0.527      196.027       25.607        0.017      348.589       28.393      861.081
06/08/2014  15:06:00      180.829      114.461       69.546      117.922       83.891       77.516    13905.604     7037.646     6008.776        3.879        1.348      214.010       34.660        0.026      348.769       28.707      861.065
06/08/2014  15:07:00      312.444      216.937       17.801      122.020       83.939       71.365    14888.763     7045.691     5093.011        8.601        1.351      380.372       48.256        0.016      348.339       27.959      861.054
06/08/2014  15:08:00       96.061       69.926        4.010      105.053       92.955       40.351    11036.112     8640.658     1628.197        1.771        1.065      118.816       37.322        0.099      348.486       28.215      861.040
06/08/2014  15:09:00       24.811      -24.557       42.308       51.816       56.044       36.914     2684.889     3140.947     1362.633        0.510        0.359       34.909       41.621        1.422      349.170       29.400      860.995
06/08/2014  15:10:00      159.908       59.137       46.523       94.942       63.840       57.445     9013.918     4075.555     3299.916        2.381        0.819      170.492       40.755        0.057      348.838       28.824      860.981
06/08/2014  15:11:00       69.634       80.830      119.141       98.144      143.373      112.788     9632.294    20555.850    12721.103        3.423        2.145      106.689      112.896        1.120      348.977       29.064      860.972
06/08/2014  15:12:00      205.041      112.494      103.002      122.562      107.698       91.240    15021.353    11598.942     8324.733        5.012        1.747      233.873       78.473        0.113      348.745       28.663      860.953
06/08/2014  15:13:00      128.470       77.962       39.115       98.616       72.904       61.316     9725.066     5315.020     3759.665        2.145        0.940      150.275       46.310        0.095      348.662       28.519      860.957
06/08/2014  15:14:00       74.495      100.561       -4.816       71.054       77.654       48.471     5048.640     6030.086     2349.426        1.455        0.671      125.148       46.190        0.136      348.678       28.548      860.902
06/08/2014  15:15:00       40.663       65.056       87.163       57.510       79.701       53.547     3307.371     6352.297     2867.289        1.300        0.626       76.719       51.341        0.448      348.997       29.101      860.893
06/08/2014  15:16:00       79.709       76.757       84.026       95.887       94.188       69.866     9194.249     8871.472     4881.223        2.112        1.147      110.658       66.147        0.357      349.241       29.522      860.906
06/08/2014  15:17:00       75.366       14.122       25.489       84.898       91.722       49.548     7207.739     8412.921     2454.990        1.230        0.904       76.677       33.094        0.186      348.865       28.874      860.919
06/08/2014  15:18:00      152.423       85.430       41.676      100.053       80.958       63.892    10010.560     6554.258     4082.201        2.645        1.032      174.732       51.587        0.087      348.998       29.101      860.923
06/08/2014  15:19:00      229.889       88.281       62.387      135.491      146.692      100.253    18357.680    21518.532    10050.592        5.722        2.496      246.257       85.689        0.121      348.779       28.720      860.894
06/08/2014  15:20:00      227.948      147.865       74.505      134.266       88.108       84.160    18027.432     7762.975     7082.884        5.612        1.644      271.706       84.923        0.098      348.663       28.521      860.891
06/08/2014  15:21:00      331.069      182.178       59.762      159.313      107.294       80.398    25380.703    11512.081     6463.888        9.485        2.168      377.883       38.259        0.010      348.580       28.377      860.877
06/08/2014  15:22:00      223.770      146.604       50.540       84.104       58.411       65.422     7073.493     3411.875     4280.071        4.444        0.738      267.518       46.935        0.031      348.366       28.005      860.881
06/08/2014  15:23:00      158.976       53.040       58.561      144.582       91.665       73.200    20904.065     8402.485     5358.218        3.308        1.733      167.590       63.948        0.146      348.878       28.892      860.847
06/08/2014  15:24:00      101.014       93.446       13.178      109.834       71.682       52.802    12063.407     5138.338     2788.011        1.955        0.999      137.608       24.689        0.032      349.182       29.421      860.847
06/08/2014  15:25:00      153.300      144.773       12.632      122.406       86.396       66.925    14983.347     7464.331     4479.015        3.577        1.346      210.856       56.793        0.073      348.815       28.784      860.848
06/08/2014  15:26:00       12.415       68.609        9.651       85.502       87.734       35.946     7310.637     7697.291     1292.136        1.062        0.815       69.724       42.858        0.378      348.916       28.960      860.840
06/08/2014  15:27:00       27.561      202.838      -29.416       62.181      120.945       42.686     3866.464    14627.743     1822.106        3.154        1.016      204.701       57.418        0.079      348.605       28.419      860.825
06/08/2014  15:28:00       21.016      210.499      -36.098       53.113       69.089       29.980     2820.959     4773.309      898.782        2.727        0.425      211.545       22.314        0.011      348.371       28.016      860.802
06/08/2014  15:29:00       12.642       38.539        2.384       34.039       66.705       24.878     1158.623     4449.563      618.891        0.394        0.311       40.559       19.434        0.230      348.811       28.780      860.782
06/08/2014  15:30:00      111.867       31.946        0.988       49.048       52.667       28.665     2405.668     2773.775      821.690        0.977        0.300      116.339       11.007        0.009      349.020       29.140      860.762
06/08/2014  15:31:00        8.563       17.979       42.373       40.795       39.287       30.232     1664.257     1543.471      913.962        0.316        0.206       19.914       29.959        2.263      349.346       29.706      860.733
06/08/2014  15:32:00       62.963       12.627       33.562       58.815       77.481       49.452     3459.168     6003.289     2445.521        0.858        0.595       64.216       45.992        0.513      349.095       29.271      860.716
06/08/2014  15:33:00      110.513       66.206       58.855      107.486       77.226       58.746    11553.173     5963.837     3451.148        2.051        1.048      128.827       43.307        0.113      349.174       29.406      860.691
06/08/2014  15:34:00      320.255      169.120       82.356      137.659      118.672       97.877    18950.041    14082.932     9579.948        9.027        2.131      362.166       76.602        0.045      348.625       28.454      860.670
06/08/2014  15:35:00      134.766       70.504       71.809      146.844       86.159       80.125    21563.275     7423.289     6420.008        3.184        1.770      152.094       68.253        0.201      349.123       29.319      860.642
06/08/2014  15:36:00      262.592      139.465       68.520      185.384      158.425       92.851    34367.276    25098.457     8621.346        8.058        3.404      297.330       69.833        0.055      349.028       29.153      860.633
06/08/2014  15:37:00      304.727      142.303       97.748      160.195      124.979       93.978    25662.418    15619.689     8831.913        8.638        2.506      336.316       74.839        0.050      348.952       29.020      860.602
06/08/2014  15:38:00      281.809      190.234      157.629      229.408      183.240      146.339    52627.851    33576.929    21415.051       12.401        5.381      340.008      131.272        0.149      348.896       28.923      860.573
06/08/2014  15:39:00      221.750      167.403      114.205      136.518      116.366      105.323    18637.290    13541.022    11092.970        6.675        2.164      277.843       71.908        0.067      349.039       29.170      860.604
06/08/2014  15:40:00      243.749      141.276       60.875      146.312      103.039       97.389    21407.302    10617.093     9484.579        6.229        2.075      281.731       82.268        0.085      349.066       29.219      860.610
06/08/2014  15:41:00      240.847      132.088       21.247      123.694      109.426       78.795    15300.187    11974.078     6208.702        5.469        1.674      274.690       47.435        0.030      349.004       29.109      860.628
06/08/2014  15:42:00      151.416      106.293       30.497       84.387       55.955       48.668     7121.218     3130.928     2368.603        2.389        0.631      185.000       16.303        0.008      348.840       28.828      860.613
06/08/2014  15:43:00       29.619      148.653       -5.833       66.086      111.519       51.940     4367.375    12436.505     2697.800        2.125        0.975      151.575       54.911        0.131      348.885       28.906      860.597
06/08/2014  15:44:00       -0.523      236.341      -33.970       42.065       47.640       35.004     1769.450     2269.563     1225.302        3.114        0.263      236.342       32.943        0.019      348.491       28.222      860.592
06/08/2014  15:45:00      -13.285      216.813      -28.284       46.230       77.447       31.476     2137.214     5998.042      990.729        2.855        0.456      217.220       36.266        0.028      348.601       28.412      860.581
06/08/2014  15:46:00       53.794      185.002       -8.141       91.267       99.314       49.419     8329.620     9863.199     2442.252        2.891        1.032      192.664       54.623        0.080      348.892       28.916      860.578
06/08/2014  15:47:00      132.711       92.086       19.402       71.511       52.719       46.435     5113.849     2779.272     2156.222        1.826        0.502      161.530       26.018        0.026      348.620       28.447      860.589
06/08/2014  15:48:00      120.753       43.321       25.609       46.740       49.919       42.110     2184.608     2491.955     1773.266        1.178        0.322      128.289       28.285        0.049      348.639       28.482      860.581
06/08/2014  15:49:00      129.990       36.797       34.407       77.706       51.144       50.764     6038.154     2615.734     2576.968        1.533        0.562      135.098       41.311        0.094      349.025       29.149      860.578
06/08/2014  15:50:00      117.256        7.391       56.742      130.214      175.899       81.242    16955.768    30940.614     6600.267        3.575        2.725      117.489       87.183        0.551      348.925       28.976      860.563
06/08/2014  15:51:00      328.636       38.287       -2.155      171.893      333.932       98.525    29547.319   111510.468     9707.170       13.009        7.538      330.859       99.903        0.091      348.937       28.994      860.456
06/08/2014  15:52:00      193.076      125.083       62.091      127.154      101.590       93.505    16168.047    10320.446     8743.249        4.600        1.762      230.053       71.943        0.098      348.921       28.968      860.555
06/08/2014  15:53:00      217.388      125.058       35.103       83.519       57.821       81.976     6975.480     3343.255     6720.098        4.058        0.852      250.793       48.498        0.037      348.787       28.734      860.534
06/08/2014  15:54:00      151.041       94.500       27.112      148.707       90.596       55.949    22113.779     8207.672     3130.287        3.296        1.673      178.167       36.270        0.041      348.975       29.060      860.523
06/08/2014  15:55:00       92.231      107.725        9.814       90.376       72.462       63.274     8167.843     5250.714     4003.542        1.881        0.871      141.814       53.169        0.141      348.804       28.766      860.496
06/08/2014  15:56:00       19.328        7.949        1.885       22.302       27.198       24.706      497.380      739.754      610.383        0.114        0.092       20.898       19.707        0.889      348.916       28.963      860.482
06/08/2014  15:57:00      123.930      -40.993       54.524      107.893       86.899       63.466    11640.979     7551.485     4027.941        2.161        1.161      130.534       59.418        0.207      349.033       29.163      860.465
06/08/2014  15:58:00       20.139       -2.091       33.130       57.859       44.355       48.452     3347.666     1967.391     2347.554        0.458        0.383       20.247       38.835        3.679      349.269       29.573      860.447
06/08/2014  15:59:00       19.259       24.194        2.538       44.597       75.236       30.541     1988.880     5660.426      932.723        0.477        0.429       30.923       29.547        0.913      349.403       29.804      860.424
06/08/2014  16:00:00      128.676      139.716        6.297      137.048       76.254       54.426    18782.086     5814.699     2962.138        3.183        1.378      189.942       40.813        0.046      349.014       29.129      860.428
06/08/2014  16:01:00      148.463       98.701       44.051      142.161       81.079       61.551    20209.789     6573.762     3788.490        3.214        1.529      178.278       53.792        0.091      349.030       29.157      860.411
06/08/2014  16:02:00      167.219      119.132       22.741      132.402       98.019       64.707    17530.332     9607.686     4187.008        3.699        1.566      205.316       54.860        0.071      349.029       29.155      860.391
06/08/2014  16:03:00      203.701       95.671       50.442      110.735       81.539       71.357    12262.242     6648.582     5091.870        3.859        1.200      225.049       46.834        0.043      349.175       29.408      860.403
06/08/2014  16:04:00      100.757      140.302       18.316       99.371      126.298       74.418     9874.666    15951.137     5538.109        3.076        1.568      172.733       74.222        0.185      349.127       29.325      860.429
06/08/2014  16:05:00      117.231      140.433       14.480      106.775       85.497       76.798    11400.839     7309.790     5897.886        2.914        1.230      182.934       53.447        0.085      348.804       28.765      860.442
06/08/2014  16:06:00       56.119      141.862      -15.279       72.091      104.699       56.075     5197.122    10961.972     3144.385        2.140        0.965      152.559       57.937        0.144      348.670       28.533      860.439
06/08/2014  16:07:00       26.339       59.034        1.656       50.471       50.681       28.996     2547.304     2568.553      840.757        0.507        0.298       64.643       21.300        0.109      348.825       28.803      860.407
06/08/2014  16:08:00       -6.835      184.264      -27.959       59.721      126.580       37.663     3566.580    16022.520     1418.464        2.789        1.050      184.391       52.575        0.081      348.681       28.552      860.371
06/08/2014  16:09:00       25.730      153.182      -13.895       45.299       97.326       45.008     2052.019     9472.404     2025.737        1.893        0.678      155.328       58.833        0.143      348.591       28.396      860.358
06/08/2014  16:10:00       60.589       58.118       23.056       65.109       54.722       45.055     4239.207     2994.481     2029.955        0.842        0.463       83.957       26.371        0.099      348.859       28.863      860.351
06/08/2014  16:11:00       68.917      106.226        1.553       73.687       85.562       61.810     5429.815     7320.887     3820.517        1.630        0.829      126.624       58.671        0.215      349.145       29.358      860.334
06/08/2014  16:12:00       53.406      104.281        7.376       94.320      101.847       75.322     8896.260    10372.905     5673.364        1.936        1.247      117.161       58.791        0.252      349.261       29.558      860.340
06/08/2014  16:13:00       89.870       53.249       25.444      111.323       91.107       55.483    12392.759     8300.541     3078.355        1.766        1.189      104.460       38.051        0.133      349.289       29.607      860.341
06/08/2014  16:14:00        8.955       37.352       62.314       55.852       60.421       45.642     3119.408     3650.714     2083.179        0.710        0.443       38.411       24.355        0.402      349.333       29.685      860.354
06/08/2014  16:15:00       58.588        8.662       31.562       50.652       44.981       47.829     2565.603     2023.283     2287.660        0.569        0.344       59.225       39.970        0.455      348.979       29.072      860.359
06/08/2014  16:16:00       75.983       75.907       70.672       40.806       52.105       40.901     1665.103     2714.953     1672.862        1.129        0.303      107.403       34.292        0.102      348.731       28.642      860.349
06/08/2014  16:17:00       97.227       64.946       55.086       66.371       54.764       47.802     4405.168     2999.097     2284.986        1.320        0.484      116.923       42.177        0.130      348.849       28.844      860.344
06/08/2014  16:18:00      105.072       89.004       57.826      102.890       99.715       79.045    10586.343     9943.020     6248.121        2.454        1.339      137.702       66.998        0.237      349.156       29.376      860.309
06/08/2014  16:19:00      169.104      150.654       -3.813       88.381       67.127       59.435     7811.237     4506.024     3532.523        3.358        0.792      226.479       40.915        0.033      348.660       28.517      860.286
06/08/2014  16:20:00      157.596      124.328        2.830       78.504       63.883       48.924     6162.935     4080.995     2393.564        2.647        0.632      200.734       33.750        0.028      348.769       28.704      860.292
06/08/2014  16:21:00      227.789      154.695       28.353      113.918       96.323       74.727    12977.294     9278.127     5584.062        5.223        1.392      275.351       38.896        0.020      348.920       28.964      860.289
06/08/2014  16:22:00      281.746      182.057       73.528       93.939       81.384       53.839     8824.604     6623.357     2898.618        6.814        0.917      335.448       26.754        0.006      348.899       28.928      860.264
06/08/2014  16:23:00      152.140      108.712       82.683      150.181       76.287       82.982    22554.378     5819.645     6886.007        3.852        1.763      186.988       89.368        0.228      349.122       29.313      860.254
06/08/2014  16:24:00      181.609      129.717       31.452       69.973       51.608       46.342     4896.211     2663.354     2147.549        3.025        0.485      223.177       20.962        0.009      348.817       28.786      860.239
06/08/2014  16:25:00      155.705       71.271       33.705      102.989       69.880       65.772    10606.833     4883.178     4325.919        2.513        0.991      171.241       56.269        0.108      349.106       29.288      860.241
06/08/2014  16:26:00       75.131       26.536       47.105       70.432       93.701       43.505     4960.636     8779.870     1892.708        1.210        0.782       79.680       22.134        0.077      349.417       29.829      860.240
06/08/2014  16:27:00      144.156       99.302        9.951      142.115       99.941       83.221    20196.537     9988.242     6925.723        3.392        1.856      175.048       58.141        0.110      349.351       29.713      860.243
06/08/2014  16:28:00      270.463      173.260       21.167      135.624       91.862       66.509    18393.915     8438.711     4423.408        6.743        1.563      321.200       40.513        0.016      348.852       28.847      860.250
06/08/2014  16:29:00      157.408      144.720        8.554      113.483       90.484       73.789    12878.350     8187.414     5444.747        3.615        1.326      213.825       54.507        0.065      348.774       28.714      860.229
06/08/2014  16:30:00      195.088      143.246       27.023      114.672       71.526       61.471    13149.567     5115.937     3778.714        4.067        1.102      242.030       39.191        0.026      348.764       28.695      860.200
06/08/2014  16:31:00       47.396       82.015       17.073       99.455       74.287       60.469     9891.339     5518.546     3656.485        1.416        0.953       94.725       43.720        0.213      349.048       29.189      860.196
06/08/2014  16:32:00      -12.275      109.677       -2.691       61.712       73.137       52.386     3808.325     5349.038     2744.263        1.204        0.595      110.362       49.074        0.198      349.246       29.533      860.176
06/08/2014  16:33:00        4.778      215.375      -32.123       54.834       56.984       38.619     3006.793     3247.190     1491.450        2.759        0.387      215.428       35.361        0.027      348.815       28.784      860.165
06/08/2014  16:34:00      215.535      116.024       26.911      119.735       91.513       65.189    14336.455     8374.718     4249.636        4.380        1.348      244.779       25.903        0.011      348.905       28.938      860.151
06/08/2014  16:35:00      196.675      116.147       22.447       97.553       53.470       46.109     9516.504     2859.088     2126.041        3.359        0.725      228.410       13.602        0.004      349.019       29.135      860.136
06/08/2014  16:36:00      279.258      198.917       32.688      127.038       91.368       77.745    16138.740     8348.159     6044.330        7.457        1.527      342.860       31.201        0.008      349.116       29.303      860.133
06/08/2014  16:37:00      185.939      119.880       85.577      165.661      118.744       87.616    27443.512    14100.040     7676.484        5.273        2.461      221.234       94.011        0.181      349.120       29.311      860.144
06/08/2014  16:38:00      171.405      110.632       48.543       92.838       69.453       79.431     8618.976     4823.687     6309.216        3.186        0.988      204.007       58.841        0.083      349.220       29.485      860.161
06/08/2014  16:39:00      118.292       65.932       54.641       68.900       70.953       52.528     4747.220     5034.292     2759.152        1.693        0.627      135.426       31.506        0.054      349.355       29.720      860.191
06/08/2014  16:40:00       89.571       68.687       -6.176       78.541       59.859       47.776     6168.718     3583.125     2282.545        1.240        0.602      112.875       31.347        0.077      349.068       29.224      860.202
06/08/2014  16:41:00      -15.866       32.596        4.818       46.275       51.771       33.280     2141.385     2680.284     1107.535        0.363        0.296       36.252       27.819        0.589      349.576       30.107      860.173
06/08/2014  16:42:00      -84.944      108.358       -9.886       50.823       68.645       35.662     2582.987     4712.104     1271.763        1.381        0.428      137.684       29.441        0.046      349.335       29.687      860.128
06/08/2014  16:43:00     -134.375      -19.082      -32.738       78.154       60.657       31.184     6108.009     3679.303      972.419        1.512        0.538      135.723       21.808        0.026      349.183       29.425      860.091
06/08/2014  16:44:00       31.470     -116.788       -3.147       73.027       62.437       46.979     5332.948     3898.420     2206.985        1.304        0.572      120.953       39.066        0.104      349.347       29.708      860.083
06/08/2014  16:45:00       40.865      -73.251        9.050       57.259       79.643       41.098     3278.567     6342.978     1689.059        0.921        0.566       83.878       41.337        0.243      348.966       29.047      860.113
06/08/2014  16:46:00       24.538       29.898       34.102       36.153       35.898       35.620     1307.056     1288.672     1268.794        0.326        0.193       38.679       26.805        0.480      349.314       29.650      860.104
06/08/2014  16:47:00       82.054       14.857       16.057       55.591       34.005       32.512     3090.336     1156.335     1057.058        0.626        0.265       83.388       11.887        0.020      349.296       29.621      860.118
06/08/2014  16:48:00       25.136       28.490       41.096       38.360       45.308       42.734     1471.508     2052.838     1826.218        0.424        0.268       37.994       40.277        1.124      349.666       30.261      860.123
06/08/2014  16:49:00       77.060       37.816       54.771       80.700       81.521       58.277     6512.419     6645.738     3396.161        1.346        0.828       85.839       62.643        0.533      349.314       29.652      860.104
06/08/2014  16:50:00      183.372       66.452       39.283       89.866       91.237       68.239     8075.889     8324.169     4656.516        3.032        1.053      195.042       50.739        0.068      348.944       29.007      860.074
06/08/2014  16:51:00      120.865       73.564       32.785       50.660       58.660       45.429     2566.477     3440.998     2063.824        1.458        0.404      141.493       30.809        0.047      348.923       28.974      860.048
06/08/2014  16:52:00       72.957       64.889       60.729       85.472       57.369       51.057     7305.513     3291.223     2606.775        1.321        0.660       97.639       51.332        0.276      349.050       29.193      860.058
06/08/2014  16:53:00      122.006      -45.326       37.540       88.903      105.631       60.950     7903.724    11157.995     3714.893        2.056        1.139      130.153       50.861        0.153      349.235       29.512      860.034
06/08/2014  16:54:00      102.413       63.607      101.422      110.020       74.061       55.463    12104.441     5484.990     3076.108        2.274        1.033      120.558       45.730        0.144      349.237       29.516      860.042
06/08/2014  16:55:00       51.554      104.975      130.551       71.331       74.255       55.070     5088.073     5513.763     3032.692        2.218        0.682      116.951       50.913        0.190      349.292       29.610      860.018
06/08/2014  16:56:00      139.940       80.840      100.226      104.319       94.961       72.817    10882.499     9017.629     5302.297        3.068        1.260      161.611       58.802        0.132      349.244       29.527      860.014
06/08/2014  16:57:00      201.790      154.398       97.777      110.587       78.885       78.141    12229.420     6222.805     6106.038        4.933        1.228      254.083       61.833        0.059      349.032       29.158      860.016
06/08/2014  16:58:00      232.936      112.712       28.589       98.427       97.470       86.429     9687.870     9500.457     7469.977        4.721        1.333      258.773       58.032        0.050      349.060       29.207      860.013
06/08/2014  16:59:00      247.750      132.789       21.013      118.360       92.621       63.779    14009.189     8578.605     4067.784        5.305        1.333      281.093       30.914        0.012      349.098       29.273      860.017
06/08/2014  17:00:00      193.769      129.854       16.797      101.528       72.257       57.875    10308.011     5221.035     3349.487        3.678        0.944      233.256       30.457        0.017      348.943       29.005      860.015
06/08/2014  17:01:00      207.900      117.442       36.993       75.688       70.269       66.594     5728.605     4937.792     4434.722        3.674        0.755      238.778       49.920        0.044      348.935       28.991      860.006
06/08/2014  17:02:00      239.949      138.245       43.743       91.894       81.213       95.129     8444.426     6595.554     9049.432        5.134        1.204      276.925       32.823        0.014      348.929       28.980      860.000
06/08/2014  17:03:00      218.824      135.192       26.694      101.319       70.080       62.876    10265.490     4911.137     3953.365        4.300        0.956      257.218       27.863        0.012      349.110       29.293      860.004
06/08/2014  17:04:00      119.844      125.083       -0.370      107.844       74.799       52.685    11630.239     5594.862     2775.658        2.500        1.000      173.229       33.701        0.038      348.992       29.090      860.015
06/08/2014  17:05:00       24.934       39.179        5.331       48.059       42.158       34.361     2309.688     1777.319     1180.698        0.373        0.263       46.441       27.526        0.351      348.995       29.098      859.998
06/08/2014  17:06:00      -56.149       78.623      -20.364       49.567       56.856       23.401     2456.932     3232.573      547.605        0.799        0.312       96.614       24.108        0.062      348.969       29.054      859.979
06/08/2014  17:07:00     -155.660       92.300      -23.525       54.821       55.164       33.775     3005.319     3043.076     1140.740        2.024        0.359      180.968       32.674        0.033      349.306       29.636      859.934
06/08/2014  17:08:00     -218.729       -6.558      -21.254       71.762       48.657       39.249     5149.760     2367.497     1540.503        2.870        0.453      218.827       37.227        0.029      349.008       29.117      859.897
06/08/2014  17:09:00     -176.792       30.880      -23.231       78.803       50.891       36.822     6209.937     2589.893     1355.827        2.145        0.508      179.469       40.602        0.051      349.251       29.539      859.894
06/08/2014  17:10:00       11.977       77.233       11.649       77.917       56.278       35.783     6071.076     3167.204     1280.399        0.838        0.526       78.156       29.572        0.143      348.993       29.095      859.913
06/08/2014  17:11:00       85.950       49.603       50.562       74.515       70.744       59.547     5552.468     5004.762     3545.814        1.325        0.705       99.236       39.595        0.159      349.144       29.356      859.889
06/08/2014  17:12:00      144.722       82.689       62.908      112.134       74.046       72.088    12574.103     5482.817     5196.727        2.749        1.163      166.679       38.913        0.055      349.178       29.413      859.873
06/08/2014  17:13:00      116.854      107.062        5.892      111.560      130.214       53.782    12445.581    16955.681     2892.543        2.872        1.615      158.484       48.768        0.095      349.012       29.124      859.887
06/08/2014  17:14:00      -28.480      225.457      -26.927       64.393       87.496       47.770     4146.479     7655.466     2282.013        3.322        0.704      227.249       48.515        0.046      349.024       29.144      859.886
06/08/2014  17:15:00      -19.405      211.936      -32.549       54.336       74.517       31.653     2952.400     5552.721     1001.932        2.793        0.475      212.822       32.427        0.023      348.942       29.003      859.882
06/08/2014  17:16:00      117.247       96.850       58.416       69.315       46.879       62.261     4804.613     2197.682     3876.426        1.871        0.544      152.075       40.296        0.070      349.066       29.220      859.888
06/08/2014  17:17:00       45.932       77.555       86.209       62.535       57.504       51.843     3910.642     3306.668     2687.659        1.273        0.495       90.136       45.787        0.258      349.159       29.380      859.876
06/08/2014  17:18:00       29.905       74.391      -26.401       62.618       46.167       28.282     3921.009     2131.357      799.851        0.699        0.343       80.177       14.585        0.033      349.032       29.162      859.871
06/08/2014  17:19:00       67.622       94.992       82.871       89.739       63.315       76.290     8053.097     4008.838     5820.174        1.917        0.894      116.603       50.888        0.190      349.173       29.404      859.837
06/08/2014  17:20:00      137.539       75.385       55.079       95.669       65.087       62.530     9152.522     4236.375     3909.959        2.246        0.865      156.844       53.024        0.114      349.148       29.361      859.864
06/08/2014  17:21:00       90.010       97.310       48.326       95.037       61.701       62.104     9031.997     3807.050     3856.913        1.830        0.835      132.556       45.224        0.116      349.027       29.152      859.855
06/08/2014  17:22:00      156.293      104.484       12.164       83.853       61.749       47.569     7031.250     3812.947     2262.844        2.430        0.655      188.001       37.981        0.041      348.887       28.909      859.859
06/08/2014  17:23:00       18.705      -38.620       40.375       61.027       39.136       32.799     3724.333     1531.652     1075.768        0.490        0.317       42.911       25.442        0.352      349.215       29.479      859.851
06/08/2014  17:24:00       -3.831      119.324        1.756       37.331      103.092       32.916     1393.620    10627.992     1083.436        1.368        0.655      119.386       49.838        0.174      349.088       29.257      859.844
06/08/2014  17:25:00      -41.468      152.607      -28.412       20.890       61.516       22.618      436.378     3784.205      511.557        1.527        0.237      158.141       28.646        0.033      348.819       28.794      859.845
06/08/2014  17:26:00       -4.295      141.964      -19.705       40.966       71.103       23.070     1678.226     5055.643      532.208        1.391        0.363      142.029       19.577        0.019      348.985       29.080      859.847
06/08/2014  17:27:00       30.108      126.087        1.287       57.969      117.997       46.564     3360.445    13923.300     2168.225        1.813        0.973      129.632       57.679        0.198      349.204       29.459      859.832
06/08/2014  17:28:00       30.069      245.659      -29.151       56.265      107.169       51.327     3165.731    11485.294     2634.453        3.969        0.864      247.492       63.281        0.065      349.071       29.227      859.822
06/08/2014  17:29:00      162.363      135.901        4.462       88.142       60.616       46.072     7769.070     3674.330     2122.649        2.921        0.678      211.733       29.439        0.019      349.111       29.295      859.811
06/08/2014  17:30:00      242.304      116.725       35.813       98.288       82.406       56.940     9660.455     6790.791     3242.180        4.665        0.985      268.954       25.899        0.009      348.994       29.094      859.781
06/08/2014  17:31:00      112.630      135.037       10.761       91.255       96.322       66.054     8327.471     9278.011     4363.100        2.650        1.098      175.842       50.972        0.084      349.173       29.404      859.779
06/08/2014  17:32:00       56.340      158.419       -9.611       70.975       94.950       61.500     5037.425     9015.569     3782.223        2.310        0.892      168.139       62.135        0.137      348.977       29.066      859.786
06/08/2014  17:33:00       27.466      140.846      -25.264       43.647       67.694       25.302     1905.035     4582.512      640.190        1.418        0.356      143.499       28.766        0.040      348.938       28.998      859.766
06/08/2014  17:34:00        9.606       84.594        1.260       44.863       54.068       39.308     2012.685     2923.312     1545.128        0.686        0.324       85.138       34.903        0.168      349.110       29.297      859.744
06/08/2014  17:35:00       64.240       97.984       -2.601       39.871       53.006       36.650     1589.677     2809.593     1343.205        0.974        0.287      117.165       29.627        0.064      349.077       29.241      859.734
06/08/2014  17:36:00      111.445      131.627       13.410       92.511       61.452       54.245     8558.198     3776.342     2942.529        2.260        0.764      172.469       52.054        0.091      348.970       29.052      859.717
06/08/2014  17:37:00      214.880      137.334       25.620       74.539       62.425       56.060     5556.057     3896.841     3142.773        3.914        0.630      255.018       45.646        0.032      349.005       29.112      859.712
06/08/2014  17:38:00       78.348       42.204        6.590       59.386       53.386       31.817     3526.686     2850.031     1012.322        0.767        0.369       88.992       20.140        0.051      349.058       29.207      859.695
06/08/2014  17:39:00      116.933       76.213       -1.826       75.577       45.318       32.463     5711.809     2053.682     1053.858        1.415        0.441      139.577       24.712        0.031      349.038       29.172      859.679
06/08/2014  17:40:00       20.108       26.936       26.174       42.787       33.858       39.717     1830.696     1146.367     1577.433        0.318        0.228       33.613       20.880        0.386      349.209       29.470      859.636
06/08/2014  17:41:00       61.952      171.572      -23.737       75.325       97.089       51.108     5673.882     9426.309     2611.998        2.577        0.886      182.414       57.192        0.098      349.160       29.382      859.675
06/08/2014  17:42:00      123.099      107.584       14.288      135.839       84.389       55.557    18452.324     7121.457     3086.573        2.779        1.433      163.486       38.708        0.056      349.178       29.413      859.668
06/08/2014  17:43:00      163.421      138.633       17.625       97.446       80.505       62.960     9495.805     6481.037     3963.983        3.308        0.997      214.303       25.608        0.014      349.109       29.292      859.670
06/08/2014  17:44:00      208.468      140.053       22.995       81.015       54.925       60.940     6563.442     3016.778     3713.742        3.845        0.665      251.144       32.586        0.017      348.994       29.092      859.677
06/08/2014  17:45:00       35.118       48.266       35.216       80.357       55.198       49.693     6457.197     3046.767     2469.365        0.839        0.599       59.690       33.427        0.314      349.216       29.481      859.661
06/08/2014  17:46:00       66.881       34.348       51.545      123.251       78.792       44.013    15190.923     6208.190     1937.178        1.582        1.167       75.185       46.059        0.375      349.279       29.588      859.671
06/08/2014  17:47:00      222.670      141.106       51.480      130.432       84.778       68.488    17012.560     7187.284     4690.641        5.051        1.445      263.615       43.306        0.027      349.063       29.212      859.663
06/08/2014  17:48:00      209.565      102.005       85.652      148.053      100.756       79.627    21919.646    10151.828     6340.530        5.003        1.921      233.072       73.970        0.101      349.105       29.286      859.666
06/08/2014  17:49:00      180.936      108.988       55.852       85.874       71.735       72.321     7374.337     5145.857     5230.345        3.274        0.888      211.225       52.217        0.061      348.934       28.989      859.670
06/08/2014  17:50:00      182.251      129.116       20.784       82.009       66.843       49.062     6725.454     4468.042     2407.108        3.196        0.680      223.353       26.607        0.014      348.995       29.095      859.676
06/08/2014  17:51:00      112.323       68.305       39.963       57.683       47.299       37.169     3327.367     2237.195     1381.511        1.291        0.347      131.461       30.305        0.053      348.882       28.901      859.657
06/08/2014  17:52:00      119.627      100.121        9.487       74.040       63.894       48.154     5481.850     4082.478     2318.775        1.815        0.594      155.997       38.737        0.062      348.959       29.036      859.652
06/08/2014  17:53:00      198.840      148.451       37.930      103.597       74.450       66.903    10732.240     5542.784     4476.067        4.188        1.038      248.143       26.792        0.012      348.936       28.992      859.654
06/08/2014  17:54:00       62.594      151.213      -15.194       62.878       89.987       53.373     3953.628     8097.613     2848.694        2.095        0.745      163.657       49.570        0.092      348.925       28.975      859.645
06/08/2014  17:55:00       58.333      107.277       -7.874       64.353       53.950       44.402     4141.258     2910.596     1971.543        1.200        0.451      122.111       34.346        0.079      348.888       28.911      859.615
06/08/2014  17:56:00       51.967       70.930       10.973       40.034       41.787       33.892     1602.687     1746.160     1148.644        0.617        0.225       87.929       25.970        0.087      348.934       28.992      859.586
06/08/2014  17:57:00      185.818      127.189       26.530      117.873       78.417       59.111    13894.154     6149.294     3494.087        3.747        1.177      225.179       35.887        0.025      349.053       29.195      859.564
06/08/2014  17:58:00      148.284      114.825       12.021      101.573       77.744       54.610    10317.029     6044.139     2982.246        2.733        0.967      187.545       34.018        0.033      348.968       29.049      859.553
06/08/2014  17:59:00      141.356      105.922       13.859       71.023       52.895       38.054     5044.237     2797.888     1448.101        2.034        0.465      176.638       25.590        0.021      348.935       28.993      859.528
06/08/2014  18:00:00      -14.418      114.897      -19.483       62.970      100.673       36.094     3965.276    10135.053     1302.746        1.459        0.770      115.798       47.570        0.169      349.103       29.284      859.514
06/08/2014  18:01:00      -17.920      263.198      -40.974       79.273       63.911       32.995     6284.175     4084.590     1088.698        4.136        0.573      263.808       32.985        0.016      349.088       29.255      859.504
06/08/2014  18:02:00       52.425      197.582      -23.464       75.942      112.811       54.710     5767.233    12726.273     2993.201        3.191        1.074      204.419       60.559        0.088      349.128       29.325      859.485
06/08/2014  18:03:00       82.946      120.373       -7.433       83.147       53.710       42.948     6913.385     2884.757     1844.493        1.653        0.582      146.184       35.407        0.059      349.113       29.302      859.483
06/08/2014  18:04:00       88.682      180.592      -23.468       87.601      105.868       65.982     7673.940    11208.025     4353.598        3.213        1.162      201.191       64.402        0.102      348.979       29.068      859.469
06/08/2014  18:05:00      -86.202      288.030      -52.392      118.711      109.781       44.663    14092.277    12051.952     1994.794        6.063        1.407      300.653       49.518        0.027      349.012       29.124      859.447
06/08/2014  18:06:00     -117.683      182.039      -29.951       64.497       76.138       46.122     4159.802     5797.023     2127.195        2.998        0.604      216.766       40.017        0.034      349.082       29.246      859.431
06/08/2014  18:07:00      -15.878       45.938       20.062       77.829       45.674       41.101     6057.365     2086.112     1689.261        0.630        0.492       48.604       28.345        0.340      349.174       29.409      859.431
06/08/2014  18:08:00      128.544       33.609       18.840       53.460       45.236       35.327     2857.922     2046.333     1247.976        1.208        0.308      132.865       27.878        0.044      349.227       29.500      859.449
06/08/2014  18:09:00       87.210       53.519       46.247       76.639       64.758       45.749     5873.568     4193.652     2092.940        1.238        0.608      102.322       26.061        0.065      349.342       29.699      859.438
06/08/2014  18:10:00      184.930      116.306       26.713       90.082       88.226       53.947     8114.815     7783.824     2910.332        3.362        0.940      218.463       36.224        0.027      349.151       29.368      859.440
06/08/2014  18:11:00      217.414      110.095       27.482       83.825       66.805       50.836     7026.658     4462.959     2584.327        3.711        0.704      243.700       34.829        0.020      348.914       28.954      859.433
06/08/2014  18:12:00      117.003       37.877       14.730      104.351       63.180       40.365    10889.189     3991.682     1629.318        1.592        0.826      122.981       29.493        0.058      349.156       29.377      859.434
06/08/2014  18:13:00       85.766       66.036       15.378       50.657       30.020       33.194     2566.100      901.227     1101.862        0.826        0.228      108.244       14.200        0.017      349.018       29.139      859.430
06/08/2014  18:14:00       81.944       53.617        1.787       26.595       34.547       22.031      707.319     1193.501      485.380        0.599        0.119       97.926       11.979        0.015      348.961       29.039      859.418
06/08/2014  18:15:00       66.150       64.787        4.177       65.290       54.391       37.581     4262.787     2958.430     1412.308        0.861        0.432       92.591       31.066        0.113      349.031       29.161      859.400
06/08/2014  18:16:00       53.776       98.633       -9.974       55.973       51.107       34.578     3132.943     2611.968     1195.664        0.983        0.347      112.340       32.048        0.081      348.993       29.095      859.389
06/08/2014  18:17:00       58.950       68.413       -3.537       55.217       51.997       35.437     3048.941     2703.711     1255.751        0.759        0.350       90.307       27.894        0.095      349.042       29.180      859.383
06/08/2014  18:18:00      183.137      135.299       33.620       64.989       49.244       41.257     4223.633     2425.004     1702.112        3.066        0.418      227.695       29.489        0.017      349.044       29.180      859.369
06/08/2014  18:19:00      156.752       93.131       37.858       80.841       58.518       50.014     6535.191     3424.324     2501.436        2.357        0.623      182.331       15.024        0.007      349.102       29.281      859.371
06/08/2014  18:20:00      137.158       80.351       42.776       52.945       43.367       39.945     2803.213     1880.669     1595.629        1.669        0.314      158.961       27.040        0.029      349.113       29.301      859.364
06/08/2014  18:21:00       85.950      -44.093       16.114       62.379       89.746       37.878     3891.163     8054.313     1434.715        1.148        0.669       96.600       21.040        0.047      349.270       29.574      859.351
06/08/2014  18:22:00       88.032       -6.123       12.490       52.817      101.559       50.978     2789.584    10314.327     2598.783        1.182        0.785       88.245       33.307        0.142      349.135       29.339      859.354
06/08/2014  18:23:00      179.569      149.753       20.983      115.887       91.173       67.207    13429.744     8312.603     4516.732        4.068        1.313      233.818       30.451        0.017      349.046       29.182      859.379
06/08/2014  18:24:00      239.145      146.419       23.850      109.504       81.675       65.336    11991.045     6670.812     4268.790        5.106        1.147      280.409       37.976        0.018      348.965       29.042      859.356
06/08/2014  18:25:00      216.802      153.826       26.758      130.278       81.821       58.886    16972.293     6694.744     3467.571        4.925        1.357      265.830       37.734        0.020      348.992       29.089      859.364
06/08/2014  18:26:00      215.660      120.692       25.312      109.156       75.982       52.121    11914.993     5773.281     2716.605        4.106        1.020      247.135       44.215        0.032      349.154       29.371      859.372
06/08/2014  18:27:00      157.353      115.060       51.055       94.699       81.561       68.758     8967.950     6652.176     4727.649        3.047        1.017      194.932       53.204        0.074      349.080       29.243      859.376
06/08/2014  18:28:00      165.671      141.929       16.744      101.909       66.658       60.927    10385.442     4443.348     3712.122        3.320        0.927      218.153       32.629        0.022      348.915       28.956      859.374
06/08/2014  18:29:00       65.890      120.472        3.588       72.555       58.508       41.642     5264.240     3423.154     1734.085        1.464        0.521      137.313       39.999        0.085      348.942       29.005      859.369
06/08/2014  18:30:00      131.983       98.382       11.295       62.016       34.211       30.191     3845.949     1170.392      911.484        1.658        0.296      164.616       21.248        0.017      348.975       29.060      859.371
06/08/2014  18:31:00      129.295       89.858       26.697       73.022       60.294       41.813     5332.221     3635.359     1748.331        1.811        0.536      157.453       30.103        0.037      349.052       29.196      859.378
06/08/2014  18:32:00      223.912      136.153       37.480       94.256       84.056       69.435     8884.118     7065.388     4821.168        4.542        1.039      262.058       43.887        0.028      349.047       29.184      859.382
06/08/2014  18:33:00      185.484      148.345       16.242      108.395       75.918       76.301    11749.402     5763.518     5821.872        4.000        1.167      237.509       51.662        0.047      348.990       29.085      859.384
06/08/2014  18:34:00      173.566      131.202       14.742       95.111       59.278       48.705     9046.091     3513.827     2372.189        3.124        0.747      217.576       28.501        0.017      349.013       29.129      859.377
06/08/2014  18:35:00       99.473       88.490        8.924       70.965       68.380       56.814     5035.995     4675.860     3227.885        1.537        0.647      133.137       49.979        0.141      349.031       29.158      859.371
06/08/2014  18:36:00       91.434      122.250      -13.577       61.816       77.751       41.956     3821.159     6045.233     1760.289        1.756        0.581      152.661       41.876        0.075      349.036       29.168      859.369
06/08/2014  18:37:00      159.452       92.264       27.601       87.889       58.761       49.256     7724.542     3452.863     2426.120        2.415        0.680      184.222       40.154        0.048      349.022       29.142      859.375
06/08/2014  18:38:00       83.697       42.490       21.992       93.847       53.919       35.939     8807.209     2907.217     1291.634        1.115        0.650       93.865       11.366        0.015      349.069       29.226      859.368
06/08/2014  18:39:00      172.542      136.114       25.862       95.440       70.006       51.942     9108.722     4900.856     2697.953        3.283        0.835      219.768       43.955        0.040      348.969       29.049      859.380
06/08/2014  18:40:00      160.732      128.831        9.228       81.062       50.013       42.462     6571.048     2501.273     1803.053        2.669        0.544      205.991       22.905        0.012      348.978       29.068      859.380
06/08/2014  18:41:00       71.981       75.713       -4.256       51.540       56.241       35.889     2656.325     3163.058     1288.053        0.902        0.355      104.469       30.809        0.087      349.023       29.148      859.375
06/08/2014  18:42:00       46.379       78.588        0.964       48.768       51.959       27.751     2378.338     2699.745      770.107        0.709        0.292       91.253       28.221        0.096      349.034       29.166      859.374
06/08/2014  18:43:00       40.652      101.476       -5.706       42.997       51.433       38.230     1848.747     2645.314     1461.507        0.897        0.298      109.316       33.115        0.092      349.020       29.142      859.378
06/08/2014  18:44:00       44.778       77.859       -6.622       39.152       54.053       31.910     1532.866     2921.756     1018.238        0.679        0.274       89.817       24.030        0.072      349.020       29.142      859.382
06/08/2014  18:45:00       46.869       76.027       -5.187       50.332       67.921       45.274     2533.287     4613.257     2049.777        0.860        0.460       89.313       36.334        0.166      348.977       29.066      859.376
06/08/2014  18:46:00      101.272       83.836        8.939       59.531       46.883       33.855     3543.910     2198.013     1146.176        1.212        0.344      131.470       21.894        0.028      348.943       29.007      859.372
06/08/2014  18:47:00       87.693       72.984        0.849       66.661       36.976       29.582     4443.749     1367.249      875.073        0.985        0.334      114.091       24.174        0.045      348.954       29.026      859.368
06/08/2014  18:48:00       96.084       87.097       -4.993       57.960       50.917       41.911     3359.368     2592.522     1756.500        1.227        0.385      129.684       33.509        0.067      348.957       29.032      859.368
06/08/2014  18:49:00      111.205       58.003       19.149       31.828       27.164       26.591     1013.049      737.859      707.093        0.928        0.123      125.423       14.080        0.013      349.015       29.134      859.361
06/08/2014  18:50:00      123.309       96.598       16.118       60.373       54.155       51.744     3644.925     2932.817     2677.424        1.702        0.463      156.640       39.520        0.064      348.987       29.083      859.357
06/08/2014  18:51:00       54.642      102.778      -16.722       36.505       71.563       24.593     1332.602     5121.317      604.834        1.044        0.353      116.400       31.353        0.073      349.036       29.169      859.364
06/08/2014  18:52:00       36.878      141.246      -23.627       30.572       37.220       24.783      934.634     1385.349      614.186        1.240        0.147      145.981       23.008        0.025      348.957       29.032      859.365
06/08/2014  18:53:00       46.449       96.503      -16.269       38.614       61.137       31.745     1491.031     3737.709     1007.741        0.898        0.312      107.100       29.980        0.078      348.962       29.042      859.370
06/08/2014  18:54:00       12.286      140.176      -27.355       27.119       27.052       12.968      735.415      731.812      168.177        1.109        0.082      140.714       13.007        0.009      348.974       29.060      859.365
06/08/2014  18:55:00      -11.586      115.786      -23.020       24.222       32.609       13.655      586.706     1063.370      186.465        0.795        0.092      116.364        8.858        0.006      348.970       29.051      859.360
06/08/2014  18:56:00      -41.761      125.681      -23.221       31.589       33.684       19.545      997.869     1134.630      382.019        1.030        0.126      132.437       14.093        0.011      348.904       28.940      859.358
06/08/2014  18:57:00      -56.252       73.127      -28.286       19.726       18.789        7.871      389.124      353.044       61.947        0.506        0.040       92.260        8.013        0.008      348.920       28.969      859.353
06/08/2014  18:58:00      -43.950       51.871      -12.940       13.582       23.005       14.123      184.478      529.250      199.461        0.285        0.046       67.987       11.579        0.029      349.033       29.163      859.344
06/08/2014  18:59:00      -71.517       40.379        1.199       26.945       16.130       18.299      726.020      260.162      334.870        0.403        0.066       82.128       13.490        0.027      349.051       29.197      859.353
06/08/2014  19:00:00      -45.018       12.874       -2.530       28.267       14.676       18.092      799.003      215.399      327.322        0.177        0.067       46.823       18.593        0.158      349.306       29.637      859.356
06/08/2014  19:01:00       -0.672       10.375       17.937       19.606       17.133       10.932      384.396      293.552      119.505        0.061        0.040       10.397       10.987        1.117      349.143       29.354      859.355
06/08/2014  19:02:00       16.499        7.050       17.599       14.016       13.497       10.599      196.440      182.170      112.337        0.056        0.025       17.942        6.411        0.128      349.039       29.175      859.359
06/08/2014  19:03:00       27.594       32.893       11.935       14.169       11.502       14.142      200.753      132.290      199.999        0.126        0.027       42.935       10.517        0.060      348.909       28.948      859.359
06/08/2014  19:04:00       15.267       50.741       -7.922       28.282       24.180       17.341      799.870      584.656      300.703        0.228        0.084       52.988       18.127        0.117      348.962       29.040      859.366
06/08/2014  19:05:00       30.737       57.580       -1.981       33.842       39.494       26.851     1145.263     1559.742      720.999        0.384        0.171       65.271       25.912        0.158      348.970       29.053      859.369
06/08/2014  19:06:00       73.093       79.498       11.836       42.293       46.845       35.426     1788.690     2194.464     1254.994        0.852        0.262      107.993       33.220        0.095      348.946       29.013      859.369
06/08/2014  19:07:00       87.307       34.824       45.175       93.597       39.736       45.597     8760.344     1578.945     2079.056        1.164        0.621       93.996       46.733        0.247      348.840       28.828      859.367
06/08/2014  19:08:00        9.160       14.833       32.665       54.262       36.609       39.745     2944.374     1340.239     1579.679        0.362        0.293       17.433       32.988        3.581      348.895       28.926      859.370
06/08/2014  19:09:00       56.051       50.419        4.925       47.258       27.484       26.630     2233.272      755.349      709.176        0.470        0.185       75.391       14.132        0.035      348.912       28.955      859.382
06/08/2014  19:10:00      183.817      107.894       37.470       79.933       66.511       32.295     6389.329     4423.696     1042.949        2.934        0.593      213.143       11.107        0.003      348.954       29.025      859.383
06/08/2014  19:11:00      180.004      109.885       19.079       61.227       59.675       46.866     3748.728     3561.157     2196.451        2.717        0.475      210.894       33.123        0.025      348.927       28.976      859.381
06/08/2014  19:12:00      103.757       69.002        3.628       73.407       48.884       41.952     5388.569     2389.624     1760.011        1.254        0.477      124.606       30.300        0.059      348.919       28.966      859.391
06/08/2014  19:13:00      118.132       81.828       10.067       47.976       32.318       30.196     2301.709     1044.450      911.822        1.250        0.213      143.705       16.243        0.013      348.880       28.899      859.396
06/08/2014  19:14:00       92.234       61.281        0.195       61.869       35.927       27.917     3827.806     1290.732      779.349        0.908        0.295      110.735       25.222        0.052      348.898       28.929      859.397
06/08/2014  19:15:00       79.529       46.817        9.335       22.471       26.716       35.614      504.936      713.719     1268.372        0.554        0.124       92.286       14.433        0.024      348.930       28.984      859.398
06/08/2014  19:16:00       31.022       29.633        1.449       35.105       23.220       20.570     1232.349      539.179      423.119        0.202        0.110       42.900       18.425        0.184      348.943       29.009      859.397
06/08/2014  19:17:00       61.568       45.727       -4.505       55.376       31.654       31.680     3066.460     1001.978     1003.611        0.549        0.254       76.691       23.456        0.094      348.894       28.921      859.403
06/08/2014  19:18:00      120.662       52.778        8.121       40.394       34.329       24.605     1631.673     1178.464      605.410        1.041        0.171      131.700       15.621        0.014      348.864       28.873      859.406
06/08/2014  19:19:00      110.880       10.664        3.740       42.437       52.491       29.367     1800.868     2755.291      862.394        0.892        0.271      111.392       12.690        0.013      348.871       28.884      859.406
06/08/2014  19:20:00       69.921        3.943       50.406       53.665       47.596       41.361     2879.945     2265.425     1710.748        0.715        0.343       70.032       34.872        0.248      348.920       28.968      859.401
06/08/2014  19:21:00       78.985       41.181       37.341       59.941       54.953       42.705     3592.977     3019.798     1823.686        0.888        0.422       89.076       33.630        0.143      348.935       28.994      859.402
06/08/2014  19:22:00       97.958       25.550       28.929       57.252       45.119       40.607     3277.806     2035.715     1648.921        0.902        0.348      101.236       23.606        0.054      348.865       28.873      859.401
06/08/2014  19:23:00       81.969       49.910       11.445       45.227       41.246       31.482     2045.442     1701.229      991.087        0.704        0.237       95.969       21.659        0.051      348.868       28.877      859.417
06/08/2014  19:24:00       86.428       70.927       16.189       68.004       35.155       28.987     4624.549     1235.872      840.229        0.973        0.335      111.805       15.071        0.018      348.858       28.861      859.422
06/08/2014  19:25:00       52.753       45.814        4.165       31.461       31.215       22.803      989.780      974.378      519.960        0.369        0.124       69.870       18.251        0.068      348.825       28.804      859.429
06/08/2014  19:26:00       24.377       58.471       -5.367       27.030       38.433       20.611      730.604     1477.094      424.826        0.334        0.132       63.349       15.191        0.058      348.873       28.887      859.435
06/08/2014  19:27:00       56.820       38.210       10.040       30.587       18.441       20.299      935.538      340.086      412.059        0.324        0.084       68.472       16.221        0.056      348.838       28.824      859.441
06/08/2014  19:28:00       38.065       32.482       -3.273       27.619       25.669       15.260      762.812      658.891      232.860        0.208        0.083       50.040       13.178        0.069      348.732       28.643      859.452
06/08/2014  19:29:00       79.973       39.739       -3.043       50.494       40.013       33.263     2549.638     1601.007     1106.407        0.662        0.263       89.302       20.890        0.055      348.774       28.714      859.450
06/08/2014  19:30:00       33.681       10.165       20.435       28.175       33.327       19.266      793.818     1110.697      371.196        0.197        0.114       35.181       10.557        0.090      348.728       28.636      859.446
06/08/2014  19:31:00       69.875        6.257       30.161       44.605       51.735       37.542     1989.574     2676.537     1409.389        0.595        0.304       70.155       17.064        0.059      348.645       28.493      859.453
06/08/2014  19:32:00      102.070       67.225       43.783       39.143       31.725       32.199     1532.194     1006.464     1036.750        1.021        0.179      122.219       23.374        0.037      348.764       28.698      859.463
06/08/2014  19:33:00       81.800       42.122       41.850       44.241       22.983       29.415     1957.270      528.214      865.245        0.678        0.168       92.008       25.026        0.074      348.728       28.635      859.470
06/08/2014  19:34:00      100.605       18.504       18.419       53.205       49.031       41.178     2830.764     2404.001     1695.622        0.887        0.347      102.292       31.903        0.097      348.758       28.688      859.470
06/08/2014  19:35:00       70.208       33.413       33.961       45.698       37.613       25.137     2088.308     1414.708      631.878        0.567        0.207       77.753       18.621        0.057      348.695       28.578      859.472
06/08/2014  19:36:00       87.033       23.649       18.005       47.693       32.495       33.095     2274.629     1055.942     1095.268        0.644        0.221       90.189       26.793        0.088      348.763       28.697      859.469
06/08/2014  19:37:00      138.343       53.620       30.094       66.650       31.341       38.642     4442.287      982.287     1493.192        1.492        0.346      148.371       35.378        0.057      348.833       28.815      859.466
06/08/2014  19:38:00      114.440       58.842       21.950       42.485       41.187       34.520     1804.988     1696.357     1191.635        1.087        0.235      128.681       25.788        0.040      348.831       28.813      859.467
06/08/2014  19:39:00       92.486       43.376        6.286       56.093       41.237       25.125     3146.424     1700.531      631.244        0.798        0.274      102.153       21.053        0.042      348.794       28.749      859.476
06/08/2014  19:40:00       57.981       37.380       10.101       24.857       18.785       17.905      617.846      352.890      320.575        0.308        0.065       68.986       13.979        0.041      348.677       28.546      859.484
06/08/2014  19:41:00       84.516       63.270       13.727       39.945       29.596       22.634     1595.582      875.905      512.306        0.716        0.149      105.575       17.208        0.027      348.637       28.477      859.482
06/08/2014  19:42:00      100.190       59.480       15.788       56.215       34.946       28.492     3160.169     1221.245      811.781        0.951        0.260      116.516       21.388        0.034      348.688       28.566      859.472
06/08/2014  19:43:00       89.040       55.500       20.356       44.959       34.750       28.368     2021.345     1207.578      804.746        0.773        0.202      104.921       19.258        0.034      348.558       28.341      859.467
06/08/2014  19:44:00       63.417      117.977       -4.191       73.767       62.038       56.864     5441.591     3848.695     3233.513        1.524        0.626      133.941       45.757        0.117      348.614       28.437      859.471
06/08/2014  19:45:00      169.768       97.520       18.461       69.428       64.397       43.316     4820.272     4147.035     1876.308        2.476        0.542      195.784       25.886        0.017      348.576       28.370      859.483
06/08/2014  19:46:00       90.834       77.998        6.818       63.264       59.914       40.354     4002.304     3589.641     1628.477        1.180        0.461      119.727       34.695        0.084      348.479       28.204      859.484
06/08/2014  19:47:00       80.801      129.833       -0.856       57.066       81.146       49.845     3256.504     6584.665     2484.537        1.785        0.616      152.923       46.846        0.094      348.491       28.225      859.480
06/08/2014  19:48:00       57.125      104.563       -6.202       51.995       73.071       36.525     2703.507     5339.365     1334.060        1.180        0.469      119.150       42.544        0.127      348.449       28.153      859.485
06/08/2014  19:49:00       35.748      122.836      -13.128       54.670      108.221       43.707     2988.850    11711.824     1910.330        1.657        0.831      127.932       49.209        0.148      348.460       28.172      859.488
06/08/2014  19:50:00      119.468       93.984       11.328       67.190       39.899       44.183     4514.493     1591.950     1952.178        1.564        0.403      152.005       37.249        0.060      348.492       28.226      859.497
06/08/2014  19:51:00       51.116       95.066       -7.184       59.753       51.634       35.838     3570.396     2666.054     1284.383        0.961        0.376      107.938       33.816        0.098      348.469       28.187      859.499
06/08/2014  19:52:00       42.737       60.694      -10.149       33.553       35.251       20.830     1125.780     1242.645      433.901        0.421        0.140       74.231       19.942        0.072      348.414       28.094      859.508
06/08/2014  19:53:00       58.587       65.366        2.947       39.476       49.885       25.973     1558.359     2488.548      674.587        0.622        0.236       87.779       26.350        0.090      348.422       28.106      859.512
06/08/2014  19:54:00       73.775       44.074        6.134       39.659       41.621       24.432     1572.854     1732.318      596.935        0.566        0.195       85.937       21.862        0.065      348.268       27.839      859.527
06/08/2014  19:55:00       98.388       52.646       12.753       53.367       28.020       33.985     2848.083      785.129     1154.965        0.870        0.239      111.588       14.320        0.016      348.295       27.886      859.540
06/08/2014  19:56:00      140.746       58.959       16.009      101.360       45.627       52.088    10273.885     2081.837     2713.201        1.930        0.753      152.596       25.950        0.029      348.345       27.971      859.534
06/08/2014  19:57:00       70.497       73.803       -5.701       45.087       44.915       29.447     2032.873     2017.382      867.120        0.768        0.246      102.062       24.752        0.059      348.208       27.737      859.547
06/08/2014  19:58:00       67.419      111.181       -5.365       60.888       79.901       52.683     3707.344     6384.194     2775.497        1.490        0.643      130.025       44.193        0.116      348.343       27.968      859.557
06/08/2014  19:59:00       92.309       91.503       -5.432       56.133       42.883       42.725     3150.945     1838.992     1825.460        1.187        0.341      129.976       29.769        0.052      348.296       27.889      859.571
06/08/2014  20:00:00       63.462       68.946      -11.689       38.205       46.994       24.952     1459.614     2208.429      622.595        0.660        0.215       93.707       21.963        0.055      348.257       27.820      859.575
06/08/2014  20:01:00       48.376       50.934        9.045       49.439       36.063       29.523     2444.211     1300.504      871.611        0.482        0.231       70.246       20.734        0.087      348.250       27.808      859.584
06/08/2014  20:02:00       61.937       55.799       -0.410       42.102       30.717       24.663     1772.560      943.516      608.243        0.514        0.166       83.364       20.362        0.060      348.183       27.694      859.594
06/08/2014  20:03:00       82.633      113.767        6.188       78.704       58.103       50.788     6194.277     3376.006     2579.402        1.598        0.607      140.610       41.168        0.086      348.325       27.938      859.590
06/08/2014  20:04:00       43.978       65.336       17.044       59.956       50.544       43.839     3594.719     2554.736     1921.882        0.728        0.404       78.758       33.093        0.177      348.247       27.804      859.589
06/08/2014  20:05:00       18.759       80.045        2.145       35.603       62.745       31.409     1267.547     3936.919      986.532        0.648        0.310       82.214       36.321        0.195      348.166       27.664      859.604
06/08/2014  20:06:00       37.644      131.169      -15.305       40.242       74.304       37.675     1619.456     5521.129     1419.396        1.371        0.428      136.464       45.296        0.110      348.205       27.730      859.597
06/08/2014  20:07:00       30.963       59.303        8.919       41.168       55.838       35.185     1694.813     3117.909     1237.982        0.530        0.303       66.899       33.964        0.258      348.122       27.588      859.603
06/08/2014  20:08:00       50.888       85.288       13.034       44.767       54.915       43.090     2004.128     3015.602     1856.732        0.845        0.344       99.316       38.616        0.151      348.158       27.650      859.602
06/08/2014  20:09:00       25.161       89.167        3.798       41.816       62.435       33.742     1748.556     3898.069     1138.509        0.769        0.339       92.649       32.044        0.120      348.106       27.560      859.610
06/08/2014  20:10:00       36.733      176.173      -29.353       55.326       77.988       40.002     3060.992     6082.073     1600.155        2.199        0.537      179.962       45.113        0.063      348.164       27.657      859.623
06/08/2014  20:11:00       28.533      103.862      -16.585       31.069       55.526       30.405      965.309     3083.170      924.440        0.842        0.249      107.710       30.782        0.082      348.095       27.541      859.620
06/08/2014  20:12:00       33.050      179.175       -9.251       64.393       88.719       57.314     4146.477     7871.016     3284.851        2.429        0.765      182.198       54.141        0.088      348.251       27.809      859.633
06/08/2014  20:13:00       11.838      242.450      -36.443       65.473       80.431       42.895     4286.731     6469.169     1840.019        3.642        0.630      242.739       44.374        0.033      348.237       27.782      859.637
06/08/2014  20:14:00       22.723      251.692      -39.608       37.783       55.488       30.088     1427.572     3078.967      905.311        3.542        0.271      252.716       25.762        0.010      348.300       27.892      859.661
06/08/2014  20:15:00       57.938      149.136      -20.613       52.533       67.915       43.443     2759.744     4612.501     1887.316        1.764        0.463      159.995       38.220        0.057      348.320       27.930      859.663
06/08/2014  20:16:00      129.505       76.185        5.372       47.122       35.738       33.061     2220.484     1277.195     1093.043        1.360        0.230      150.252       20.218        0.018      348.307       27.907      859.663
06/08/2014  20:17:00       47.447       96.034       -4.266       48.048       64.486       31.847     2308.587     4158.443     1014.234        0.949        0.374      107.115       39.316        0.135      348.166       27.663      859.682
06/08/2014  20:18:00       35.861      178.258      -29.095       28.675       46.819       29.041      822.233     2192.040      843.390        1.888        0.193      181.830       26.190        0.021      348.268       27.838      859.694
06/08/2014  20:19:00       51.823       72.333        4.706       48.268       58.843       43.442     2329.809     3462.463     1887.244        0.781        0.384       88.981       40.864        0.211      348.179       27.686      859.691
06/08/2014  20:20:00       49.670       84.608       -7.633       33.126       40.246       32.544     1097.337     1619.777     1059.141        0.673        0.189       98.110       21.992        0.050      348.193       27.709      859.701
06/08/2014  20:21:00       50.472       57.440       18.526       44.991       45.463       38.551     2024.167     2066.848     1486.174        0.588        0.279       76.465       26.887        0.124      348.158       27.650      859.704
06/08/2014  20:22:00       41.861       65.015       -9.603       24.282       29.177       19.556      589.622      851.304      382.440        0.395        0.091       77.326       16.557        0.046      348.058       27.477      859.709
06/08/2014  20:23:00       35.539       77.044       -1.137       37.130       40.222       25.289     1378.648     1617.804      639.529        0.542        0.182       84.846       23.400        0.076      348.043       27.452      859.720
06/08/2014  20:24:00       54.077       65.622       -3.353       29.345       34.225       22.660      861.108     1171.352      513.490        0.489        0.127       85.033       13.327        0.025      348.008       27.390      859.727
06/08/2014  20:25:00       53.890       39.637        8.673       36.520       34.777       28.582     1333.679     1209.433      816.953        0.395        0.168       66.897       20.214        0.091      347.938       27.269      859.728
06/08/2014  20:26:00       44.406       52.623       -3.592       37.084       40.984       28.556     1375.223     1679.694      815.442        0.431        0.194       68.856       22.577        0.108      347.890       27.186      859.739
06/08/2014  20:27:00       72.602       67.783        7.323       41.615       27.810       24.513     1731.836      773.407      600.902        0.651        0.155       99.326       17.072        0.030      347.925       27.246      859.742
06/08/2014  20:28:00       92.866       50.925       21.872       51.255       26.711       22.561     2627.104      713.472      508.979        0.777        0.192      105.912       20.415        0.037      347.871       27.153      859.754
06/08/2014  20:29:00       52.902       48.867        9.171       34.330       28.119       22.273     1178.572      790.671      496.105        0.387        0.123       72.018        4.661        0.004      347.832       27.087      859.758
06/08/2014  20:30:00       83.127       51.666       13.405       28.854       25.012       19.299      832.576      625.618      372.469        0.579        0.092       97.875       10.874        0.012      347.825       27.074      859.773
06/08/2014  20:31:00       74.770       57.851       20.893       31.567       28.187       23.291      996.479      794.520      542.471        0.585        0.117       94.537       12.427        0.017      347.908       27.218      859.784
06/08/2014  20:32:00       50.371       29.269       14.046       26.256       19.576       16.153      689.384      383.233      260.926        0.246        0.067       58.257        8.921        0.023      347.733       26.915      859.802
06/08/2014  20:33:00       60.497       15.582       10.619       36.715       23.706       16.505     1347.995      561.956      272.418        0.310        0.109       62.472       12.348        0.039      347.550       26.601      859.820
06/08/2014  20:34:00       54.191       27.858       17.383       33.472       25.492       20.087     1120.347      649.827      403.469        0.309        0.109       60.932       16.034        0.069      347.511       26.533      859.830
06/08/2014  20:35:00       57.066       15.796       14.467       38.839       22.203       24.478     1508.481      492.953      599.168        0.316        0.130       59.212       18.832        0.101      347.609       26.702      859.852
06/08/2014  20:36:00       69.131       42.374       19.667       29.184       23.926       18.717      851.692      572.450      350.319        0.437        0.089       81.085       12.214        0.023      347.769       26.978      859.866
06/08/2014  20:37:00       76.260       52.014       28.478       46.514       30.279       21.835     2163.557      916.841      476.773        0.644        0.178       92.310       17.257        0.035      347.725       26.902      859.887
06/08/2014  20:38:00      103.250       74.087       20.107       38.765       23.771       24.487     1502.749      565.080      599.610        0.961        0.133      127.080       19.155        0.023      347.851       27.121      859.894
06/08/2014  20:39:00       81.755       47.853       25.556       28.947       25.155       23.667      837.935      632.751      560.112        0.583        0.102       94.730       17.113        0.033      347.835       27.091      859.898
06/08/2014  20:40:00       47.863       53.561        2.317       34.812       26.941       24.238     1211.866      725.836      587.484        0.384        0.126       71.831       21.787        0.092      347.877       27.164      859.901
06/08/2014  20:41:00       31.131       28.057       13.914       40.702       24.958       20.396     1656.684      622.892      415.997        0.232        0.135       41.909       14.111        0.113      347.949       27.289      859.890
06/08/2014  20:42:00       53.162       53.989        6.993       39.949       30.227       28.452     1595.956      913.693      809.499        0.455        0.166       75.770       23.656        0.097      347.844       27.108      859.908
06/08/2014  20:43:00       41.866       26.338        5.139       26.294       20.212       16.056      691.361      408.506      257.788        0.191        0.068       49.462       13.478        0.074      347.721       26.895      859.922
06/08/2014  20:44:00       16.085       46.730        0.310       17.069       30.177       13.644      291.338      910.663      186.162        0.192        0.069       49.421       11.820        0.057      347.679       26.822      859.929
06/08/2014  20:45:00       -6.560       66.802      -13.233       23.326       18.563        8.926      544.087      344.591       79.680        0.282        0.048       67.123        2.741        0.002      347.825       27.076      859.938
06/08/2014  20:46:00      -22.299       62.215       -9.660       21.942       23.165       12.156      481.436      536.605      147.774        0.281        0.058       66.090       12.401        0.035      347.628       26.736      859.950
06/08/2014  20:47:00       20.657       12.527        1.123       27.982       42.953       23.216      782.971     1844.990      539.005        0.188        0.158       24.158       17.856        0.546      347.418       26.372      859.968
06/08/2014  20:48:00       17.613      -37.560      -10.213       12.764       19.498       10.776      162.908      380.185      116.114        0.124        0.033       41.485        8.044        0.038      347.405       26.348      859.986
06/08/2014  20:49:00      -21.098       -6.131        6.421       13.103       13.416       11.570      171.696      179.994      133.876        0.050        0.024       21.971       11.060        0.253      347.746       26.940      859.985
06/08/2014  20:50:00       -4.886      -20.817       -1.004       10.134        6.009        8.654      102.698       36.110       74.899        0.034        0.011       21.382        5.279        0.061      347.765       26.973      859.992
06/08/2014  20:51:00      -25.255      -14.732       -2.494       11.081       11.097        7.208      122.786      123.154       51.959        0.058        0.015       29.238        6.437        0.048      347.722       26.900      860.000
06/08/2014  20:52:00        1.440        2.983       -6.075       19.303        9.130        6.794      372.612       83.357       46.162        0.027        0.025        3.312        7.187        4.708      347.695       26.855      860.016
06/08/2014  20:53:00      115.636       37.660       29.038       58.844       49.400       26.383     3462.647     2440.315      696.054        1.111        0.330      121.614       20.891        0.030      347.838       27.095      860.026
06/08/2014  20:54:00      105.095       53.358       33.700       30.835       22.886       25.846      950.787      523.776      668.037        0.858        0.107      117.865       15.481        0.017      347.925       27.247      860.036
06/08/2014  20:55:00       67.901       25.479       23.894       34.408       24.641       22.317     1183.907      607.166      498.040        0.406        0.114       72.524       19.316        0.071      347.724       26.901      860.039
06/08/2014  20:56:00       55.849       30.574       22.355       34.049       24.998       24.893     1159.362      624.901      619.679        0.348        0.120       63.670       23.682        0.138      347.781       26.999      860.055
06/08/2014  20:57:00       21.574       38.098        5.620       26.984       26.731       13.142      728.146      714.538      172.716        0.178        0.081       43.782        9.257        0.045      347.571       26.635      860.069
06/08/2014  20:58:00       21.209       21.510        0.719       20.106       19.262       12.964      404.251      371.038      168.076        0.093        0.047       30.207        8.218        0.074      347.631       26.742      860.077
06/08/2014  20:59:00       63.037       50.359       13.145       37.094       26.178       17.970     1375.987      685.313      322.906        0.453        0.119       80.683       10.679        0.018      347.673       26.812      860.093
06/08/2014  21:00:00       43.788       48.882        0.035       28.339       26.091       22.584      803.107      680.763      510.056        0.315        0.100       65.626       14.709        0.050      347.688       26.839      860.099
06/08/2014  21:01:00       12.054       83.602       -7.231       16.622       18.329        8.399      276.302      335.953       70.548        0.393        0.034       84.466        9.401        0.012      347.692       26.844      860.111
06/08/2014  21:02:00        4.097      105.192      -13.701       16.359       17.335        9.946      267.608      300.497       98.923        0.597        0.033      105.272        7.296        0.005      347.742       26.931      860.123
06/08/2014  21:03:00       -9.354      131.468      -19.833       20.700       22.389       11.339      428.500      501.281      128.565        0.941        0.053      131.801        8.995        0.005      347.831       27.084      860.140
06/08/2014  21:04:00      -21.023      135.953      -17.341       20.395       18.820       11.038      415.949      354.180      121.846        1.006        0.045      137.569        9.295        0.005      347.830       27.084      860.150
06/08/2014  21:05:00       22.371      144.570      -20.536       33.376       25.438       15.943     1113.939      647.072      254.181        1.192        0.101      146.290       13.207        0.008      347.959       27.307      860.161
06/08/2014  21:06:00       21.330      143.733      -23.964       32.203       30.295       18.716     1037.059      917.762      350.295        1.200        0.115      145.308       17.536        0.015      347.789       27.012      860.168
06/08/2014  21:07:00       32.645       65.563        1.203       24.855       29.778       25.484      617.757      886.753      649.439        0.376        0.108       73.241       21.764        0.088      347.614       26.712      860.173
06/08/2014  21:08:00       23.666      113.391      -20.305       25.352       30.801       14.399      642.740      948.713      207.338        0.781        0.090      115.834       16.672        0.021      347.750       26.944      860.180
06/08/2014  21:09:00       38.228       96.168      -12.083       27.658       45.969       19.508      764.980     2113.112      380.575        0.706        0.163      103.487       17.973        0.030      347.605       26.695      860.189
06/08/2014  21:10:00       34.721       54.377        5.580       42.433       29.893       26.359     1800.554      893.611      694.794        0.379        0.169       64.517       20.121        0.097      347.536       26.576      860.196
06/08/2014  21:11:00       61.752       43.714        9.590       53.937       29.193       31.841     2909.169      852.253     1013.845        0.529        0.239       75.659       30.946        0.167      347.739       26.928      860.202
06/08/2014  21:12:00       55.626       56.544        7.715       36.113       32.341       25.634     1304.153     1045.951      657.106        0.468        0.150       79.319       18.564        0.055      347.746       26.938      860.215
06/08/2014  21:13:00       45.127       61.002        4.317       35.228       31.083       29.275     1241.039      966.150      857.033        0.442        0.153       75.879       19.877        0.069      347.625       26.730      860.217
06/08/2014  21:14:00       53.800       58.923        7.812       37.769       30.514       24.900     1426.464      931.094      620.032        0.470        0.149       79.790       21.379        0.072      347.724       26.902      860.231
06/08/2014  21:15:00       34.067       61.239        2.100       35.881       33.968       27.477     1287.476     1153.845      754.989        0.406        0.160       70.077       24.494        0.122      347.635       26.747      860.246
06/08/2014  21:16:00       73.442       49.403       20.124       57.877       33.480       32.170     3349.745     1120.913     1034.937        0.687        0.275       88.512       25.640        0.084      347.723       26.898      860.264
06/08/2014  21:17:00       17.638       47.097        5.323       24.412       34.815       19.151      595.921     1212.114      366.770        0.237        0.109       50.291       19.820        0.155      347.606       26.698      860.281
06/08/2014  21:18:00      -34.870        8.840      -11.586       26.904       47.096       13.230      723.813     2217.987      175.021        0.227        0.156       35.973        8.715        0.059      347.199       25.996      860.296
06/08/2014  21:19:00      -67.271      -54.472       -9.078       25.581       18.535       14.822      654.369      343.559      219.681        0.440        0.061       86.560        8.632        0.010      346.628       25.013      860.322
06/08/2014  21:20:00      -51.636      -48.649        1.221       39.074       23.330       12.094     1526.790      544.311      146.275        0.363        0.111       70.944       10.140        0.020      346.939       25.548      860.347
06/08/2014  21:21:00      -33.000      -70.551       -6.960       20.955       24.965       15.165      439.095      623.228      229.987        0.370        0.065       77.888        8.799        0.013      347.160       25.929      860.371
06/08/2014  21:22:00      -54.057      -33.474      -12.922       12.675       22.107       10.897      160.662      488.722      118.743        0.249        0.038       63.582        7.265        0.013      347.168       25.941      860.373
06/08/2014  21:23:00      -47.057      -27.001       -3.231       17.440       19.907       13.598      304.145      396.275      184.896        0.192        0.044       54.253       14.591        0.072      347.182       25.966      860.395
06/08/2014  21:24:00      -46.724      -11.415      -10.649        8.219        8.477        6.507       67.556       71.861       42.341        0.130        0.009       48.098        5.075        0.011      347.202       26.000      860.398
06/08/2014  21:25:00      -39.764      -14.970      -14.906       24.996       12.495       10.300      624.780      156.113      106.087        0.146        0.044       42.489        7.750        0.033      347.200       25.997      860.400
06/08/2014  21:26:00      -11.496      -43.502      -14.737       11.777       23.324       12.545      138.701      544.004      157.366        0.154        0.042       44.995       10.912        0.059      347.488       26.492      860.400
06/08/2014  21:27:00       -1.527      -43.556        8.745       17.491       19.945       15.963      305.943      397.813      254.807        0.147        0.048       43.583       14.640        0.113      347.426       26.387      860.400
06/08/2014  21:28:00      -75.515      -18.487       -7.148       14.878       21.982        6.597      221.361      483.209       43.526        0.342        0.037       77.746        6.129        0.006      347.199       25.994      860.397
06/08/2014  21:29:00      -58.081      -16.148       -9.691        7.998       16.222        7.516       63.963      263.142       56.484        0.206        0.019       60.284        5.195        0.007      347.195       25.989      860.403
06/08/2014  21:30:00      -43.282      -22.749       -9.591       13.513       12.752        9.107      182.595      162.625       82.941        0.146        0.021       48.896        5.989        0.015      347.291       26.153      860.416
06/08/2014  21:31:00      -57.478      -15.310      -11.271       12.919       13.599       10.930      166.892      184.922      119.471        0.207        0.024       59.482        5.191        0.008      346.786       25.284      860.430
06/08/2014  21:32:00      -44.053      -11.585       -8.618       13.788        9.726        7.599      190.101       94.604       57.739        0.125        0.017       45.551        5.567        0.015      346.919       25.513      860.441
06/08/2014  21:33:00      -36.446      -24.618       -8.880       11.385        9.585        7.581      129.610       91.866       57.479        0.115        0.014       43.982        2.434        0.003      346.831       25.362      860.449
06/08/2014  21:34:00      -56.893      -12.517      -11.860       12.936        7.550        7.768      167.337       57.006       60.335        0.191        0.014       58.254        6.897        0.014      346.806       25.320      860.451
06/08/2014  21:35:00      -54.166      -14.902       -7.967        7.501       12.048        7.788       56.263      145.163       60.652        0.174        0.013       56.178        4.590        0.007      346.742       25.209      860.454
06/08/2014  21:36:00      -69.871      -20.984      -12.254        9.059       11.602        5.965       82.071      134.602       35.577        0.286        0.013       72.954        4.876        0.004      346.543       24.866      860.460
06/08/2014  21:37:00      -83.066        3.649      -12.774       24.817       13.339       13.491      615.874      177.922      182.019        0.403        0.049       83.146       12.953        0.024      346.269       24.395      860.472
06/08/2014  21:38:00      -75.731       17.018      -17.116       19.912       19.474       12.843      396.496      379.240      164.937        0.363        0.047       77.619       10.361        0.018      346.231       24.329      860.480
06/08/2014  21:39:00      -61.646        0.401       -9.803       11.753       12.696        8.936      138.129      161.184       79.860        0.214        0.019       61.647        5.341        0.008      346.345       24.526      860.482
06/08/2014  21:40:00      -35.866        0.234       -6.429       12.951       10.708       10.187      167.724      114.659      103.780        0.086        0.019       35.866        8.389        0.055      346.407       24.632      860.492
06/08/2014  21:41:00      -42.333       22.235       -8.674        9.577       10.807        9.546       91.715      116.790       91.119        0.133        0.015       47.817        7.056        0.022      346.602       24.967      860.516
06/08/2014  21:42:00      -33.901      -15.116       -7.369       18.120       20.260        9.304      328.339      410.470       86.563        0.113        0.041       37.118        5.666        0.023      346.789       25.290      860.527
06/08/2014  21:43:00      -72.600      -39.176       -7.625       25.093       17.063       13.658      629.638      291.145      186.544        0.399        0.055       82.496        9.294        0.013      346.351       24.534      860.546
06/08/2014  21:44:00      -99.975      -35.635       -7.328       30.317       33.336       20.151      919.142     1111.262      406.055        0.688        0.122      106.136       12.139        0.013      346.143       24.179      860.552
06/08/2014  21:45:00      -99.816      -49.199       -8.833       54.931       24.932       21.023     3017.375      621.581      441.946        0.827        0.204      111.282       13.571        0.015      346.054       24.025      860.565
06/08/2014  21:46:00     -120.391      -50.228        0.030       51.677       47.199       22.834     2670.514     2227.747      521.413        1.122        0.271      130.449       22.189        0.029      346.074       24.060      860.567
06/08/2014  21:47:00     -130.029      -28.699       -2.045       43.882       33.128       26.099     1925.624     1097.495      681.146        1.072        0.185      133.159       26.114        0.038      346.197       24.270      860.578
06/08/2014  21:48:00     -157.635      -19.639       -8.941       46.044       33.470       24.589     2120.033     1120.240      604.619        1.458        0.192      158.854       26.997        0.029      346.359       24.550      860.582
06/08/2014  21:49:00     -143.384      -18.711       -8.752       38.613       26.158       26.234     1490.974      684.252      688.230        1.192        0.143      144.600       25.201        0.030      346.513       24.815      860.585
06/08/2014  21:50:00     -137.846      -15.179      -10.573       33.376       24.665       16.720     1113.968      608.345      279.566        1.067        0.100      138.680       15.875        0.013      346.345       24.527      860.596
06/08/2014  21:51:00      -89.277      -11.052       -3.316       37.232       37.124       21.828     1386.190     1378.219      476.456        0.567        0.162       89.959       22.336        0.062      346.140       24.172      860.596
06/08/2014  21:52:00     -137.096       11.773      -11.640       39.037       33.259       15.587     1523.849     1106.144      242.968        1.097        0.144      137.600       13.470        0.010      346.229       24.325      860.616
06/08/2014  21:53:00     -120.320      -14.039       -6.725       32.929       26.090       16.791     1084.347      680.671      281.939        0.838        0.102      121.137       16.107        0.018      346.138       24.169      860.617
06/08/2014  21:54:00      -80.236      -30.779        3.022       40.096       38.425       20.677     1607.721     1476.494      427.529        0.545        0.176       85.937       18.000        0.044      345.946       23.843      860.628
06/08/2014  21:55:00      -73.685       17.959       -3.724       52.562       25.693       24.142     2762.805      660.138      582.854        0.489        0.200       75.841       27.719        0.134      345.945       23.839      860.639
06/08/2014  21:56:00      -71.048      -10.146       -6.970       25.315       19.128       15.470      640.825      365.890      239.329        0.322        0.062       71.768       10.459        0.021      345.910       23.778      860.652
06/08/2014  21:57:00      -47.602      -19.815       -2.308       26.731       21.711       19.198      714.551      471.381      368.580        0.211        0.078       51.561        9.309        0.033      345.824       23.630      860.655
06/08/2014  21:58:00      -79.419      -30.755       -8.408       29.273       22.309       16.935      856.918      497.679      286.807        0.448        0.082       85.166        9.365        0.012      345.743       23.492      860.668
06/08/2014  21:59:00      -97.674      -18.737      -14.090       22.094       35.986       19.901      488.162     1295.022      396.055        0.613        0.109       99.455       11.858        0.014      345.679       23.382      860.670
06/08/2014  22:00:00      -45.284      -11.043       -4.557       39.266       31.194       21.605     1541.793      973.063      466.760        0.259        0.149       46.611       21.153        0.206      345.651       23.334      860.679
06/08/2014  22:01:00      -54.699       -0.179       -0.166       31.562       14.701       15.326      996.132      216.126      234.875        0.222        0.072       54.699       14.699        0.072      345.727       23.465      860.690
06/08/2014  22:02:00     -129.674      -11.479      -13.573       36.342       35.422       27.303     1320.752     1254.694      745.432        1.023        0.166      130.181       22.158        0.029      345.768       23.534      860.708
06/08/2014  22:03:00     -133.502      -59.824      -14.474       57.450       29.568       17.511     3300.488      874.291      306.618        1.305        0.224      146.293       14.854        0.010      345.722       23.455      860.716
06/08/2014  22:04:00     -150.272      -63.693       -4.672       37.113       33.284       20.326     1377.363     1107.798      413.163        1.478        0.145      163.213       16.764        0.011      345.725       23.462      860.734
06/08/2014  22:05:00     -133.305      -61.886       -1.909       43.218       27.672       16.821     1867.818      765.755      282.947        1.226        0.146      146.970       16.542        0.013      345.894       23.752      860.754
06/08/2014  22:06:00     -122.821      -41.322       -5.003       20.964       27.335       13.572      439.495      747.205      184.212        0.909        0.069      129.586        9.925        0.006      345.970       23.882      860.764
06/08/2014  22:07:00     -111.862      -24.526       -4.660       29.485       23.032       18.470      869.343      530.463      341.136        0.744        0.087      114.519       16.218        0.020      346.018       23.964      860.775
06/08/2014  22:08:00     -125.244      -47.681       -9.171       16.209       21.001       13.373      262.728      441.035      178.848        0.946        0.044      134.013        7.416        0.003      346.034       23.989      860.769
06/08/2014  22:09:00     -111.093      -29.213      -10.000       40.461       64.853       27.838     1637.110     4205.890      774.945        0.996        0.331      114.869       19.723        0.029      345.797       23.586      860.777
06/08/2014  22:10:00      -45.806       21.760        2.312       58.321       33.607       23.518     3401.336     1129.425      553.120        0.383        0.254       50.711       23.258        0.210      345.713       23.440      860.774
06/08/2014  22:11:00      -22.873       20.323       12.477       31.610       29.955       20.314      999.173      897.326      412.639        0.170        0.115       30.597       19.276        0.397      345.596       23.241      860.783
06/08/2014  22:12:00      -38.234      -18.851        1.140       30.827       43.450       19.666      950.334     1887.923      386.748        0.252        0.161       42.628       17.930        0.177      345.675       23.376      860.778
06/08/2014  22:13:00      -22.955      -20.453       -9.965       36.117       18.999       15.559     1304.407      360.958      242.083        0.148        0.095       30.745       18.407        0.358      345.677       23.377      860.792
06/08/2014  22:14:00     -123.162      -59.812       -8.432       49.164       21.558       19.196     2417.057      464.737      368.469        1.103        0.163      136.917       14.570        0.011      345.682       23.387      860.789
06/08/2014  22:15:00     -117.792      -35.921       -7.962       40.168       31.661       21.790     1613.476     1002.393      474.783        0.916        0.155      123.147       21.944        0.032      345.603       23.251      860.803
06/08/2014  22:16:00     -125.982      -52.766      -15.336       22.397       19.010       14.434      501.625      361.390      208.342        0.998        0.054      136.586        6.270        0.002      345.620       23.281      860.809
06/08/2014  22:17:00     -123.517      -52.042       -8.127       37.152       38.008       21.930     1380.265     1444.581      480.938        1.067        0.165      134.033       17.031        0.016      345.627       23.293      860.811
06/08/2014  22:18:00      -64.198      -49.163       -0.975       45.596       48.031       20.995     2078.960     2307.013      440.785        0.568        0.241       80.861       13.733        0.029      345.507       23.087      860.813
06/08/2014  22:19:00     -106.285      -56.264       -5.115       53.033       50.547       24.093     2812.465     2555.030      580.464        1.022        0.297      120.259       20.642        0.029      345.507       23.086      860.822
06/08/2014  22:20:00     -102.725      -37.450       -6.607       45.931       43.370       27.205     2109.668     1880.990      740.118        0.836        0.237      109.338       20.496        0.035      345.443       22.977      860.831
06/08/2014  22:21:00      -31.217        0.475       -3.588       49.734       24.635       17.823     2473.515      606.885      317.661        0.219        0.170       31.221        7.136        0.052      345.353       22.823      860.853
06/08/2014  22:22:00      -52.683      -21.109      -23.727       40.315       23.290       16.922     1625.268      542.445      286.348        0.312        0.123       56.755       16.043        0.080      345.416       22.932      860.857
06/08/2014  22:23:00      -54.403      -50.077      -25.053       27.291       33.141       20.067      744.777     1098.314      402.665        0.417        0.112       73.942       11.816        0.026      345.356       22.828      860.850
06/08/2014  22:24:00      -85.818      -19.946      -21.384       25.607       23.158       17.085      655.723      536.305      291.895        0.485        0.074       88.105        9.886        0.013      345.419       22.935      860.859
06/08/2014  22:25:00      -66.575      -20.175       -3.647       25.851       17.828       19.246      668.296      317.841      370.424        0.310        0.068       69.565       14.042        0.041      345.499       23.072      860.860
06/08/2014  22:26:00      -88.664      -23.777       -7.291       20.074       33.522       24.122      402.946     1123.735      581.873        0.529        0.105       91.797       17.328        0.036      345.487       23.052      860.874
06/08/2014  22:27:00      -97.196      -50.193      -21.035       32.217       25.411       20.407     1037.916      645.740      416.456        0.725        0.105      109.391       15.916        0.021      345.368       22.847      860.868
06/08/2014  22:28:00      -93.297      -38.444      -22.334       24.325       35.611       16.924      591.722     1268.172      286.420        0.641        0.107      100.907       13.794        0.019      345.226       22.604      860.885
06/08/2014  22:29:00      -93.864      -12.391      -20.298       16.812       25.043       17.290      282.645      627.144      298.960        0.529        0.060       94.678       16.941        0.032      345.316       22.760      860.890
06/08/2014  22:30:00     -107.507      -13.259      -13.420       15.592       21.826       13.433      243.115      476.367      180.432        0.641        0.045      108.322       11.380        0.011      345.297       22.725      860.898
06/08/2014  22:31:00     -111.104      -23.203      -15.422       16.614       18.401       16.017      276.039      338.609      256.529        0.700        0.044      113.501       10.175        0.008      345.244       22.635      860.904
06/08/2014  22:32:00     -125.790      -52.140      -20.466       23.544       28.035       15.584      554.343      785.973      242.866        1.027        0.079      136.168        9.666        0.005      345.178       22.523      860.902
06/08/2014  22:33:00     -118.535      -57.410      -10.986       47.776       40.158       28.245     2282.519     1612.688      797.790        1.108        0.235      131.705       27.224        0.043      345.134       22.447      860.904
06/08/2014  22:34:00      -77.741      -36.622       -8.389       51.955       44.957       22.207     2699.317     2021.091      493.138        0.633        0.261       85.935       23.566        0.075      345.073       22.344      860.904
06/08/2014  22:35:00      -79.373      -49.428       -4.641       30.311       36.411       24.014      918.727     1325.788      576.679        0.579        0.141       93.505       19.215        0.042      345.061       22.323      860.908
06/08/2014  22:36:00      -66.528      -47.092      -14.540       31.972       24.322       20.033     1022.213      591.564      401.341        0.443        0.101       81.508       13.898        0.029      345.132       22.444      860.905
06/08/2014  22:37:00      -97.870      -37.833      -18.124       59.583       36.331       17.846     3550.178     1319.929      318.492        0.826        0.259      104.928       16.184        0.024      345.184       22.533      860.910
06/08/2014  22:38:00     -119.311      -14.896      -10.711       29.574       42.554       20.316      874.593     1810.832      412.751        0.883        0.155      120.237       16.226        0.018      345.041       22.290      860.896
06/08/2014  22:39:00      -66.683      -24.610      -13.000       32.953       25.436       13.196     1085.914      646.998      174.131        0.356        0.095       71.079       10.772        0.023      345.084       22.362      860.891
06/08/2014  22:40:00      -81.763      -28.493      -14.438       25.784       25.001       16.541      664.789      625.060      273.595        0.463        0.078       86.586       12.885        0.022      345.104       22.397      860.894
06/08/2014  22:41:00      -59.737      -35.510       -3.585       45.438       25.430       20.093     2064.598      646.674      403.711        0.398        0.156       69.494       21.188        0.093      344.960       22.149      860.894
06/08/2014  22:42:00      -95.759      -34.052      -11.308       41.979       26.108       17.574     1762.206      681.616      308.845        0.660        0.138      101.634       18.960        0.035      344.965       22.159      860.891
06/08/2014  22:43:00      -96.643      -21.778      -18.152       36.155       28.950       17.840     1307.171      838.092      318.274        0.630        0.123       99.066       12.193        0.015      344.883       22.018      860.889
06/08/2014  22:44:00      -77.103      -33.323      -12.799       23.170       23.795       21.621      536.869      566.181      467.465        0.439        0.079       83.996        9.024        0.012      344.916       22.074      860.890
06/08/2014  22:45:00      -77.332      -27.988      -15.747       31.467       23.408       20.939      990.193      547.935      438.425        0.449        0.099       82.241       16.953        0.042      344.939       22.114      860.894
06/08/2014  22:46:00      -38.744      -20.909        5.230       38.090       28.337       16.746     1450.820      802.975      280.416        0.225        0.127       44.026        9.850        0.050      344.821       21.913      860.898
06/08/2014  22:47:00      -59.665      -33.029      -14.339       31.686       28.393       20.809     1004.025      806.162      433.033        0.355        0.112       68.197       10.042        0.022      344.800       21.874      860.895
06/08/2014  22:48:00      -91.560      -24.201      -15.648       21.070       23.552       15.088      443.954      554.708      227.655        0.522        0.061       94.705       10.971        0.013      344.781       21.843      860.898
06/08/2014  22:49:00      -76.919      -35.707       -7.433       28.538       18.108       18.336      814.425      327.891      336.224        0.436        0.074       84.803       15.171        0.032      344.835       21.936      860.893
06/08/2014  22:50:00      -50.146      -27.029       -5.048       24.503       24.857       16.249      600.389      617.856      264.030        0.238        0.074       56.966       11.247        0.039      344.886       22.023      860.895
06/08/2014  22:51:00      -90.005       18.544      -19.438       25.030       27.536       15.402      626.502      758.229      237.212        0.522        0.081       91.895       11.639        0.016      344.780       21.841      860.901
06/08/2014  22:52:00      -84.147      -30.439      -16.159       29.907       23.412       15.266      894.437      548.100      233.057        0.497        0.084       89.483       11.409        0.016      344.792       21.863      860.899
06/08/2014  22:53:00      -98.555      -33.251      -10.859       48.728       23.478       13.749     2374.378      551.230      189.048        0.702        0.156      104.013       13.969        0.018      344.619       21.567      860.894
06/08/2014  22:54:00      -61.260      -48.870      -16.434       42.523       43.306       27.419     1808.225     1875.448      751.829        0.542        0.222       78.365       19.898        0.064      344.655       21.627      860.896
06/08/2014  22:55:00      -80.555      -36.073      -21.716       30.146       42.893       24.599      908.778     1839.790      605.093        0.581        0.168       88.264       20.963        0.056      344.656       21.631      860.887
06/08/2014  22:56:00      -82.213      -13.621       -5.084       21.480       31.532       19.985      461.369      994.297      399.400        0.441        0.093       83.333       16.779        0.041      344.705       21.713      860.883
06/08/2014  22:57:00      -76.095      -34.416      -10.913       21.287       24.097       20.185      453.150      580.676      407.444        0.427        0.072       83.516       13.893        0.028      344.710       21.722      860.873
06/08/2014  22:58:00      -57.037      -18.445      -14.777       28.248       20.876       16.405      797.958      435.787      269.118        0.266        0.075       59.945       13.246        0.049      344.714       21.728      860.885
06/08/2014  22:59:00      -63.279       -8.576      -11.474       15.812       15.918       15.077      250.021      253.398      227.310        0.247        0.037       63.857        3.721        0.003      344.700       21.704      860.890
06/08/2014  23:00:00      -84.089      -13.274       -8.908       38.147       27.525       21.452     1455.175      757.614      460.192        0.500        0.134       85.130       16.880        0.039      344.662       21.640      860.892
06/08/2014  23:01:00     -133.198       -7.495      -20.643       24.891       22.628       18.055      619.549      512.037      325.987        0.984        0.073      133.408       13.156        0.010      344.633       21.592      860.879
06/08/2014  23:02:00      -74.908      -19.419      -11.725       33.396       25.423       26.798     1115.269      646.325      718.149        0.430        0.124       77.384       17.759        0.053      344.597       21.530      860.876
06/08/2014  23:03:00     -117.501      -12.878      -14.965       30.531       29.675       15.858      932.121      880.580      251.466        0.813        0.103      118.205       12.037        0.010      344.595       21.524      860.863
06/08/2014  23:04:00      -93.959      -33.992      -12.646       31.789       25.133       22.967     1010.557      631.692      527.499        0.616        0.108       99.919       19.169        0.037      344.554       21.456      860.861
06/08/2014  23:05:00      -34.654      -29.082      -15.671       36.240       21.168       17.042     1313.362      448.102      290.437        0.217        0.103       45.240       14.953        0.109      344.475       21.320      860.856
06/08/2014  23:06:00      -41.527      -31.075       -7.950       37.378       33.596       28.956     1397.083     1128.671      838.428        0.306        0.168       51.866       18.012        0.121      344.477       21.323      860.853
06/08/2014  23:07:00      -73.935      -31.575      -14.921       46.809       31.442       28.936     2191.067      988.630      837.299        0.535        0.201       80.395       25.118        0.098      344.429       21.241      860.857
06/08/2014  23:08:00     -135.614      -60.728      -21.146       28.267       26.851       19.168      799.031      720.964      367.429        1.221        0.094      148.590       11.491        0.006      344.418       21.222      860.836
06/08/2014  23:09:00     -113.005      -42.005      -16.403       23.070       24.498       18.347      532.223      600.132      336.612        0.814        0.073      120.560        8.789        0.005      344.387       21.169      860.829
06/08/2014  23:10:00      -99.613      -18.632      -10.858       39.699       31.290       22.150     1575.994      979.037      490.641        0.672        0.152      101.341       23.052        0.052      344.369       21.138      860.820
06/08/2014  23:11:00      -98.490      -16.173      -21.397       31.971       31.666       14.075     1022.174     1002.728      198.114        0.632        0.111       99.809       13.949        0.020      344.477       21.322      860.818
06/08/2014  23:12:00     -105.820      -28.905      -12.661       21.578       25.582       16.100      465.613      654.452      259.194        0.679        0.069      109.697       12.800        0.014      344.528       21.411      860.826
06/08/2014  23:13:00      -89.578      -48.400       -4.106       39.368       29.843       25.409     1549.811      890.586      645.621        0.673        0.154      101.817       22.470        0.049      344.470       21.312      860.812
06/08/2014  23:14:00      -55.982      -45.022       -1.819       34.759       30.364       23.564     1208.210      921.961      555.277        0.392        0.134       71.839       18.759        0.068      344.437       21.256      860.810
06/08/2014  23:15:00     -104.138      -44.647      -12.260       39.428       31.450       26.787     1554.546      989.123      717.522        0.812        0.163      113.305       23.533        0.043      344.387       21.169      860.820
06/08/2014  23:16:00     -144.854      -30.830      -24.962       23.525       25.990       18.977      553.431      675.482      360.109        1.207        0.079      148.098       15.516        0.011      344.396       21.185      860.830
06/08/2014  23:17:00     -113.040      -37.846      -25.022       23.504       24.211       17.292      552.417      586.179      299.003        0.814        0.072      119.207       15.100        0.016      344.356       21.116      860.824
06/08/2014  23:18:00     -102.077      -39.708       -9.280       32.902       33.530       23.440     1082.543     1124.276      549.437        0.742        0.138      109.528       17.722        0.026      344.347       21.102      860.827
06/08/2014  23:19:00     -117.628      -39.039      -21.652       21.832       26.544       14.831      476.625      704.560      219.963        0.861        0.070      123.937       10.212        0.007      344.409       21.207      860.838
06/08/2014  23:20:00     -123.083      -56.042      -24.684       22.572       27.739       17.171      509.478      769.452      294.834        1.024        0.079      135.241       12.127        0.008      344.452       21.281      860.841
06/08/2014  23:21:00     -120.602      -45.864      -15.678       32.878       44.335       20.758     1080.942     1965.629      430.894        1.019        0.174      129.028       16.554        0.016      344.298       21.018      860.836
06/08/2014  23:22:00     -113.485      -23.951      -17.672       47.693       34.213       20.671     2274.585     1170.528      427.285        0.882        0.194      115.985       19.535        0.028      344.344       21.097      860.826
06/08/2014  23:23:00     -116.524      -33.889      -28.334       40.324       24.060       21.608     1626.065      578.871      466.909        0.910        0.134      121.352       18.764        0.024      344.355       21.115      860.827
06/08/2014  23:24:00     -146.681      -53.034      -21.018       30.065       34.317       20.091      903.916     1177.686      403.633        1.363        0.124      155.974        6.590        0.002      344.259       20.951      860.837
06/08/2014  23:25:00     -100.411      -30.043      -10.720       65.393       38.998       28.750     4276.283     1520.838      826.538        0.886        0.331      104.810       33.027        0.099      344.251       20.937      860.826
06/08/2014  23:26:00     -133.101      -35.300      -10.341       35.582       42.775       25.285     1266.044     1829.731      639.341        1.140        0.187      137.702       16.075        0.014      344.245       20.927      860.832
06/08/2014  23:27:00      -74.692      -31.125       -9.670       48.842       31.027       25.142     2385.559      962.666      632.134        0.531        0.199       80.917        8.045        0.010      344.282       20.991      860.825
06/08/2014  23:28:00      -68.262      -19.440       -3.398       44.520       44.330       32.001     1982.040     1965.170     1024.076        0.501        0.249       70.976       33.651        0.225      344.182       20.818      860.821
06/08/2014  23:29:00      -89.014      -10.554       -5.358       45.318       46.147       24.605     2053.703     2129.567      605.401        0.643        0.239       89.638       19.838        0.049      344.176       20.809      860.819
06/08/2014  23:30:00     -102.550      -18.534      -13.019       43.908       32.429       23.153     1927.880     1051.665      536.071        0.727        0.176      104.212       12.981        0.016      344.199       20.849      860.827
06/08/2014  23:31:00      -80.357      -12.673       -7.603       29.081       32.923       18.298      845.686     1083.931      334.825        0.447        0.113       81.350       12.791        0.025      344.192       20.837      860.836
06/08/2014  23:32:00      -57.170      -15.390        4.535       40.126       36.081       21.365     1610.073     1301.807      456.458        0.345        0.168       59.205       10.592        0.032      344.129       20.730      860.835
06/08/2014  23:33:00      -64.807      -26.430      -13.390       39.446       37.504       17.965     1555.951     1406.572      322.741        0.418        0.164       69.989       16.439        0.055      344.109       20.694      860.846
06/08/2014  23:34:00      -21.093       12.199       10.767       37.834       21.315       18.651     1431.411      454.350      347.876        0.147        0.112       24.366       18.567        0.581      343.977       20.470      860.842
06/08/2014  23:35:00      -90.832      -20.966       -6.947       27.313       39.795       26.430      746.001     1583.656      698.538        0.588        0.151       93.220       19.495        0.044      344.109       20.694      860.843
06/08/2014  23:36:00      -19.878      -13.830       15.300       57.986       34.369       25.961     3362.357     1181.228      673.989        0.302        0.261       24.216       32.240        1.773      343.985       20.484      860.841
06/08/2014  23:37:00      -10.681       -2.122        3.788       21.251       28.701       26.927      451.590      823.776      725.052        0.107        0.100       10.889       20.796        3.647      343.876       20.295      860.854
06/08/2014  23:38:00      -44.728       -4.748        6.335       39.326       35.472       23.818     1546.501     1258.263      567.275        0.272        0.169       44.980       22.856        0.258      343.948       20.420      860.861
06/08/2014  23:39:00       -7.899       21.085       -0.047       29.064       33.830       23.938      844.742     1144.487      573.035        0.153        0.128       22.516       14.162        0.396      343.918       20.370      860.876
06/08/2014  23:40:00      -52.186      -30.723       -3.805       46.351       39.269       20.636     2148.426     1542.048      425.860        0.390        0.206       60.558       15.094        0.062      344.028       20.556      860.875
06/08/2014  23:41:00      -51.274       -0.949       -5.556       27.490       33.299       22.192      755.702     1108.811      492.487        0.251        0.118       51.283        9.932        0.038      343.995       20.501      860.875
06/08/2014  23:42:00      -27.177        0.333        9.330       33.309       23.985       29.244     1109.503      575.286      855.193        0.168        0.127       27.179       19.551        0.517      343.931       20.391      860.876
06/08/2014  23:43:00      -70.107      -20.288        1.892       50.551       37.172       23.268     2555.426     1381.791      541.394        0.490        0.224       72.983       22.418        0.094      343.963       20.444      860.882
06/08/2014  23:44:00      -21.813        6.782       15.912       34.814       30.123       25.486     1212.048      907.409      649.521        0.177        0.138       22.843       19.990        0.766      343.833       20.224      860.901
06/08/2014  23:45:00      -58.299      -20.500       -7.770       30.499       34.854       21.865      930.166     1214.806      478.082        0.325        0.131       61.798       12.722        0.042      344.012       20.527      860.901
06/08/2014  23:46:00     -109.832      -54.727      -25.419       38.706       33.718       21.799     1498.127     1136.873      475.218        0.941        0.156      122.711       11.557        0.009      343.996       20.502      860.896
06/08/2014  23:47:00      -81.544      -58.759      -20.750       44.395       39.553       34.429     1970.917     1564.418     1185.353        0.763        0.236      100.508       28.223        0.079      343.940       20.406      860.884
06/08/2014  23:48:00      -81.242      -49.547       -4.122       60.305       47.168       31.964     3636.745     2224.857     1021.708        0.798        0.344       95.159       22.575        0.056      343.937       20.401      860.886
06/08/2014  23:49:00      -58.368      -41.648        8.314       60.901       41.909       33.915     3708.984     1756.354     1150.230        0.591        0.331       71.703       33.514        0.218      343.868       20.282      860.888
06/08/2014  23:50:00      -57.112      -73.160       -2.279       60.806       49.577       28.332     3697.412     2457.856      802.690        0.779        0.348       92.813       33.079        0.127      343.847       20.247      860.889
06/08/2014  23:51:00      -68.720      -77.205       -3.558       61.084       43.236       34.678     3731.303     1869.326     1202.540        0.875        0.340      103.359       37.972        0.135      343.846       20.244      860.910
06/08/2014  23:52:00      -26.371      -31.908        9.749       53.035       47.097       30.550     2812.735     2218.092      933.287        0.389        0.298       41.395       32.091        0.601      343.737       20.061      860.911
06/08/2014  23:53:00     -133.117      -63.648       -1.103       45.073       42.123       27.155     2031.558     1774.374      737.371        1.316        0.227      147.550       22.364        0.023      343.822       20.203      860.921
06/08/2014  23:54:00     -155.026      -25.758       -8.235       50.835       41.329       22.044     2584.226     1708.084      485.933        1.477        0.239      157.151       23.475        0.022      343.841       20.237      860.919
06/08/2014  23:55:00     -118.799      -45.784       -4.363       62.545       43.211       28.527     3911.926     1867.218      813.764        1.141        0.330      127.316       30.044        0.056      343.809       20.181      860.922
06/08/2014  23:56:00     -146.469      -93.772       -5.551       53.016       37.802       27.957     2810.748     1429.027      781.572        1.765        0.251      173.915       19.827        0.013      343.772       20.116      860.919
06/08/2014  23:57:00     -106.414      -43.350       -2.387       48.453       54.152       27.559     2347.735     2932.488      759.503        0.962        0.302      114.905       17.017        0.022      343.800       20.167      860.892
06/08/2014  23:58:00     -103.284      -32.828      -14.185       35.739       38.852       28.721     1277.278     1509.491      824.874        0.778        0.181      108.375       18.202        0.028      343.890       20.320      860.882
06/08/2014  23:59:00      -58.202      -25.865       -6.697       75.076       32.959       27.199     5636.464     1086.290      739.801        0.578        0.373       63.691       33.214        0.272      343.717       20.025      860.889
